[[{"header":{"parameterUnit":"m.s-1","parameterCategory":1,"la1":30.6,"la2":29.2853,"lo1":-89.7004,"lo2":-87.6739,"dy":0.0162,"dx":0.0183,"nx":112,"ny":82,"refTime":"2023-08-30T06:00:00:Z","depth":0,"parameterNumber":2,"parameterNumberName":"U-component_of_WINDS"},"data":[0.0,0.0,0.0,0.0,0.0,0.0,0.0,0.0,0.0,0.0,0.0,0.0,0.0,0.0,0.0,0.0,0.0,0.0,0.0,0.0,0.0,0.0,0.0,0.0,0.0,0.0,0.0,0.0,0.0,0.0,0.0,0.0,0.0,0.0,0.0,0.0,0.0,0.0,0.0,0.0,0.0,0.0,0.0,0.0,0.0,0.0,0.0,0.0,0.0,0.0,0.0,0.0,0.0,0.0,0.0,0.0,0.0,0.0,0.0,0.0,0.0,0.0,0.0,0.0,0.0,0.0,0.0,0.0,0.0,0.0,0.0,0.0,0.0,0.0,0.0,0.0,0.0,0.0,0.0,0.0,0.0,0.0,0.0,0.0,0.0,0.0,0.0,0.0,0.0,0.0,1.1503,1.449,1.7272,1.8739,1.838,1.6557,1.4384,1.1894,0.0,0.0,0.0,0.0,0.0,0.0,0.0,0.0,0.0,0.0,0.0,0.0,0.0,0.0,0.0,0.0,0.0,0.0,0.0,0.0,0.0,0.0,0.0,0.0,0.0,0.0,0.0,0.0,0.0,0.0,0.0,0.0,0.0,0.0,0.0,0.0,0.0,0.0,0.0,0.0,0.0,0.0,0.0,0.0,0.0,0.0,0.0,0.0,0.0,0.0,0.0,0.0,0.0,0.0,0.0,0.0,0.0,0.0,0.0,0.0,0.0,0.0,0.0,0.0,0.0,0.0,0.0,0.0,0.0,0.0,0.0,0.0,0.0,0.0,0.0,0.0,0.0,0.0,0.0,0.0,0.0,0.0,0.0,0.0,0.0,0.0,0.0,0.0,0.0,0.0,0.0,0.0,0.0,0.0,0.0,0.0,0.0,0.0,0.0,0.0,0.0,0.0,0.0,0.0,1.104,1.5706,1.5852,1.5939,1.6761,1.5232,1.3559,1.1917,0.0,0.0,0.0,0.0,0.0,0.0,0.0,0.0,0.0,0.0,0.0,0.0,0.0,0.0,0.0,0.0,0.0,0.0,0.0,0.0,0.0,0.0,0.0,0.0,0.0,0.0,0.0,0.0,0.0,0.0,0.0,0.0,0.0,0.0,0.0,0.0,0.0,0.0,0.0,0.0,0.0,0.0,0.0,0.0,0.0,0.0,0.0,0.0,0.0,0.0,0.0,0.0,0.0,0.0,0.0,0.0,0.0,0.0,0.0,0.0,0.0,0.0,0.0,0.0,0.0,0.0,0.0,0.0,0.0,0.0,0.0,0.0,0.0,0.0,0.0,0.0,0.0,0.0,0.0,0.0,0.0,0.0,0.0,0.0,0.0,0.0,0.0,0.0,0.0,0.0,0.0,0.0,0.0,0.0,0.0,0.0,0.0,0.0,0.0,0.0,0.0,0.0,0.0,1.0174,1.2314,1.6057,1.6264,1.6285,1.6634,1.5277,1.371,1.2014,1.1877,0.0,0.0,0.0,0.0,0.0,0.0,0.0,0.0,0.0,0.0,0.0,0.0,0.0,0.0,0.0,0.0,0.0,0.0,0.0,0.0,0.0,0.0,0.0,0.0,0.0,0.0,0.0,0.0,0.0,0.0,0.0,0.0,0.0,0.0,0.0,0.0,0.0,0.0,0.0,0.0,0.0,0.0,0.0,0.0,0.0,0.0,0.0,0.0,0.0,0.0,0.0,0.0,0.0,0.0,0.0,0.0,0.0,0.0,0.0,0.0,0.0,0.0,0.0,0.0,0.0,0.0,0.0,0.0,0.0,0.0,0.0,0.0,0.0,0.0,0.0,0.0,0.0,0.0,0.0,0.0,0.0,0.0,0.0,0.0,0.0,0.0,0.0,0.0,0.0,0.0,0.0,0.0,0.0,0.0,0.0,0.0,0.0,0.0,0.0,0.0,0.0,0.0,1.1124,1.3207,1.5879,1.6312,1.6444,1.6559,1.5162,1.3651,1.2147,1.189,0.0,0.0,0.0,0.0,0.0,0.0,0.0,0.0,0.0,0.0,0.0,0.0,0.0,0.0,0.0,0.0,0.0,0.0,0.0,0.0,0.0,0.0,0.0,0.0,0.0,0.0,0.0,0.0,0.0,0.0,0.0,0.0,0.0,0.0,0.0,0.0,0.0,0.0,0.0,0.0,0.0,0.0,0.0,0.0,0.0,0.0,0.0,0.0,0.0,0.0,0.0,0.0,0.0,0.0,0.0,0.0,0.0,0.0,0.0,0.0,0.0,0.0,0.0,0.0,0.0,0.0,0.0,0.0,0.0,0.0,0.0,0.0,0.0,0.0,0.0,0.0,0.0,0.0,0.0,0.0,0.0,0.0,0.0,0.0,0.0,0.0,0.0,0.0,0.0,0.0,0.0,0.0,0.0,0.0,0.0,0.0,0.0,0.0,0.0,0.0,0.0,0.0,1.0383,1.2379,1.5179,1.4614,1.4532,1.5759,1.3946,1.2589,1.2223,1.2026,0.0,0.0,0.0,0.0,0.0,0.0,0.0,0.0,0.0,0.0,0.0,0.0,0.0,0.0,0.0,0.0,0.0,0.0,0.0,0.0,0.0,0.0,0.0,0.0,0.0,0.0,0.0,0.0,0.0,0.0,0.0,0.0,0.0,0.0,0.0,0.0,0.0,0.0,0.0,0.0,0.0,0.0,0.0,0.0,0.0,0.0,0.0,0.0,0.0,0.0,0.0,0.0,0.0,0.0,0.0,0.0,0.0,0.0,0.0,0.0,0.0,0.0,0.0,0.0,0.0,0.0,0.0,0.0,0.0,0.0,0.0,0.0,0.0,0.0,0.0,0.0,0.0,0.0,0.0,0.0,0.0,0.0,0.0,0.0,0.0,0.0,0.0,0.0,0.0,0.0,0.0,0.0,0.0,0.0,0.0,0.0,0.0,0.0,0.0,0.0,0.0,0.0,1.0346,1.2105,1.47,1.5055,1.5299,1.5747,1.486,1.3868,1.296,0.0,0.0,0.0,0.0,0.0,0.0,0.0,0.0,0.0,0.0,0.0,0.0,0.0,0.0,0.0,0.0,0.0,0.0,0.0,0.0,0.0,0.0,0.0,0.0,0.0,0.0,0.0,0.0,0.0,0.0,0.0,0.0,0.0,0.0,0.0,0.0,0.0,0.0,0.0,0.0,0.0,0.0,0.0,0.0,0.0,0.0,0.0,0.0,0.0,0.0,0.0,0.0,0.0,0.0,0.0,0.0,0.0,0.0,0.0,0.0,0.0,0.0,0.0,0.0,0.0,0.0,0.0,0.0,0.0,0.0,0.0,0.0,0.0,0.0,0.0,0.0,0.0,0.0,0.0,0.0,0.0,0.0,0.0,0.0,0.0,0.0,0.0,0.0,0.0,0.0,0.0,0.0,0.0,0.0,0.0,0.0,0.0,0.0,0.0,0.0,0.0,0.0,0.8887,1.0454,1.2252,1.4396,1.495,1.5275,1.564,1.4656,1.3751,1.3072,0.0,0.0,0.0,0.0,0.0,0.0,0.0,0.0,0.0,0.0,0.0,0.0,0.0,0.0,0.0,0.0,0.0,0.0,0.0,0.0,0.0,0.0,0.0,0.0,0.0,0.0,0.0,0.0,0.0,0.0,0.0,0.0,0.0,0.0,0.0,0.0,0.0,0.0,0.0,0.0,0.0,0.0,0.0,0.0,0.0,0.0,0.0,0.0,0.0,0.0,0.0,0.0,0.0,0.0,0.0,0.0,0.0,0.0,0.0,0.0,0.0,0.0,0.0,0.0,0.0,0.0,0.0,0.0,0.0,0.0,0.0,0.0,0.0,0.0,0.0,0.0,0.0,0.0,0.0,0.0,0.0,0.0,0.0,0.0,0.0,0.0,0.0,0.0,0.0,0.0,0.0,0.0,0.0,0.0,0.0,0.0,0.0,0.0,0.0,0.0,0.0,0.0,0.8371,1.0631,1.2733,1.4343,1.3905,1.4008,1.5288,1.2862,1.1634,0.0,0.0,0.0,0.0,0.0,0.0,0.0,0.0,0.0,0.0,0.0,0.0,0.0,0.0,0.0,0.0,0.0,0.0,0.0,0.0,0.0,0.0,0.0,0.0,0.0,0.0,0.0,0.0,0.0,0.0,0.0,0.0,0.0,0.0,0.0,0.0,0.0,0.0,0.0,0.0,0.0,0.0,0.0,0.0,0.0,0.0,0.0,0.0,0.0,0.0,0.0,0.0,0.0,0.0,0.0,0.0,0.0,0.0,0.0,0.0,0.0,0.0,0.0,0.0,0.0,0.0,0.0,0.0,0.0,0.0,0.0,0.0,0.0,0.0,0.0,0.0,0.0,0.0,0.0,0.0,0.0,0.0,0.0,0.0,0.0,0.0,0.0,0.0,0.0,0.0,0.0,0.0,0.0,0.0,0.0,0.0,0.0,0.0,0.0,0.0,0.0,0.0,0.0,0.9021,1.1271,1.3302,1.4593,1.3934,1.3793,1.4687,1.247,1.1165,1.1553,0.0,0.0,0.0,0.0,0.0,0.0,0.0,0.0,0.0,0.0,0.0,0.0,0.0,0.0,0.0,0.0,0.0,0.0,0.0,0.0,0.0,0.0,0.0,0.0,0.0,0.0,0.0,0.0,0.0,0.0,0.0,0.0,0.0,0.0,0.0,0.0,0.0,0.0,0.0,0.0,0.0,0.0,0.0,0.0,0.0,0.0,0.0,0.0,0.0,0.0,0.0,0.0,0.0,0.0,0.0,0.0,0.0,0.0,0.0,0.0,0.0,0.0,0.0,0.0,0.0,0.0,0.0,0.0,0.0,0.0,0.0,0.0,0.0,0.0,0.0,0.0,0.0,0.0,0.0,0.0,0.0,0.0,0.0,0.0,0.0,0.0,0.0,0.0,0.0,0.0,0.0,0.0,0.0,0.0,0.0,0.0,0.0,0.0,0.0,0.0,0.0,0.0,0.9036,1.1046,1.2962,1.4392,1.3697,1.343,1.4206,1.2233,1.0945,1.0813,0.0,0.0,0.0,0.0,0.0,0.0,0.0,0.0,0.0,0.0,0.0,0.0,0.0,0.0,0.0,0.0,0.0,0.0,0.0,0.0,0.0,0.0,0.0,0.0,0.0,0.0,0.0,0.0,0.0,0.0,0.0,0.0,0.0,0.0,0.0,0.0,0.0,0.0,0.0,0.0,0.0,0.0,0.0,0.0,0.0,0.0,0.0,0.0,0.0,0.0,0.0,0.0,0.0,0.0,0.0,0.0,0.0,0.0,0.0,0.0,0.0,0.0,0.0,0.0,0.0,0.0,0.0,0.0,0.0,0.0,0.0,0.0,0.0,0.0,0.0,0.0,0.0,0.0,0.0,0.0,0.0,0.0,0.0,0.0,0.0,0.0,0.0,0.0,0.0,0.0,0.0,0.0,0.0,0.0,0.0,0.0,0.0,0.0,0.0,0.0,0.0,0.0,0.8568,1.0425,1.2234,1.3929,1.3338,1.3049,1.3676,1.209,1.0746,0.9959,0.0,0.0,0.0,0.0,0.0,0.0,0.0,0.0,0.0,0.0,0.0,0.0,0.0,0.0,0.0,0.0,0.0,0.0,0.0,0.0,0.0,0.0,0.0,0.0,0.0,0.0,0.0,0.0,0.0,0.0,0.0,0.0,0.0,0.0,0.0,0.0,0.0,0.0,0.0,0.0,0.0,0.0,0.0,0.0,0.0,0.0,0.0,0.0,0.0,0.0,0.0,0.0,0.0,0.0,0.0,0.0,0.0,0.0,0.0,0.0,-1.0187,-0.892,0.0,0.0,0.0,0.0,0.0,0.0,0.0,0.0,0.0,0.0,0.0,0.0,0.0,0.0,0.0,0.0,0.0,0.0,0.0,0.0,0.0,0.0,0.0,0.0,0.0,0.0,0.0,0.0,0.0,0.0,0.0,0.0,0.0,0.0,0.0,0.0,0.0,0.0,0.0,0.0,0.8292,1.1066,1.3134,1.3598,1.3603,1.3275,1.2553,1.1535,0.9953,0.765,0.6177,0.0,0.0,0.0,0.0,0.0,0.0,0.0,0.0,0.0,0.0,0.0,0.0,0.0,0.0,0.0,0.0,0.0,0.0,0.0,0.0,0.0,0.0,0.0,0.0,0.0,0.0,0.0,0.0,0.0,0.0,0.0,0.0,0.0,0.0,0.0,0.0,0.0,0.0,0.0,0.0,0.0,0.0,0.0,0.0,0.0,0.0,0.0,0.0,0.0,0.0,0.0,0.0,0.0,0.0,0.0,0.0,0.0,0.0,0.0,-1.9974,-1.8068,0.0,0.0,0.0,0.0,0.0,0.0,0.0,0.0,0.0,0.0,0.0,0.0,0.0,0.0,0.0,0.0,0.0,0.0,0.0,0.0,0.0,0.0,0.0,0.0,0.0,0.0,0.0,0.0,0.0,0.0,0.0,0.0,0.0,0.0,0.0,0.0,0.0,0.0,0.0,0.0,0.8051,1.031,1.2212,1.3393,1.3216,1.2863,1.2474,1.1299,0.9667,0.7524,0.5192,0.0,0.0,0.0,0.0,0.0,0.0,0.0,0.0,0.0,0.0,0.0,0.0,0.0,0.0,0.0,0.0,0.0,0.0,0.0,0.0,0.0,0.0,0.0,0.0,0.0,0.0,0.0,0.0,0.0,0.0,0.0,0.0,0.0,0.0,0.0,0.0,0.0,0.0,0.0,0.0,0.0,0.0,0.0,0.0,0.0,0.0,0.0,0.0,0.0,0.0,0.0,0.0,0.0,-2.6188,-2.8161,-2.924,-3.0248,-3.1568,-3.2889,-2.8878,-2.74,-2.7687,-2.5536,0.0,0.0,0.0,0.0,0.0,0.0,0.0,0.0,0.0,0.0,0.0,0.0,0.0,0.0,0.0,0.0,0.0,0.0,0.0,0.0,0.0,0.0,-1.8542,-1.8296,-1.9393,-1.9028,-1.3462,0.0,0.0,0.0,0.0,0.0,0.0,0.0,0.0,0.0,0.0,0.0,0.7566,0.9004,1.0678,1.2764,1.2419,1.2123,1.2365,1.104,0.9465,0.7829,0.4606,0.1507,0.0,0.0,0.0,0.0,0.0,0.0,0.0,0.0,0.0,0.0,0.0,0.0,0.0,0.0,0.0,0.0,0.0,0.0,0.0,0.0,0.0,0.0,0.0,0.0,0.0,0.0,0.0,0.0,0.0,0.0,0.0,0.0,-0.6923,-0.8414,0.0,0.0,0.0,0.0,0.0,0.0,0.0,0.0,0.0,0.0,0.0,0.0,0.0,-2.3466,-2.5512,-2.6739,-2.8014,-2.9401,-3.0706,-3.2312,-3.4031,-3.4593,-3.5296,-3.592,-3.5307,0.0,-3.3472,-3.2109,0.0,0.0,0.0,0.0,0.0,0.0,0.0,0.0,0.0,0.0,0.0,0.0,0.0,0.0,0.0,0.0,0.0,0.0,0.0,0.0,0.0,0.0,-2.1696,-2.2673,-2.1956,-2.1069,-2.1247,-1.6574,-1.1638,-0.9294,-0.7269,-0.5301,0.0,0.0,0.0,0.0,0.0,0.0,0.6196,0.8062,0.9759,1.0851,1.1246,1.1221,1.0767,1.0398,0.9144,0.6666,0.4095,0.0745,-0.3499,-0.7402,0.0,0.0,0.0,0.0,0.0,0.0,0.0,0.0,0.0,0.0,0.0,0.0,0.0,0.0,0.0,0.0,0.0,0.0,0.0,0.0,0.0,0.0,0.0,0.0,0.0,0.0,0.0,0.0,0.0,-0.7472,-1.3176,-1.5031,-1.5006,-1.4022,0.0,0.0,0.0,0.0,0.0,0.0,0.0,0.0,0.0,-2.5265,-2.5737,-2.6946,-2.9075,-2.9713,-3.0405,-3.1216,-3.2235,-3.3384,-3.4528,-3.4303,-3.4355,-3.4604,-3.418,-3.3729,-3.3317,-3.4025,-3.3847,-3.2895,0.0,0.0,0.0,0.0,-2.6475,-2.6458,-2.6884,-2.7537,-2.7748,-2.5074,0.0,0.0,0.0,0.0,0.0,0.0,0.0,-1.7845,-1.8523,-1.9905,-2.1243,-2.1728,-2.1994,-2.2091,-2.1982,-1.9441,-1.6267,-1.3132,-0.9981,-0.7218,-0.5161,-0.3082,0.0,0.0,0.0,0.4368,0.514,0.716,0.8913,0.9929,1.0373,1.0573,1.0576,0.9952,0.8727,0.6751,0.2929,-0.1087,-0.5096,-0.9984,-1.4362,0.0,0.0,0.0,0.0,0.0,0.0,0.0,0.0,0.0,0.0,0.0,0.0,0.0,0.0,0.0,0.0,0.0,0.0,0.0,0.0,0.0,0.0,0.0,0.0,0.0,0.0,0.0,0.0,-1.3683,-1.8814,-2.1197,-2.1984,-2.1062,0.0,0.0,0.0,0.0,0.0,0.0,-2.2893,-2.3238,-2.5031,-2.863,-2.8273,-2.8878,-3.0704,-3.0746,-3.0815,-3.0912,-3.1551,-3.2184,-3.2701,-3.2197,-3.1999,-3.2094,-3.1754,-3.1576,-3.1772,-3.3759,-3.4394,-3.3895,-3.2494,-3.1233,-3.028,-2.9653,-2.9274,-2.9154,-2.9593,-3.0178,-3.0425,-2.8168,-2.5638,-2.3032,-2.0646,0.0,0.0,0.0,0.0,-1.7755,-1.7913,-1.8794,-1.9672,-1.9803,-2.0618,-2.1126,-2.0274,-1.9441,-1.8148,-1.5778,-1.2296,-0.9127,-0.7085,-0.4652,0.0,-0.1215,0.1089,0.3118,0.4295,0.6135,0.7756,0.881,0.9139,0.9486,0.997,0.918,0.7823,0.5804,0.158,-0.2816,-0.7233,-1.2285,-1.6514,-1.9773,0.0,0.0,0.0,0.0,0.0,0.0,0.0,0.0,0.0,0.0,0.0,0.0,0.0,0.0,0.0,0.0,0.0,0.0,0.0,0.0,0.0,0.0,0.0,0.0,0.0,0.0,0.0,0.0,0.0,-2.6594,-2.8161,0.0,0.0,0.0,0.0,-2.1781,-2.2445,-2.4006,-2.6618,-2.6045,-2.6914,-2.9624,-2.9014,-2.8944,-2.9661,-2.9211,-2.8864,-2.8633,-2.8186,-2.825,-2.8821,-2.8753,-2.9002,-2.9552,-3.0003,-3.0191,-3.0333,-3.1635,-3.1781,-3.1087,-3.0162,-2.903,-2.8008,-2.825,-2.8063,-2.7857,-2.901,-2.912,-2.8714,-2.8362,-2.5554,-2.2039,-2.0764,-1.9225,0.0,0.0,-1.8606,-1.8491,-1.8276,-1.7945,-1.779,-1.8339,-1.7867,-1.7261,-1.7069,-1.6234,-1.567,-1.6118,-1.4091,-1.1503,-0.8906,0.0,-0.3868,-0.2167,0.0113,0.2216,0.3717,0.4882,0.5935,0.6939,0.7236,0.7556,0.8087,0.7729,0.6007,0.2568,0.0135,-0.406,-1.0492,-1.415,-1.7687,-2.123,-2.3101,0.0,0.0,0.0,0.0,0.0,0.0,0.0,0.0,0.0,0.0,0.0,0.0,0.0,0.0,0.0,0.0,0.0,0.0,0.0,0.0,0.0,0.0,0.0,0.0,0.0,0.0,0.0,0.0,-2.4946,-2.7678,0.0,-2.5871,-2.4269,-2.3248,-2.2788,-2.353,-2.434,-2.5101,-2.509,-2.5628,-2.6776,-2.6306,-2.6249,-2.6723,-2.6137,-2.5836,-2.5852,-2.5109,-2.4874,-2.5077,-2.4767,-2.4938,-2.5461,-2.6417,-2.6684,-2.6647,-2.7853,-2.9244,-3.0527,-2.9979,-2.9525,-2.9018,-2.8096,-2.7857,-2.7917,-2.6829,-2.6418,-2.6107,-2.4287,-2.2471,-2.0854,-1.9716,-1.8753,-1.7989,-1.8072,-1.7554,-1.6809,-1.6192,-1.5935,-1.5677,-1.5029,-1.479,-1.4586,-1.4273,-1.3626,-1.2972,-1.2599,-1.1717,-1.0434,-0.8669,-0.6452,-0.4429,-0.2805,-0.0444,0.1465,0.2435,0.3927,0.5042,0.5446,0.5707,0.6003,0.6361,0.5231,0.3595,0.1468,-0.3062,-0.7528,-1.1719,-1.6422,-2.0032,-2.2371,-2.3218,-2.3834,0.0,0.0,0.0,0.0,0.0,0.0,0.0,0.0,0.0,0.0,0.0,0.0,0.0,0.0,0.0,0.0,0.0,0.0,0.0,0.0,0.0,0.0,0.0,0.0,0.0,-1.9858,-2.3849,-2.3753,-2.6757,-2.7863,-2.528,-2.4763,-2.4213,-2.3508,-2.4139,-2.447,-2.4392,-2.4526,-2.4692,-2.4846,-2.4051,-2.3852,-2.4134,-2.3176,-2.2798,-2.3003,-2.2221,-2.1788,-2.1673,-2.1284,-2.134,-2.1788,-2.2837,-2.3182,-2.3035,-2.4213,-2.5667,-2.7152,-2.761,-2.7713,-2.743,-2.5975,-2.5826,-2.6063,-2.4117,-2.3475,-2.316,-2.0818,-1.9687,-1.9048,-1.8065,-1.7308,-1.6725,-1.6473,-1.566,-1.4713,-1.4025,-1.3723,-1.3443,-1.2675,-1.2552,-1.2467,-1.1915,-1.1349,-1.0701,-0.962,-0.966,-0.9382,-0.7937,-0.626,-0.4589,-0.2989,-0.103,0.0608,0.1482,0.2859,0.3842,0.4136,0.4209,0.4284,0.4477,0.2901,0.1043,-0.0993,-0.5642,-0.9917,-1.3492,-1.7792,-2.0926,-2.2699,-2.3,-2.3232,-2.3393,0.0,0.0,0.0,0.0,0.0,0.0,0.0,0.0,0.0,0.0,0.0,0.0,0.0,0.0,0.0,0.0,0.0,0.0,0.0,0.0,0.0,0.0,0.0,-1.7324,-2.095,-2.3527,-2.3625,-2.6034,-2.6948,-2.496,-2.5079,-2.4927,-2.4119,-2.4287,-2.4456,-2.4647,-2.4434,-2.4215,-2.3863,-2.2595,-2.1977,-2.2121,-2.0498,-1.9811,-2.0074,-1.936,-1.8822,-1.844,-1.8216,-1.8287,-1.8516,-1.9499,-1.9726,-1.9632,-2.1039,-2.1196,-2.0801,-2.2821,-2.3349,-2.2823,-2.1918,-2.1777,-2.1891,-2.0924,-2.0449,-1.9867,-1.8326,-1.74,-1.673,-1.5916,-1.5007,-1.4179,-1.3752,-1.3102,-1.2379,-1.1971,-1.149,-1.1243,-1.1555,-1.1241,-1.0699,-0.9919,-0.9432,-0.881,-0.77,-0.8329,-0.8574,-0.6869,-0.5751,-0.4488,-0.2662,-0.152,0.0,0.0996,0.1648,0.2246,0.2968,0.2673,0.2424,0.2437,0.0845,-0.1561,-0.4941,-0.7454,-1.1012,-1.5875,-1.8156,-2.0223,-2.2141,-2.254,-2.2544,-2.2143,0.0,0.0,0.0,0.0,0.0,0.0,0.0,0.0,0.0,0.0,0.0,0.0,0.0,0.0,0.0,0.0,0.0,0.0,0.0,0.0,0.0,-1.5496,-1.6806,-1.8423,-2.1151,-2.2979,-2.2746,-2.4594,-2.5367,-2.3969,-2.323,-2.2589,-2.192,-2.1183,-2.0512,-1.9906,-2.0077,-1.9919,-1.9369,-1.8929,-1.8586,-1.8248,-1.7305,-1.6788,-1.6729,-1.5678,-1.5088,-1.4979,-1.5088,-1.5449,-1.6151,-1.7133,-1.7531,-1.759,-1.8728,-1.8566,-1.7929,-2.118,-2.2151,-2.1698,-2.0828,-1.9603,-1.8235,-1.7378,-1.6749,-1.6108,-1.5074,-1.4543,-1.4119,-1.363,-1.3193,-1.2817,-1.2601,-1.2163,-1.1766,-1.1665,-1.0677,-0.9769,-0.9866,-0.9173,-0.8396,-0.8158,-0.78,-0.7433,-0.7117,-0.6781,-0.647,-0.6086,-0.516,-0.4075,-0.2683,-0.1313,-0.0282,0.0263,0.1061,0.1608,0.1782,0.1269,0.0839,0.0694,-0.146,-0.3799,-0.6036,-0.9645,-1.2812,-1.5396,-1.8173,-2.0295,-2.1688,-2.1511,-2.1212,0.0,0.0,0.0,0.0,0.0,0.0,0.0,0.0,0.0,0.0,0.0,0.0,0.0,0.0,0.0,0.0,0.0,0.0,0.0,0.0,0.0,0.0,-1.6843,-1.7578,-1.8584,-2.0201,-2.1132,-2.0736,-2.1575,-2.1919,-2.0955,-2.0325,-1.9769,-1.9461,-1.8915,-1.8382,-1.7792,-1.7785,-1.7464,-1.6953,-1.6,-1.5586,-1.5597,-1.4533,-1.397,-1.387,-1.315,-1.266,-1.2382,-1.2728,-1.3157,-1.3743,-1.4791,-1.5241,-1.5239,-1.6241,-1.5991,-1.5294,0.0,0.0,0.0,0.0,-1.6815,-1.5279,-1.4972,-1.4436,-1.372,-1.2913,-1.2373,-1.1914,-1.1395,-1.0872,-1.0505,-1.0394,-1.0104,-0.9848,-0.9848,-0.9136,-0.8495,-0.8389,-0.7828,-0.7227,-0.6918,-0.6477,-0.6095,-0.5835,-0.5324,0.0,-0.4692,-0.4348,-0.3653,-0.2438,-0.1327,-0.0542,-0.0212,0.0475,0.0894,0.0813,0.0034,-0.0713,-0.1244,-0.3689,0.0,0.0,0.0,-1.3914,-1.6081,-1.8314,0.0,0.0,0.0,-1.9832,-1.9551,-1.9854,0.0,0.0,-2.181,-2.2602,0.0,0.0,0.0,0.0,0.0,0.0,0.0,0.0,0.0,0.0,0.0,0.0,0.0,0.0,0.0,0.0,-1.7712,-1.8018,-1.7712,-1.7948,-1.8071,-1.8053,-1.8073,-1.7822,-1.7154,-1.694,-1.6895,-1.6919,-1.7009,-1.6998,-1.6868,-1.6323,0.0,0.0,0.0,-1.2941,-1.3568,-1.2137,-1.1423,-1.1492,-1.1317,-1.0955,-1.0454,-1.0968,-1.1246,-1.1413,-1.2451,-1.2743,-1.2669,-1.3566,-1.3443,-1.2907,-1.5219,-1.5862,-1.545,-1.4716,-1.3774,-1.293,-1.3093,0.0,0.0,-1.1368,-1.0612,-0.9916,-0.9374,-0.8569,-0.7941,-0.7885,-0.7646,-0.7399,-0.7399,-0.7399,-0.7292,-0.7138,-0.6886,-0.654,-0.5835,-0.5331,-0.4857,-0.4364,-0.4017,-0.3693,-0.3209,-0.3416,-0.3261,-0.2101,-0.1437,-0.092,-0.0504,-0.0039,0.0215,0.0068,-0.0938,0.0,-0.3039,-0.5393,-0.7583,-0.9435,-1.1886,-1.4475,-1.7139,-1.82,-1.8838,-1.8972,-1.8522,-1.8321,-1.8285,-1.8508,-1.8584,-1.8537,-2.0839,-2.2497,0.0,0.0,0.0,0.0,0.0,0.0,0.0,0.0,0.0,0.0,0.0,0.0,0.0,0.0,0.0,-1.4466,-1.4139,-1.3849,-1.3796,-1.356,-1.421,-1.6514,-1.7282,-1.7217,-1.6212,-1.5306,-1.4813,-1.4913,-1.3567,-1.273,-1.2807,-1.2618,-1.2293,-1.201,-1.1575,-1.1212,-1.0923,-1.0252,-0.9839,-0.973,-0.9319,0.0,-0.8924,-0.9052,-0.9226,-0.9472,-0.9574,-0.9722,-0.9999,-1.0624,-1.0751,-1.0822,-1.3203,-1.4053,-1.3835,-1.2782,-1.1747,-1.0753,-1.0059,-0.9616,-0.9221,-0.893,-0.8673,-0.8389,-0.8,-0.7655,0.0,-0.7312,-0.7131,-0.6938,-0.6938,-0.6582,-0.6119,-0.5749,-0.5419,-0.5015,-0.4474,-0.4287,-0.4158,-0.405,-0.3747,-0.3452,-0.3227,-0.3197,-0.2966,-0.2344,-0.1443,-0.0836,-0.0798,-0.034,-0.0073,-0.0216,-0.1101,-0.2083,-0.3097,-0.4653,-0.6621,-0.9217,-1.2403,-1.4821,-1.6204,-1.6526,-1.6935,-1.7518,-1.6907,-1.6712,-1.6985,-1.6904,-1.6739,-1.6524,-1.8715,-1.9842,0.0,0.0,0.0,0.0,0.0,0.0,0.0,0.0,0.0,0.0,0.0,-1.3969,-1.418,0.0,-1.2927,-1.3176,-1.294,-1.2689,-1.2475,-1.2242,-1.2552,-1.3994,-1.4203,-1.3997,-1.355,-1.2876,-1.255,-1.2971,-1.1928,-1.1376,-1.1415,-1.0701,-1.0147,-0.9842,-0.9058,-0.8467,-0.8219,-0.7803,-0.7543,-0.7575,-0.7099,-0.7042,-0.7386,-0.7507,-0.7761,-0.8052,-0.8468,-0.8679,-0.8849,-0.9157,-0.9348,-0.9615,-1.0648,-1.1118,-1.12,-1.0608,-0.9942,-0.9169,-0.8687,-0.8259,-0.7818,-0.7419,-0.7226,-0.7025,-0.6536,-0.6354,-0.6244,-0.5873,-0.5715,-0.5611,-0.5305,-0.5031,-0.4731,-0.4528,-0.4333,-0.4082,-0.3869,-0.3658,-0.35,-0.35,-0.3187,-0.2746,-0.2332,-0.2505,-0.2525,-0.2003,-0.122,-0.0725,-0.0747,-0.0478,-0.042,-0.0701,-0.1431,-0.2436,-0.3792,-0.6212,-0.8401,-1.0197,-1.2712,-1.4433,-1.5115,-1.5327,-1.556,-1.5879,-1.556,-1.5484,-1.564,-1.5599,-1.551,-1.5417,-1.6441,-1.7276,0.0,0.0,0.0,0.0,0.0,0.0,0.0,-1.6684,-1.6381,-1.6144,-1.4933,-1.3848,-1.3913,-1.2838,-1.1985,-1.192,-1.1848,-1.1594,-1.122,-1.1106,-1.0949,-1.0905,-1.0865,-1.0963,-1.1235,-1.0528,-1.0367,-1.1027,-1.0502,-1.01,-1.0186,-0.9096,-0.8342,-0.8071,-0.6773,-0.6086,-0.6086,-0.5671,-0.5551,-0.5775,-0.5165,-0.5234,-0.5726,-0.6047,-0.6288,-0.6584,-0.7372,-0.7702,-0.7767,-0.7767,-0.7957,-0.8146,-0.7892,-0.7957,-0.8195,-0.8435,-0.8131,-0.7581,-0.7475,-0.7105,-0.6578,-0.6086,-0.5819,-0.5605,-0.5124,-0.4908,-0.4816,-0.4386,-0.4271,-0.4161,-0.3761,-0.3676,-0.3624,-0.3526,-0.3494,-0.3418,-0.3341,-0.2943,-0.2644,-0.2613,-0.2311,-0.1842,-0.1209,-0.1481,-0.1693,-0.1383,-0.1035,-0.0716,-0.0597,-0.0626,-0.0832,-0.1284,-0.1866,-0.293,-0.4666,-0.7873,-1.0105,-1.0853,-1.2242,-1.3254,-1.3601,-1.3971,-1.4215,-1.4318,-1.4226,-1.4283,-1.4422,-1.4168,-1.4122,-1.4283,-1.4146,-1.4913,-1.6624,-1.659,-1.6656,-1.7351,-1.7626,-1.7841,0.0,-1.6844,-1.5388,-1.4806,-1.3806,-1.2848,-1.2494,-1.1525,-1.0462,-0.9402,-0.881,-0.8219,-0.7195,-0.7375,-0.734,-0.6832,-0.9012,-1.071,-1.0993,-0.9261,-0.8317,-0.8869,-0.7442,-0.6519,-0.6605,-0.6303,-0.6076,-0.5931,-0.5777,-0.5699,-0.5699,-0.5121,-0.4825,-0.4872,-0.4252,-0.3999,-0.4092,-0.4092,-0.4104,-0.414,-0.4544,-0.4945,-0.5209,-0.5209,-0.5206,-0.5272,-0.5206,-0.5206,-0.5436,-0.6529,-0.6274,-0.532,-0.5005,-0.4653,-0.4349,-0.4294,-0.407,-0.3901,-0.3793,-0.3566,-0.3374,-0.3473,-0.3419,-0.336,-0.3477,-0.3538,-0.3396,-0.3016,-0.2847,-0.2686,-0.2359,-0.1741,-0.1331,-0.1318,-0.0939,-0.0596,-0.051,-0.0155,0.0,-0.0384,-0.0973,-0.1208,-0.0666,-0.0955,-0.1385,-0.1767,-0.2345,-0.3486,-0.5312,-0.7469,-0.8876,-0.9304,-1.0258,-1.091,-1.119,-1.1805,-1.2385,-1.3004,-1.2579,-1.2725,-1.3358,-1.2288,-1.1855,-1.1953,-1.195,-1.2779,-1.6076,-1.5612,-1.517,-1.5353,-1.5371,-1.5326,-1.5046,-1.4293,-1.368,-1.3827,-1.2068,-1.0589,-1.0527,-0.9015,-0.7478,-0.7018,-0.6719,-0.6429,-0.6022,-0.6025,-0.5935,-0.5696,-0.6516,-0.7193,-0.7458,-0.6796,-0.6525,-0.6927,-0.6051,-0.561,-0.5951,-0.5493,-0.5206,-0.5087,-0.4771,-0.4382,-0.4151,-0.3876,-0.38,-0.376,-0.3212,-0.3197,-0.3612,-0.3406,-0.345,-0.3678,-0.388,-0.4148,-0.4486,-0.4486,-0.4616,-0.4815,-0.4616,-0.4438,-0.4431,-0.5293,-0.5068,-0.438,-0.4265,-0.3915,-0.3458,-0.3458,-0.34,-0.3287,-0.3287,-0.3187,-0.306,-0.2803,-0.2704,-0.2558,-0.232,-0.2294,-0.2251,-0.2022,-0.2036,-0.192,-0.1483,-0.1256,-0.1019,-0.0722,-0.0495,-0.0216,0.0161,0.0157,0.0204,0.0742,0.0,-0.0605,-0.059,-0.097,-0.149,-0.2187,-0.3188,-0.4151,-0.5015,-0.6912,-0.8105,-0.8198,-0.9306,-1.0089,-1.0442,-1.0956,-1.1358,-1.1648,-1.1425,-1.1525,-1.1895,-1.1408,-1.1266,-1.1366,-1.1384,-1.1554,-1.3649,-1.3227,-1.2814,-1.278,-1.2835,-1.2745,-1.1919,-1.1417,-1.119,-1.1379,-0.9499,-0.7858,-0.8017,-0.6597,-0.5356,-0.5029,-0.5024,-0.5024,-0.4724,-0.4769,-0.4718,-0.4594,-0.4149,-0.3966,-0.4012,-0.4548,-0.4937,-0.5129,-0.4755,-0.4751,-0.5035,-0.454,-0.4199,-0.4077,-0.3684,-0.3294,-0.2904,-0.2826,-0.2774,-0.2745,-0.2214,-0.2298,-0.2881,-0.2565,-0.2679,-0.3147,-0.3147,-0.3349,-0.3754,-0.3754,-0.3887,-0.4084,-0.382,-0.3624,-0.3542,-0.3911,-0.3855,-0.3568,-0.3537,-0.3191,-0.2732,-0.2732,-0.2676,-0.2617,-0.2593,-0.2539,-0.2415,-0.2059,-0.1942,-0.1837,-0.1493,-0.1389,-0.1389,-0.1389,-0.1329,-0.1231,-0.0886,-0.0658,-0.0418,-0.0055,0.0108,0.0428,0.0879,0.0693,0.067,0.1366,0.0818,0.0136,-0.0388,-0.1125,-0.1875,-0.248,-0.3738,-0.4564,-0.4707,-0.6181,-0.7134,-0.7199,-0.8091,-0.8919,-0.9494,-0.998,-1.0311,-1.0509,-1.0568,-1.0618,-1.0712,-1.0568,-1.0458,-1.0407,-1.0525,-1.0269,-0.8653,-0.8958,-0.9411,-1.0104,-1.0609,-1.0765,-1.0332,-0.8925,-0.7524,-0.6902,-0.5863,-0.4982,-0.479,-0.4914,-0.4724,-0.3435,-0.3725,-0.3725,-0.2622,-0.2925,-0.3104,-0.2554,-0.2155,-0.1846,-0.1621,-0.2892,-0.3714,-0.3741,-0.3271,-0.29,-0.2782,-0.2773,-0.2717,-0.2592,-0.2511,-0.2511,-0.2511,-0.2117,-0.1958,-0.1955,-0.1453,-0.1269,-0.1234,-0.1171,-0.1344,-0.1681,-0.1681,-0.1883,-0.2288,-0.2288,-0.2288,-0.2288,-0.2288,-0.2248,-0.22,-0.2264,-0.2418,-0.2514,-0.2326,-0.2074,-0.1846,-0.1846,-0.1624,-0.1338,-0.1348,-0.1172,-0.0996,-0.1121,-0.1144,-0.118,-0.1359,-0.1389,-0.1389,-0.1389,-0.0941,-0.0544,-0.0614,0.0191,0.0928,0.0947,0.1333,0.1654,0.1655,0.1916,0.191,0.1224,0.1158,0.088,0.009,-0.156,-0.2677,-0.2674,-0.3818,-0.4652,-0.4792,-0.5275,-0.5717,-0.6123,-0.6191,-0.6701,-0.7728,-0.8387,-0.912,-0.9806,-0.9961,-1.0012,-1.0012,-0.9517,-0.9001,-0.8474,-0.8725,-0.856,-0.6767,-0.6867,-0.661,-0.655,-0.6807,-0.6843,-0.6308,-0.5732,-0.525,-0.5202,-0.4264,-0.3359,-0.3483,-0.2932,-0.2393,-0.2182,-0.1499,-0.1309,-0.1817,-0.0806,-0.0301,-0.1,-0.05,-0.0099,0.0097,-0.0659,-0.1384,-0.1844,-0.1358,-0.1067,-0.1228,-0.1297,-0.1269,-0.1149,-0.1131,-0.1043,-0.0802,-0.0711,-0.0466,-0.0153,-0.0073,0.0,0.0,0.0,-0.0067,-0.0202,-0.0202,-0.0403,-0.0739,-0.0739,-0.0873,-0.1074,-0.0806,-0.0726,-0.0774,-0.0716,-0.0625,-0.0708,-0.1524,-0.1581,-0.1251,-0.1225,-0.1142,-0.1004,-0.07,-0.0566,-0.0394,-0.024,-0.014,-0.0137,-0.018,-0.0224,-0.0224,-0.0224,-0.0045,0.0181,0.0425,0.0761,0.1112,0.1579,0.1886,0.2075,0.2183,0.2411,0.2208,0.1317,0.0702,0.0191,-0.0271,-0.1075,-0.1834,-0.237,-0.3252,-0.3913,-0.4188,-0.4923,-0.5295,-0.5105,-0.555,-0.6054,-0.6575,-0.7024,-0.743,-0.7694,-0.7919,-0.8078,-0.8059,-0.7972,-0.7824,-0.7664,-0.7871,-0.7765,-0.4228,-0.4186,-0.3665,-0.3581,-0.3472,-0.3155,-0.2362,-0.1892,-0.1714,-0.1654,-0.1112,-0.0793,-0.1406,-0.0993,-0.0589,-0.0687,-0.0198,0.01,-0.0403,0.0501,0.1,0.0101,0.0706,0.1104,0.0892,0.1058,0.0756,-0.0285,0.0092,0.018,0.0,-0.0088,-0.0085,-0.0082,-0.0081,0.0,0.0235,0.0235,0.0465,0.0907,0.087,0.0923,0.1064,0.1046,0.1032,0.0954,0.0818,0.061,0.0403,0.0269,0.0067,-0.0134,0.0066,0.013,0.0127,0.019,0.0369,0.0414,-0.0615,-0.0673,-0.0356,-0.0402,-0.0392,-0.0273,0.0,0.0099,0.019,0.0514,0.0639,0.0671,0.0671,0.0582,0.0537,0.0626,0.0671,0.0811,0.1158,0.1306,0.1564,0.2048,0.221,0.2314,0.2537,0.2652,0.2373,0.1473,0.076,0.0146,-0.0416,-0.0836,-0.1302,-0.1877,-0.2495,-0.3055,-0.3514,-0.4133,-0.4462,-0.4364,-0.4843,-0.5321,-0.5727,-0.6031,-0.6348,-0.6583,-0.681,-0.6966,-0.7009,-0.7122,-0.7069,-0.6912,-0.7069,-0.7015,-0.0805,-0.0725,-0.0542,-0.1032,-0.0466,0.0458,0.1285,0.2109,0.2892,0.3506,0.3303,0.27,0.1504,0.0991,0.0783,0.088,0.0491,0.0495,0.1506,0.119,0.0889,0.0905,0.1613,0.1815,0.1008,0.2283,0.2632,0.1245,0.1032,0.101,0.1081,0.097,0.0931,0.0791,0.0805,0.0787,0.0587,0.069,0.1006,0.1434,0.1324,0.1601,0.2113,0.211,0.2008,0.1887,0.1537,0.1308,0.121,0.0805,0.0604,0.0602,0.0519,0.0505,0.0554,0.0494,0.0664,0.082,0.041,0.0518,0.0894,0.0541,0.0642,0.0843,0.0784,0.0763,0.0802,0.109,0.1167,0.1167,0.1165,0.0986,0.0853,0.1122,0.1258,0.1393,0.1573,0.1889,0.2163,0.2372,0.2411,0.2524,0.2703,0.2685,0.2464,0.1733,0.1355,0.0781,-0.0339,-0.0839,-0.1144,-0.1295,-0.1676,-0.2179,-0.2805,-0.2942,-0.3268,-0.3769,-0.395,-0.4391,-0.5157,-0.5382,-0.5777,-0.6475,-0.6534,-0.6588,-0.6799,-0.6799,-0.6583,-0.6154,-0.6426,-0.6268,0.3296,0.3566,0.4015,0.369,0.3871,0.404,0.3588,0.3816,0.3967,0.3649,0.339,0.2966,0.2541,0.2311,0.2143,0.1919,0.2778,0.3151,0.2318,0.3107,0.3404,0.2415,0.3024,0.3428,0.3226,0.3914,0.4193,0.3874,0.337,0.3109,0.3094,0.3402,0.3471,0.3219,0.3178,0.311,0.3005,0.2857,0.2889,0.302,0.2943,0.3011,0.3289,0.3227,0.3085,0.3011,0.287,0.2758,0.2618,0.2428,0.2215,0.2079,0.1955,0.1775,0.1552,0.1834,0.1845,0.1877,0.2037,0.1719,0.1196,0.1101,0.1127,0.1205,0.152,0.1542,0.1564,0.1924,0.2013,0.1953,0.1853,0.1877,0.1919,0.1966,0.2013,0.2059,0.2106,0.2201,0.2288,0.2452,0.2759,0.3036,0.3044,0.2866,0.2424,0.1688,0.1244,0.0648,-0.0151,-0.0451,-0.0703,-0.1094,-0.1253,-0.1536,-0.2045,-0.2135,-0.2172,-0.2337,-0.2877,-0.3323,-0.3649,-0.4369,-0.4839,-0.5007,-0.5226,-0.5336,-0.5289,-0.5336,-0.5332,-0.5226,-0.5395,-0.5399,0.5894,0.6379,0.6856,0.659,0.7047,0.7319,0.6418,0.6468,0.6438,0.5487,0.5092,0.4637,0.4045,0.381,0.3702,0.3564,0.3982,0.4286,0.3974,0.4422,0.4489,0.3723,0.4029,0.432,0.4283,0.4612,0.4802,0.4626,0.4336,0.4189,0.4188,0.4225,0.4232,0.4053,0.4032,0.3985,0.3901,0.3677,0.3776,0.4053,0.3911,0.3993,0.4361,0.4211,0.4085,0.3985,0.3729,0.3584,0.3418,0.3128,0.2898,0.2759,0.2642,0.2448,0.2292,0.2482,0.2522,0.2583,0.2841,0.2592,0.2192,0.1925,0.1944,0.2064,0.2256,0.2321,0.234,0.2631,0.2682,0.2668,0.2611,0.2594,0.2585,0.2679,0.2599,0.2519,0.2569,0.2616,0.2659,0.2785,0.3071,0.3265,0.3112,0.3171,0.2911,0.2038,0.1682,0.116,0.0372,0.0,-0.0368,-0.0672,-0.0681,-0.0886,-0.1354,-0.145,-0.1589,-0.1803,-0.2225,-0.2543,-0.2597,-0.3495,-0.3989,-0.3956,-0.4457,-0.4739,-0.4691,-0.4794,-0.4846,-0.4897,-0.4956,-0.5069,0.8112,0.8625,0.9055,0.8613,0.9451,1.0093,0.9072,0.9059,0.893,0.7698,0.7237,0.6615,0.5595,0.5308,0.5262,0.547,0.4879,0.4774,0.5884,0.5336,0.4858,0.4926,0.4924,0.4885,0.4803,0.4858,0.4933,0.4771,0.475,0.4742,0.4647,0.4405,0.4263,0.4065,0.4123,0.4112,0.4025,0.3854,0.4079,0.4661,0.4466,0.4714,0.5156,0.4936,0.4842,0.4645,0.4174,0.3925,0.3816,0.3307,0.3071,0.3054,0.287,0.2799,0.2791,0.2774,0.2857,0.3006,0.3154,0.3291,0.3372,0.2893,0.2881,0.3061,0.2973,0.2936,0.2973,0.3171,0.3229,0.324,0.3221,0.3084,0.3046,0.3192,0.3017,0.2851,0.2997,0.3024,0.3035,0.3197,0.3305,0.3314,0.3107,0.3508,0.3498,0.2511,0.2362,0.2015,0.1177,0.0449,0.0,-0.0161,-0.0165,-0.0277,-0.0747,-0.0852,-0.1103,-0.1523,-0.1775,-0.1862,-0.1926,-0.2802,-0.3289,-0.3345,-0.4015,-0.4463,-0.4688,-0.4688,-0.4684,-0.4732,-0.4732,-0.4791,1.2266,1.2203,1.2203,1.1946,1.1849,1.146,0.9871,0.949,0.9041,0.7523,0.7031,0.6742,0.656,0.6317,0.6328,0.6725,0.6439,0.639,0.7132,0.6277,0.5613,0.5749,0.5565,0.541,0.5391,0.5711,0.5844,0.5805,0.5712,0.5473,0.5011,0.5245,0.5284,0.4955,0.4875,0.4784,0.467,0.4608,0.4683,0.4743,0.4925,0.498,0.5042,0.5202,0.5064,0.4718,0.4596,0.4406,0.4215,0.3867,0.3599,0.3395,0.3127,0.2934,0.2765,0.2972,0.3063,0.3106,0.3408,0.3514,0.3553,0.3442,0.3377,0.3342,0.3324,0.3249,0.3168,0.3168,0.3343,0.3505,0.3246,0.3346,0.3478,0.3371,0.3302,0.3289,0.3341,0.3136,0.3082,0.3299,0.3388,0.3441,0.355,0.3779,0.3692,0.2908,0.2887,0.2683,0.2065,0.1007,0.0224,0.0,0.0168,0.0166,-0.0107,-0.0053,-0.0106,-0.0317,-0.0899,-0.129,-0.1438,-0.2225,-0.2956,-0.3514,-0.3683,-0.4018,-0.4519,-0.4519,-0.4294,-0.3849,-0.3962,-0.3738,1.3698,1.3873,1.4048,1.3704,1.3662,1.3411,1.1974,1.1055,1.0061,0.8723,0.7793,0.7149,0.7149,0.6929,0.6853,0.7108,0.7018,0.7009,0.7149,0.6788,0.6374,0.6253,0.6093,0.5914,0.58,0.608,0.6105,0.5918,0.5901,0.581,0.5535,0.5497,0.5464,0.5287,0.5187,0.5171,0.5176,0.5189,0.5266,0.5326,0.5337,0.5375,0.5413,0.5301,0.5143,0.4931,0.4807,0.4619,0.4411,0.4162,0.3939,0.3671,0.3447,0.3302,0.3193,0.3302,0.3374,0.3387,0.3613,0.3704,0.3713,0.3782,0.3607,0.34,0.3509,0.3467,0.343,0.3597,0.3717,0.3806,0.3635,0.3717,0.3767,0.371,0.3658,0.3609,0.3609,0.3412,0.3274,0.345,0.3524,0.3503,0.3532,0.3853,0.3923,0.3464,0.3387,0.3161,0.2615,0.1989,0.1342,0.0727,0.0784,0.0668,0.0164,0.0164,0.0164,0.0,-0.0328,-0.055,-0.0615,-0.1341,-0.1953,-0.2287,-0.279,-0.3181,-0.3456,-0.3514,-0.3403,-0.3125,-0.3181,-0.3128,1.4636,1.4901,1.5249,1.4817,1.4916,1.4737,1.3516,1.2404,1.1231,0.9761,0.8578,0.7775,0.7546,0.7471,0.7463,0.7247,0.7442,0.7541,0.7193,0.7077,0.7001,0.669,0.645,0.6344,0.6108,0.6149,0.6064,0.5757,0.5814,0.5932,0.5793,0.5609,0.543,0.5375,0.5345,0.5448,0.5553,0.5611,0.5689,0.5787,0.5686,0.5689,0.5775,0.5501,0.5324,0.5212,0.4974,0.4788,0.4607,0.4382,0.4145,0.3975,0.376,0.366,0.3638,0.3638,0.3687,0.3723,0.3819,0.3842,0.3874,0.3954,0.3746,0.3506,0.3614,0.3667,0.3688,0.3893,0.3999,0.4024,0.4024,0.4024,0.4024,0.4024,0.3941,0.3862,0.3862,0.3673,0.3547,0.3685,0.3739,0.3692,0.3661,0.3971,0.4207,0.3984,0.3815,0.3618,0.3278,0.3111,0.2713,0.1898,0.1564,0.1063,0.028,0.0224,0.0168,0.0,0.0,0.0,-0.0056,-0.0616,-0.1006,-0.1118,-0.1843,-0.2287,-0.2456,-0.2567,-0.2569,-0.24,-0.2458,-0.2402,1.6229,1.6072,1.5914,1.5658,1.5173,1.4365,1.3046,1.2508,1.1629,0.9455,0.8994,0.8765,0.7858,0.8268,0.8479,0.7839,0.8208,0.843,0.8211,0.7542,0.7135,0.7325,0.6807,0.6344,0.6108,0.5996,0.588,0.5744,0.5916,0.5911,0.5431,0.5558,0.5598,0.5286,0.5491,0.5565,0.5578,0.5565,0.5643,0.5655,0.5792,0.5796,0.5649,0.5865,0.5638,0.5219,0.5212,0.5077,0.4752,0.4604,0.4412,0.4172,0.403,0.3903,0.3796,0.3796,0.3846,0.395,0.3962,0.3959,0.3984,0.3871,0.3776,0.3764,0.3764,0.3767,0.3767,0.3831,0.3983,0.4138,0.4024,0.4079,0.4138,0.4024,0.4012,0.4003,0.4003,0.3886,0.3822,0.4072,0.4104,0.4105,0.4382,0.4436,0.4457,0.4443,0.4287,0.4204,0.4316,0.4177,0.3886,0.3448,0.2402,0.1343,0.028,0.0336,0.028,0.0,0.0,-0.0056,-0.0168,-0.0224,-0.0616,-0.1285,-0.1341,-0.1675,-0.2232,-0.2399,-0.2122,-0.1453,-0.1621,-0.1342,1.8413,1.8175,1.7804,1.6762,1.6049,1.5321,1.4166,1.3291,1.2457,1.1416,1.067,1.012,0.9768,0.9972,0.9975,0.9388,0.9775,0.9984,0.9341,0.8634,0.8414,0.9203,0.845,0.774,0.7541,0.7292,0.6841,0.6011,0.6697,0.6786,0.5999,0.5913,0.5785,0.5598,0.5752,0.5789,0.5789,0.5948,0.6028,0.6028,0.6103,0.6103,0.6022,0.6026,0.5872,0.5578,0.5507,0.5294,0.4948,0.4813,0.4609,0.4287,0.416,0.4029,0.391,0.391,0.4024,0.4135,0.4135,0.419,0.4288,0.4229,0.4209,0.4193,0.4006,0.398,0.3996,0.4186,0.4306,0.4356,0.4298,0.4353,0.4356,0.4298,0.4298,0.4298,0.4298,0.4186,0.4049,0.4164,0.4181,0.4214,0.4324,0.4406,0.4519,0.4519,0.4412,0.4331,0.4212,0.4226,0.381,0.2837,0.2509,0.2012,0.1119,0.0784,0.0449,0.0112,0.0112,0.0056,-0.0056,-0.0056,-0.0224,-0.0504,-0.0616,-0.0784,-0.1007,-0.0838,-0.0783,-0.0728,-0.0504,-0.0392,1.9698,1.9461,1.9024,1.7705,1.6857,1.6057,1.5068,1.4146,1.336,1.2765,1.2174,1.1598,1.1237,1.1473,1.1442,1.075,1.1071,1.1179,1.0269,0.9759,0.9653,1.0444,0.9618,0.8832,0.8523,0.8296,0.7804,0.7058,0.783,0.785,0.6843,0.6733,0.642,0.5916,0.6015,0.6022,0.6022,0.618,0.6338,0.6338,0.6338,0.6338,0.6257,0.6146,0.6013,0.5861,0.5715,0.5497,0.5212,0.5137,0.4861,0.4528,0.4398,0.4259,0.4132,0.4095,0.4135,0.4301,0.4301,0.4356,0.4519,0.4519,0.4519,0.4443,0.4287,0.4201,0.4277,0.4433,0.4519,0.4519,0.4519,0.4519,0.4519,0.4519,0.4519,0.4519,0.4519,0.4382,0.4311,0.4311,0.4311,0.4244,0.4204,0.4331,0.4385,0.4338,0.4294,0.4222,0.4104,0.409,0.374,0.2711,0.262,0.2321,0.1398,0.0952,0.0561,0.028,0.028,0.0224,0.0056,0.0056,0.0056,0.0,0.0056,0.0112,0.0112,0.056,0.056,0.028,0.0392,0.0224,1.9698,1.9461,1.9147,1.8402,1.7299,1.6147,1.5333,1.4915,1.4309,1.2921,1.3045,1.3057,1.1866,1.2467,1.2751,1.1461,1.1732,1.1844,1.1174,1.0573,1.0435,1.0916,0.9915,0.9041,0.8855,0.8477,0.844,0.9126,0.9401,0.9152,0.8033,0.8187,0.7609,0.6247,0.6257,0.6261,0.6261,0.6261,0.6338,0.6338,0.6338,0.6338,0.6338,0.6335,0.6173,0.602,0.5867,0.5718,0.5576,0.5423,0.5205,0.4871,0.4726,0.4637,0.449,0.4297,0.4301,0.4519,0.4519,0.4519,0.4519,0.4519,0.4519,0.4519,0.4515,0.4515,0.4515,0.4519,0.4519,0.4519,0.4519,0.4519,0.4519,0.4519,0.4519,0.4519,0.4519,0.4515,0.4515,0.4515,0.4515,0.4412,0.422,0.4197,0.4147,0.4046,0.3894,0.3907,0.4157,0.4063,0.3872,0.3533,0.2966,0.21,0.0838,0.0729,0.0617,0.0393,0.0393,0.0336,0.0224,0.0224,0.0112,0.0,0.0561,0.0898,0.0898,0.1343,0.1677,0.1734,0.1008,0.0449,2.167,2.1361,2.0761,1.9444,1.8621,1.7689,1.6339,1.5636,1.5005,1.4054,1.4058,1.4093,1.3648,1.4153,1.4511,1.3946,1.4217,1.4247,1.366,1.2953,1.2881,1.3701,1.2499,1.1044,1.0036,0.9455,0.8707,0.7661,0.8969,0.9118,0.7505,0.7885,0.7652,0.6481,0.643,0.6359,0.6264,0.6338,0.6338,0.6486,0.6338,0.6412,0.6714,0.6563,0.6417,0.6306,0.675,0.6765,0.6485,0.6358,0.6165,0.588,0.5203,0.4972,0.4939,0.4677,0.4676,0.4826,0.4553,0.4519,0.4519,0.4632,0.4632,0.4632,0.4736,0.4625,0.4519,0.4519,0.4519,0.4519,0.4632,0.4632,0.4688,0.4736,0.4791,0.4791,0.4791,0.4684,0.4632,0.4632,0.4632,0.456,0.4457,0.4555,0.4646,0.4492,0.4442,0.4407,0.44,0.4161,0.3786,0.3267,0.27,0.2071,0.1451,0.1028,0.0766,0.0616,0.0617,0.0505,0.0336,0.0336,0.0449,0.0729,0.0954,0.1247,0.1679,0.2148,0.2402,0.2402,0.1734,0.1176,2.2542,2.2186,2.16,2.0495,1.9566,1.8592,1.7084,1.6345,1.5779,1.4935,1.4818,1.4939,1.485,1.515,1.5357,1.5068,1.5199,1.5233,1.5057,1.4521,1.4284,1.4451,1.3445,1.2289,1.115,1.0662,0.984,0.8627,0.9666,0.9634,0.7755,0.8058,0.7831,0.6798,0.6579,0.6503,0.649,0.6791,0.6868,0.6714,0.6868,0.6945,0.6865,0.6788,0.6648,0.647,0.6897,0.6982,0.0,0.656,0.6465,0.6485,0.5657,0.5325,0.5348,0.5068,0.5031,0.502,0.4865,0.4734,0.468,0.4739,0.4794,0.4794,0.4901,0.4791,0.4625,0.4625,0.4625,0.468,0.4739,0.4794,0.4794,0.4901,0.4897,0.4897,0.4897,0.4846,0.4794,0.4794,0.4794,0.4721,0.4606,0.4703,0.4793,0.4627,0.4619,0.4601,0.4561,0.4367,0.3897,0.3131,0.278,0.2391,0.1744,0.1382,0.1188,0.1118,0.1274,0.1264,0.1099,0.1031,0.1139,0.1429,0.167,0.1992,0.2409,0.2875,0.2997,0.285,0.2492,0.1869,0.0,2.2237,2.177,2.1317,2.0261,1.9003,1.769,1.6985,0.0,1.5527,1.547,1.5497,1.5424,1.5431,1.5351,1.5124,1.5127,1.5317,1.5625,1.5433,1.4877,1.3716,1.3224,1.2869,1.2234,1.1987,1.1671,1.1149,1.1235,1.0449,0.8632,0.8526,0.8105,0.7126,0.6798,0.6714,0.7015,0.7702,0.7702,0.7015,0.7702,0.7625,0.6938,0.6927,0.6836,0.66,0.6505,0.6752,0.7048,0.6281,0.6342,0.6841,0.6033,0.5721,0.5702,0.5478,0.5322,0.5242,0.5219,0.5106,0.4916,0.4904,0.4901,0.4956,0.4956,0.4952,0.4952,0.4901,0.4952,0.4952,0.4901,0.4901,0.4901,0.4901,0.4956,0.4956,0.4956,0.4901,0.4904,0.4916,0.4916,0.4875,0.4794,0.476,0.4699,0.4591,0.4557,0.4607,0.4714,0.4617,0.4131,0.3129,0.3179,0.2897,0.1897,0.1798,0.1774,0.1842,0.2282,0.2399,0.2232,0.2109,0.2053,0.2071,0.2705,0.3081,0.317,0.3645,0.359,0.32,0.3177,0.2538,2.2473,0.0,2.2076,2.2001,2.0846,1.9561,0.0,1.6862,1.5429,1.5301,1.4715,1.4502,1.5497,1.5732,1.5852,1.6233,1.6353,1.6481,1.68,1.6765,1.6268,1.5093,1.4801,1.3984,1.2524,1.2754,1.2095,0.984,1.0371,0.9933,0.7947,0.7739,0.7577,0.7369,0.7118,0.733,0.7778,0.8003,0.808,0.8003,0.7472,0.7249,0.7322,0.7036,0.6884,0.6933,0.7242,0.7387,0.7395,0.7012,0.699,0.7046,0.6167,0.5959,0.6067,0.5769,0.5685,0.5678,0.5299,0.5186,0.5129,0.5056,0.5128,0.5183,0.5183,0.5399,0.55,0.5007,0.5226,0.55,0.512,0.5069,0.5069,0.5183,0.5183,0.5183,0.5183,0.5128,0.5108,0.5247,0.527,0.5301,0.5214,0.5293,0.5361,0.5214,0.5039,0.4965,0.5008,0.4794,0.4557,0.4292,0.3801,0.3365,0.3089,0.2547,0.2304,0.2504,0.2607,0.2567,0.245,0.2374,0.253,0.2814,0.3634,0.3994,0.3934,0.4145,0.4127,0.3946,0.382,0.3122,2.1854,2.1897,2.1948,2.1412,2.055,1.9486,1.8185,1.6513,1.513,1.4857,1.406,1.353,1.425,1.4479,1.4613,1.4777,1.5328,1.5971,1.6592,1.6797,1.6594,1.5754,1.5064,1.4339,1.332,1.3367,1.2613,1.0621,1.0535,1.004,0.891,0.8315,0.8129,0.8563,0.8449,0.8389,0.8389,0.8765,0.8761,0.8542,0.838,0.796,0.7362,0.7116,0.7001,0.6888,0.7477,0.7784,0.7907,0.7512,0.7512,0.7707,0.6544,0.6218,0.6272,0.6112,0.6029,0.5986,0.5656,0.5401,0.528,0.54,0.5425,0.5414,0.5414,0.5746,0.6003,0.5258,0.5344,0.5525,0.539,0.5242,0.5258,0.5398,0.5357,0.5321,0.5398,0.5358,0.5409,0.5592,0.5628,0.5656,0.5631,0.5684,0.5742,0.5628,0.5473,0.5354,0.5354,0.5042,0.4774,0.4502,0.412,0.3801,0.3589,0.3345,0.3187,0.3148,0.3278,0.3329,0.3267,0.3213,0.3316,0.3587,0.4188,0.4417,0.4284,0.4111,0.4016,0.3903,0.36,0.2934,2.066,2.0761,2.0997,2.0368,1.9685,1.8734,1.7251,1.5844,1.4814,1.4238,1.3318,1.2657,1.2927,1.3078,1.305,1.291,1.4018,1.5215,1.6107,1.6645,1.6713,1.6038,1.5119,1.4527,1.434,1.3909,1.3266,1.2272,1.1354,1.0693,1.046,0.9508,0.9286,0.9976,0.9857,0.9471,0.8954,0.9396,0.9306,0.8609,0.9195,0.8654,0.7183,0.7155,0.6972,0.6744,0.7401,0.7954,0.8296,0.7717,0.7847,0.8231,0.6937,0.6416,0.6416,0.6482,0.6387,0.6291,0.6113,0.5752,0.5505,0.5952,0.6015,0.5818,0.5789,0.6147,0.642,0.5553,0.5372,0.5452,0.56,0.5523,0.5374,0.5575,0.5523,0.541,0.5584,0.5632,0.5705,0.5892,0.5929,0.5937,0.5965,0.5945,0.5929,0.5929,0.577,0.5653,0.5653,0.5385,0.4993,0.4487,0.4487,0.4343,0.3877,0.4049,0.4059,0.3871,0.4111,0.421,0.421,0.4106,0.4082,0.4242,0.4526,0.4537,0.4336,0.3851,0.361,0.3492,0.2999,0.2422,1.8411,1.8104,1.8344,1.9397,1.8109,1.6636,1.6607,1.4272,1.2501,1.3409,1.284,1.248,1.378,1.3819,1.3824,1.4196,1.541,1.6491,1.6823,1.759,1.7818,1.6961,1.6529,1.5963,1.514,1.5009,1.4415,1.33,1.2767,1.2086,1.11,1.0695,1.0445,1.0421,0.9548,0.9374,0.9969,0.9087,0.849,0.8251,0.7749,0.7305,0.6989,0.6842,0.6745,0.6753,0.7323,0.7555,0.7652,0.7521,0.7587,0.7587,0.6937,0.6675,0.6675,0.6815,0.6798,0.6742,0.6615,0.6293,0.612,0.6924,0.7101,0.6924,0.674,0.6755,0.6688,0.5793,0.5793,0.6027,0.5876,0.5709,0.5579,0.5604,0.5709,0.577,0.564,0.5734,0.5896,0.6133,0.617,0.6219,0.631,0.6209,0.617,0.617,0.5957,0.5848,0.5848,0.5685,0.5514,0.5396,0.5143,0.4884,0.4653,0.4518,0.4491,0.4634,0.4452,0.431,0.4212,0.416,0.4241,0.446,0.4703,0.454,0.387,0.3892,0.3638,0.3031,0.2779,0.2378,1.6485,1.6084,1.5954,1.5968,1.5651,1.5364,1.4949,1.3307,1.1975,1.2554,1.1873,1.1387,1.2198,1.2372,1.268,1.3578,1.5096,1.6227,1.6449,1.7279,1.7699,1.7145,1.6364,1.5651,1.5224,1.5049,1.4718,1.4146,1.3218,1.2667,1.2619,1.16,1.1163,1.1544,1.0474,0.985,0.9783,0.8814,0.8338,0.8498,0.8075,0.7808,0.7628,0.7203,0.7306,0.7986,0.8203,0.8291,0.8291,0.8291,0.8102,0.7722,0.7068,0.6811,0.6811,0.6881,0.688,0.6788,0.6806,0.656,0.6397,0.7424,0.7516,0.7345,0.7649,0.7696,0.7456,0.6699,0.6239,0.6043,0.6145,0.6013,0.5901,0.6001,0.6013,0.6009,0.5957,0.5969,0.6079,0.6258,0.6294,0.6319,0.6404,0.6351,0.6294,0.6294,0.6144,0.6088,0.6088,0.5783,0.5612,0.5612,0.5291,0.5048,0.4962,0.4788,0.4622,0.4603,0.4569,0.4492,0.4362,0.4237,0.4154,0.4015,0.4213,0.3954,0.3199,0.3066,0.2761,0.2291,0.1933,0.1604,1.4438,1.4004,1.3674,1.2642,1.3256,1.4021,1.343,1.2578,1.1836,1.1939,1.1383,1.0851,1.0959,1.1303,1.1887,1.3121,1.4745,1.6035,1.6466,1.7245,1.7587,1.7211,1.6263,1.5538,1.5397,1.5163,1.4958,1.4726,1.3722,1.3311,1.3797,1.252,1.2002,1.2509,1.15,1.0511,0.9759,0.8775,0.8243,0.8275,0.8477,0.8386,0.8153,0.7755,0.8123,0.8988,0.918,0.9244,0.9244,0.9052,0.8678,0.8166,0.7219,0.6945,0.695,0.6994,0.6948,0.6872,0.7006,0.6976,0.6979,0.8032,0.8233,0.8142,0.8634,0.8719,0.8443,0.7705,0.6936,0.6348,0.6434,0.6328,0.6223,0.6433,0.6386,0.6278,0.6316,0.6371,0.6378,0.6523,0.6486,0.6486,0.6486,0.6486,0.6486,0.6486,0.6427,0.6336,0.6336,0.5994,0.5797,0.5738,0.5417,0.5173,0.5088,0.495,0.4769,0.4518,0.4643,0.4683,0.4567,0.4247,0.3971,0.3624,0.3577,0.3232,0.2514,0.2253,0.1956,0.1626,0.1281,0.1049,1.1899,1.1333,1.1374,1.0839,1.1438,1.234,1.2631,1.2035,1.1461,1.1775,1.1931,1.1911,1.1728,1.2032,1.2825,1.4188,1.5626,1.6901,1.7868,1.8344,1.8417,1.7702,1.711,1.6557,1.5886,1.5806,1.5544,1.494,1.4576,1.4256,1.4033,1.3586,1.3251,1.2946,1.1985,1.1263,1.0896,0.9273,0.8007,0.7052,0.769,0.8067,0.8052,0.863,0.8941,0.9052,0.9633,0.9952,0.9888,0.9244,0.8988,0.8779,0.7438,0.6998,0.7201,0.739,0.7329,0.7187,0.739,0.7693,0.8224,0.911,0.9691,1.0071,0.9758,0.9675,0.9497,0.8618,0.8017,0.7409,0.6846,0.6519,0.645,0.6652,0.6784,0.6794,0.6687,0.6733,0.6863,0.6881,0.6881,0.6881,0.6881,0.6881,0.6881,0.6881,0.6868,0.6793,0.6654,0.6485,0.63,0.617,0.5787,0.5437,0.5108,0.5068,0.5008,0.4896,0.4856,0.4839,0.468,0.4122,0.3732,0.3624,0.3173,0.26,0.1846,0.2089,0.1857,0.1179,0.1284,0.1362,1.0999,1.076,1.0774,1.0393,1.0948,1.1545,1.1864,1.1773,1.1784,1.2064,1.2417,1.274,1.297,1.3429,1.3873,1.4398,1.6178,1.7367,1.7342,1.8259,1.8662,1.7697,1.7122,1.653,1.6072,1.5839,1.5613,1.5358,1.4839,1.4479,1.4351,1.3645,1.3186,1.3066,1.2189,1.1454,1.088,1.0142,0.939,0.8683,0.842,0.8742,0.9576,0.9384,0.9767,1.0598,1.0408,1.0288,1.0281,1.0028,0.9448,0.8603,0.7629,0.7347,0.7416,0.7493,0.7474,0.7421,0.7497,0.7766,0.824,0.9174,0.9725,1.0102,1.0609,1.0649,1.0451,0.9637,0.9301,0.893,0.7907,0.727,0.6897,0.7026,0.7019,0.7055,0.685,0.6894,0.6881,0.6881,0.6881,0.6986,0.7104,0.7122,0.7166,0.7289,0.7306,0.7263,0.7068,0.6819,0.6527,0.635,0.5994,0.5681,0.5429,0.5409,0.5309,0.5147,0.5085,0.4946,0.4846,0.4239,0.3741,0.3294,0.2774,0.2175,0.1561,0.1606,0.1493,0.1274,0.1436,0.1427,1.1086,1.0746,1.0589,1.0473,1.0886,1.1482,1.1836,1.2079,1.2309,1.255,1.2863,1.3284,1.3607,1.4248,1.4706,1.4945,1.6819,1.805,1.7777,1.8394,1.8548,1.7717,1.7021,1.6423,1.5973,1.5713,1.5492,1.5278,1.4828,1.4515,1.4482,1.352,1.2984,1.2871,1.2193,1.1529,1.0968,1.0787,1.0598,1.0534,0.9697,0.9761,1.0661,1.0408,1.0856,1.1747,1.124,1.0926,1.0737,1.0541,0.9611,0.8222,0.7926,0.7639,0.7467,0.7603,0.7717,0.7772,0.7698,0.808,0.8719,0.9205,0.9711,1.035,1.0892,1.1178,1.1178,1.0724,1.0212,0.964,0.8877,0.8102,0.748,0.7414,0.7315,0.7283,0.7224,0.7118,0.7073,0.7073,0.7073,0.7113,0.7315,0.7337,0.7387,0.7527,0.755,0.75,0.7292,0.7021,0.6737,0.6426,0.6166,0.5872,0.5632,0.5612,0.5539,0.5309,0.5242,0.5124,0.4956,0.4184,0.3574,0.313,0.2296,0.1758,0.1393,0.1363,0.142,0.1452,0.1545,0.1524,1.1838,1.1126,1.0622,1.0839,1.1277,1.1834,1.2598,1.2815,1.3032,1.3264,1.3367,1.3556,1.3475,1.4367,1.536,1.6212,1.7668,1.8781,1.9352,1.8894,1.8216,1.7611,1.6962,1.6324,1.5644,1.5576,1.5293,1.4614,1.4636,1.4482,1.4137,1.3248,1.2647,1.233,1.2013,1.1625,1.1303,1.1094,1.1406,1.2058,1.1344,1.1017,1.1017,1.1794,1.2127,1.2127,1.2127,1.1809,1.124,1.0591,0.9328,0.7849,0.8328,0.8028,0.737,0.7815,0.8236,0.8447,0.8085,0.893,0.9986,0.9242,0.9966,1.1001,1.0615,1.1031,1.1622,1.1747,1.0724,0.9582,0.9773,0.9005,0.8163,0.7861,0.7612,0.7583,0.773,0.7607,0.7521,0.7521,0.7521,0.7521,0.7526,0.7526,0.7526,0.7526,0.7526,0.74,0.7204,0.7204,0.6997,0.6493,0.6278,0.6068,0.5644,0.5616,0.5539,0.5313,0.5305,0.5242,0.5124,0.3956,0.3236,0.313,0.1905,0.1291,0.1291,0.1515,0.1628,0.1629,0.1741,0.1798,1.1298,1.117,1.0955,1.1174,1.1728,1.2363,1.2893,1.3093,1.3434,1.409,1.427,1.4518,1.5004,1.5513,1.6105,1.6721,1.7789,1.8533,1.8183,1.828,1.8119,1.7431,1.6723,1.6275,1.607,1.5622,1.515,1.4613,1.4347,1.4128,1.3774,1.29,1.2557,1.2852,1.2067,1.1781,1.1988,1.1864,1.1926,1.2243,1.2042,1.1856,1.1794,1.1996,1.2127,1.2127,1.2127,1.1809,1.1219,0.9942,0.915,0.8665,0.8318,0.7942,0.7649,0.7949,0.8016,0.7928,0.804,0.8545,0.9176,0.9376,1.0086,1.0901,1.1046,1.1493,1.1941,1.1996,1.1553,1.0912,1.0028,0.9454,0.8829,0.78,0.7569,0.754,0.7607,0.7569,0.7521,0.7521,0.7521,0.7569,0.7659,0.7683,0.7735,0.7872,0.7896,0.7775,0.7436,0.7295,0.7116,0.6802,0.6729,0.6625,0.6375,0.6237,0.6142,0.6086,0.5953,0.5651,0.5246,0.4125,0.3514,0.3461,0.224,0.1703,0.174,0.1759,0.1761,0.1798,0.1856,0.2061,1.2203,1.2035,1.1966,1.1921,1.2441,1.3008,1.3871,1.4119,1.4418,1.5088,1.5394,1.5778,1.6155,1.6687,1.71,1.728,1.8178,1.8697,1.8163,1.8128,1.789,1.7342,1.6643,1.6103,1.5825,1.53,1.4824,1.4458,1.4101,1.3807,1.3592,1.2802,1.2497,1.2948,1.2233,1.1996,1.2305,1.2428,1.2428,1.2428,1.2428,1.2375,1.2313,1.2313,1.2313,1.2313,1.2058,1.1611,1.0918,0.9868,0.918,0.8771,0.8692,0.8397,0.8027,0.8334,0.8502,0.8592,0.8491,0.8858,0.9418,0.9545,1.0194,1.0932,1.1086,1.1601,1.2182,1.2251,1.1988,1.1351,1.0338,0.9773,0.9121,0.7999,0.7645,0.7569,0.7875,0.7707,0.7521,0.7657,0.7587,0.7564,0.7631,0.765,0.7692,0.7815,0.7834,0.7792,0.7534,0.7348,0.7138,0.7012,0.6946,0.6867,0.6732,0.6542,0.6375,0.6375,0.6186,0.5967,0.563,0.4488,0.3803,0.3699,0.2455,0.1837,0.1847,0.1813,0.1815,0.1847,0.1847,0.2167,1.3841,1.3461,1.3329,1.3006,1.3323,1.4112,1.5337,1.5635,1.5801,1.6201,1.6667,1.7049,1.7145,1.7713,1.8187,1.7878,1.8699,1.9279,1.8788,1.8176,1.762,1.7231,1.6571,1.5966,1.5205,1.4808,1.4434,1.4045,1.3719,1.3521,1.3489,1.2741,1.2444,1.2805,1.2461,1.2367,1.2428,1.2858,1.292,1.2683,1.2683,1.2666,1.2634,1.2573,1.2557,1.2464,1.1997,1.1326,1.0495,1.0027,0.9239,0.8371,0.9074,0.8998,0.8552,0.8825,0.9369,0.9824,0.9154,0.9562,1.0346,0.9726,1.0217,1.1066,1.0865,1.1495,1.2328,1.2552,1.1981,1.1212,1.064,0.9894,0.9137,0.8374,0.7885,0.7763,0.8433,0.8068,0.7657,0.7987,0.7787,0.7587,0.7521,0.7521,0.7521,0.7521,0.7521,0.7521,0.7521,0.733,0.7199,0.7199,0.7073,0.6936,0.6755,0.6568,0.6466,0.6484,0.6298,0.6191,0.6209,0.4949,0.4153,0.3912,0.2638,0.1969,0.1908,0.1859,0.1802,0.1797,0.1853,0.2184,1.4224,1.3513,1.2831,1.3782,1.4986,1.6103,1.6734,1.7312,1.7603,1.7122,1.6879,1.7033,1.8032,1.8304,1.847,1.8693,1.9157,1.9174,1.8177,1.7866,1.7437,1.654,1.6299,1.5834,1.4824,1.4717,1.4307,1.3354,1.3243,1.3076,1.2861,1.2265,1.2227,1.2902,1.253,1.2605,1.3268,1.3329,1.3329,1.3338,1.3338,1.3117,1.2848,1.2376,1.198,1.1733,1.1479,1.093,1.0154,0.9449,0.8833,0.8353,0.8901,0.8864,0.859,0.8873,0.9172,0.934,0.9064,0.9355,0.9776,0.9888,1.0333,1.0895,1.1107,1.162,1.2134,1.248,1.212,1.1358,1.071,0.9958,0.9344,0.8794,0.845,0.8343,0.8509,0.8391,0.8317,0.8382,0.8317,0.8187,0.7917,0.7917,0.7787,0.7521,0.7521,0.7521,0.7521,0.7456,0.7456,0.7456,0.7396,0.7377,0.733,0.7147,0.7096,0.7255,0.7072,0.6973,0.694,0.5566,0.4714,0.4504,0.324,0.26,0.2516,0.2069,0.1841,0.1797,0.2294,0.2905,1.5443,1.504,1.4924,1.5591,1.6807,1.787,1.8133,1.8669,1.9011,1.8806,1.8398,1.8224,1.8674,1.8816,1.8816,1.9016,1.9264,1.9159,1.8514,1.7926,1.7392,1.6817,1.5979,1.5306,1.4701,1.4386,1.3917,1.3364,1.3296,1.324,1.305,1.2781,1.2903,1.3467,1.3216,1.3338,1.3761,1.3761,1.364,1.3511,1.3511,1.322,1.2632,1.2176,1.1792,1.1495,1.1233,1.066,0.9841,0.9285,0.865,0.816,0.8632,0.8704,0.8593,0.8736,0.8971,0.9211,0.9106,0.9361,0.9769,1.0102,1.0551,1.0926,1.1091,1.1386,1.1704,1.1949,1.1682,1.124,1.085,1.0471,1.0066,0.9634,0.8989,0.8549,0.8854,0.8663,0.8576,0.8705,0.8576,0.8447,0.8252,0.8252,0.8117,0.7787,0.7722,0.7657,0.7526,0.7521,0.7521,0.7521,0.7521,0.7521,0.7521,0.7335,0.7307,0.7512,0.7331,0.7206,0.7186,0.6388,0.566,0.5074,0.4156,0.3473,0.3088,0.308,0.2909,0.2636,0.3093,0.368,1.6883,1.7113,1.7598,1.7669,1.8503,1.943,1.9521,1.9766,2.006,2.0359,2.0018,1.9531,1.929,1.9229,1.9229,1.9144,1.9204,1.9085,1.8803,1.7895,1.7217,1.7022,1.569,1.4755,1.4613,1.412,1.3735,1.3614,1.3506,1.3511,1.3511,1.3451,1.3536,1.3912,1.3841,1.3806,1.3874,1.3874,1.3747,1.3433,1.3423,1.3044,1.2444,1.2049,1.1715,1.1423,1.1097,1.0435,0.9698,0.9261,0.8632,0.8008,0.8415,0.8626,0.8626,0.8626,0.889,0.9309,0.9211,0.9517,0.9976,1.036,1.0669,1.0915,1.0979,1.1056,1.1159,1.1271,1.1077,1.0788,1.085,1.0863,1.0737,1.0301,0.9472,0.8891,0.923,0.898,0.877,0.9022,0.8829,0.8576,0.8576,0.8511,0.8382,0.8117,0.8117,0.7987,0.7722,0.7657,0.7657,0.7657,0.7657,0.7657,0.7657,0.7437,0.7409,0.7577,0.7364,0.7273,0.7273,0.7089,0.6612,0.5803,0.5185,0.4553,0.3837,0.4188,0.406,0.3629,0.4017,0.4505,1.8018,1.848,1.8972,1.8964,1.953,2.0283,2.0628,2.0773,2.0731,2.0571,1.9817,1.9392,1.977,1.9761,1.9669,1.9247,1.9454,1.9164,1.7755,1.7403,1.6835,1.5545,1.5489,1.5167,1.4162,1.4325,1.4188,1.3553,1.3536,1.3511,1.3511,1.3143,1.3156,1.3455,1.312,1.311,1.3396,1.3396,1.3396,1.3332,1.2968,1.2824,1.2822,1.2035,1.1575,1.1336,1.1067,1.0508,0.9725,0.9095,0.8559,0.8168,0.8474,0.8626,0.8626,0.8626,0.9093,0.9658,0.9309,0.9732,1.0411,1.047,1.0553,1.0597,1.0907,1.0779,1.0632,1.1144,1.0671,1.0091,1.0355,1.0364,1.0238,0.9734,0.9862,0.9932,0.9526,0.9444,0.935,0.942,0.9151,0.8958,0.8958,0.87,0.8511,0.8447,0.8447,0.8452,0.8382,0.8382,0.8382,0.8382,0.8382,0.8382,0.8382,0.8091,0.7892,0.7917,0.7632,0.7483,0.7483,0.7418,0.726,0.6991,0.6002,0.5417,0.5235,0.4683,0.4323,0.421,0.458,0.5167,1.9322,1.9661,1.9903,2.0116,2.0637,2.1105,2.1365,2.1184,2.0947,2.0555,2.0034,1.9607,1.9542,1.9577,1.9423,1.8957,1.9074,1.877,1.7565,1.6987,1.6466,1.5863,1.5189,1.4665,1.4336,1.4259,1.4126,1.3769,1.395,1.407,1.407,1.3696,1.3539,1.3663,1.3275,1.3177,1.3296,1.3296,1.3296,1.3286,1.2865,1.2711,1.276,1.219,1.1728,1.1285,1.0605,1.0105,0.971,0.8935,0.8421,0.8221,0.8321,0.8474,0.8626,0.8626,0.8995,0.9458,0.951,0.9777,1.0138,1.0411,1.03,1.0118,1.0263,1.0089,0.9874,1.0144,0.9979,0.9762,1.0205,1.0301,1.0238,0.9989,1.0117,1.018,0.9612,0.9484,0.9484,0.9484,0.935,0.928,0.928,0.9157,0.9028,0.8829,0.8765,0.8705,0.8517,0.877,0.8835,0.8517,0.877,0.8829,0.8517,0.8635,0.8501,0.8052,0.8102,0.7967,0.7521,0.7521,0.7478,0.7393,0.6934,0.6459,0.603,0.586,0.5588,0.5332,0.553,0.611,2.0262,2.0544,2.0801,2.098,2.1382,2.1741,2.1741,2.1493,2.1126,2.0622,2.0283,1.9925,1.9393,1.9301,1.9173,1.8779,1.8715,1.8357,1.7339,1.6688,1.6211,1.589,1.4799,1.4246,1.4541,1.43,1.4139,1.4139,1.4387,1.4515,1.4515,1.402,1.3736,1.3736,1.325,1.2984,1.2984,1.2984,1.3039,1.3131,1.2718,1.2623,1.2706,1.2259,1.1877,1.1469,1.0379,0.9961,0.9865,0.8883,0.8368,0.8268,0.8321,0.8474,0.8626,0.8626,0.8844,0.9211,0.9406,0.9607,0.9814,1.0095,0.9984,0.9762,0.9666,0.9473,0.9292,0.9369,0.9382,0.9515,1.0155,1.0364,1.0491,1.0491,1.0491,1.0301,0.9612,0.9484,0.9484,0.9484,0.9484,0.9484,0.9484,0.9484,0.942,0.9151,0.921,0.921,0.8958,0.9402,0.953,0.9028,0.9344,0.9344,0.8776,0.9151,0.9075,0.8182,0.8683,0.8608,0.7777,0.7907,0.8037,0.8037,0.8037,0.7639,0.6917,0.6974,0.6962,0.6759,0.6746,0.7212,2.0466,2.0979,2.1523,2.1149,2.1438,2.1741,2.1741,2.1722,2.1475,2.0686,2.0503,2.0246,1.9448,1.9301,1.9173,1.8779,1.8715,1.8164,1.6597,1.6349,1.589,1.4744,1.4552,1.4465,1.4474,1.4465,1.4446,1.4446,1.4506,1.4515,1.4515,1.3754,1.3323,1.3323,1.2553,1.214,1.214,1.214,1.2324,1.2742,1.2296,1.2356,1.2706,1.2259,1.2076,1.1977,1.088,1.0364,1.0261,0.9086,0.8521,0.8421,0.8679,0.8672,0.8626,0.8626,0.8844,0.9159,0.8784,0.9145,0.9762,0.9361,0.9517,0.9718,0.9361,0.9106,0.9082,0.9311,0.9238,0.9334,1.0103,1.0611,1.0989,1.0989,1.0989,1.0674,0.9734,0.9484,0.9484,0.9484,0.9484,0.9484,0.9484,0.9484,0.9484,0.9484,0.9926,1.0238,1.0238,1.0611,1.0737,1.0238,1.0238,1.0053,0.9484,0.9658,0.9396,0.8511,0.9268,0.9326,0.849,0.9069,0.939,0.939,0.939,0.9064,0.8404,0.7889,0.7962,0.858,0.8375,0.8589,2.0734,2.0862,2.1044,2.142,2.1227,2.1089,2.1612,2.1328,2.0869,2.0576,2.0319,1.9971,1.9402,1.9091,1.8788,1.8394,1.8109,1.7559,1.6468,1.6321,1.6056,1.5349,1.5267,1.5267,1.5267,1.5267,1.5267,1.5267,1.5029,1.4781,1.4524,1.3736,1.3167,1.2901,1.236,1.2076,1.2076,1.2076,1.2149,1.2337,1.2149,1.2199,1.2337,1.219,1.2076,1.2026,1.088,1.0415,1.0312,0.9204,0.8633,0.8573,0.8995,0.8988,0.8778,0.9093,0.9204,0.9159,0.9047,0.9354,0.971,0.9309,0.9309,0.9361,0.8942,0.879,0.8844,0.8943,0.912,0.9485,1.0148,1.0428,1.0611,1.0926,1.08,1.0428,1.0117,0.9734,0.9484,0.9484,0.9484,0.9612,0.9926,0.9989,0.9989,0.9989,1.0428,1.0611,1.0364,1.0989,1.1303,1.08,1.1052,1.1052,1.0485,1.0856,1.0724,0.9831,1.0395,1.0332,0.939,0.9582,0.9646,0.9518,0.9518,0.939,0.9128,0.8842,0.8705,0.8703,0.8792,0.9093,2.0837,2.0874,2.0778,2.1302,2.1087,2.0824,2.1236,2.1016,2.064,2.0374,2.0218,1.9962,1.9402,1.8871,1.843,1.8164,1.777,1.722,1.6431,1.6321,1.6156,1.5744,1.5689,1.5689,1.5689,1.5689,1.5689,1.5689,1.5322,1.4928,1.4533,1.3736,1.3039,1.2531,1.2214,1.2076,1.2076,1.2076,1.2076,1.2076,1.2076,1.2076,1.2076,1.2076,1.1977,1.1778,1.0838,1.0525,1.0635,0.9517,0.9001,0.8942,0.9406,0.9302,0.889,0.9256,0.9256,0.9047,0.9047,0.9197,0.9354,0.9099,0.9001,0.8896,0.8474,0.854,0.8681,0.8681,0.9187,0.9862,1.0428,1.0681,1.0863,1.0989,1.0611,1.0244,1.0053,0.974,0.9484,0.9484,0.9676,0.9862,1.0238,1.0428,1.0555,1.0555,1.0926,1.1178,1.0863,1.156,1.1872,1.1303,1.1615,1.1553,1.1045,1.149,1.1413,1.0577,1.1212,1.1212,1.0212,1.0471,1.0534,1.0408,1.0345,1.0575,1.0917,1.0254,0.99,1.0,1.0414,1.0763,0.0,0.0,0.0,2.0857,2.1006,2.0979,2.0622,2.0814,2.086,2.009,2.0237,2.0255,1.9448,1.865,1.8128,1.8128,1.7761,1.7211,1.6441,1.6331,1.6184,1.5771,1.5725,1.5725,1.5725,1.5725,1.5725,1.5725,1.5331,1.4928,1.4533,1.3727,1.292,1.2131,1.2162,1.2104,1.2144,1.2144,1.2085,1.2076,1.2076,1.2076,1.2076,1.2076,1.1787,1.1285,1.0635,1.0744,1.1184,1.0035,0.951,0.9413,0.9814,0.9562,0.9008,0.9008,0.8896,0.8778,0.8778,0.8725,0.8626,0.8573,0.8573,0.8521,0.8055,0.8267,0.8739,0.8681,0.9492,1.0364,1.0863,1.1365,1.1677,1.1108,1.0611,1.018,0.9612,0.9548,0.9548,0.9484,0.9926,1.0301,1.0301,1.0737,1.1045,1.1045,1.149,1.1802,1.1802,1.2243,1.2375,1.1864,1.1802,1.1615,1.1115,1.1553,1.1483,1.0661,1.1677,1.1934,1.1108,1.1762,1.2158,1.215,1.215,1.268,1.3697,1.214,1.1737,1.2589,1.3208,1.3584,2.0657,0.0,0.0,0.0,0.0,0.0,2.1532,2.0932,2.0274,2.0514,2.0326,1.9934,1.9402,1.865,1.8128,1.8128,1.7532,1.6991,1.6771,1.6743,1.6697,1.6587,1.6569,1.6569,1.6569,1.6569,1.6569,1.6569,1.5661,1.4928,1.4533,1.3451,1.2874,1.2956,1.2956,1.281,1.2558,1.2558,1.2411,1.2076,1.2076,1.2076,1.2076,1.1728,1.1575,1.1496,1.0335,1.0269,1.0918,0.9573,0.9008,0.9008,0.951,0.9302,0.8732,0.9152,0.8942,0.8521,0.8521,0.8626,0.8672,0.8421,0.8527,0.862,0.8055,0.8379,0.8915,0.8739,0.9187,0.9862,1.0364,1.0989,1.1365,1.1052,1.0611,1.0301,1.0238,1.0174,0.9989,0.9548,0.9926,1.0428,1.0737,1.124,1.1553,1.1553,1.2058,1.2251,1.1864,1.2243,1.256,1.2375,1.2375,1.2313,1.2182,1.2305,1.2352,1.2401,1.2679,1.286,1.2709,1.2929,1.3003,1.2798,1.3363,1.3859,1.4284,1.3083,1.2964,1.3738,1.3447,1.3798,2.0887,2.1448,2.202,2.2337,0.0,0.0,2.1958,2.1327,2.0623,2.032,2.0169,1.9804,1.8916,1.844,1.8064,1.7889,1.7468,1.7092,1.6927,1.6908,1.6908,1.6908,1.6908,1.6908,1.6908,1.6908,1.6908,1.6908,1.5936,1.5029,1.4286,1.3406,1.3039,1.3286,1.3121,1.2963,1.2715,1.2549,1.2305,1.2076,1.2076,1.2208,1.2324,1.1764,1.1494,1.1543,1.0325,0.9929,1.0144,0.9192,0.8956,0.9159,0.9458,0.9204,0.8745,0.9054,0.8844,0.8546,0.8824,0.8784,0.8665,0.8757,0.8721,0.8619,0.8428,0.8589,0.885,0.9085,0.9525,1.0047,1.0491,1.0744,1.087,1.0744,1.0301,0.9989,1.0047,1.0053,0.9926,0.9919,1.0491,1.0989,1.1303,1.1921,1.2281,1.2143,1.25,1.2664,1.2197,1.2436,1.2621,1.2621,1.2621,1.2621,1.2621,1.2621,1.271,1.3068,1.3092,1.3251,1.3459,1.3808,1.3874,1.38,1.4501,1.5201,1.588,1.4917,1.4906,1.5733,1.529,1.5595,2.143,2.1967,2.2615,2.2799,2.267,0.0,2.2017,2.1807,2.1301,1.998,2.0013,1.9783,1.8471,1.8295,1.8156,1.7823,1.7731,1.7475,1.6963,1.6945,1.6972,1.6972,1.6972,1.6972,1.6972,1.6857,1.683,1.6908,1.6111,1.5111,1.3947,1.3552,1.3378,1.3424,1.302,1.2834,1.2788,1.2393,1.219,1.219,1.2094,1.2305,1.2622,1.1947,1.1559,1.1349,1.0424,0.9666,0.9163,0.8925,0.9061,0.951,0.951,0.9211,0.8804,0.8804,0.8765,0.8765,0.9419,0.9139,0.8648,0.9295,0.9049,0.8508,0.8801,0.8795,0.8802,0.9487,1.0024,1.0485,1.0793,1.0548,1.0238,1.0244,0.9862,0.9548,0.9612,0.967,0.9932,1.0588,1.1262,1.174,1.1864,1.2593,1.3028,1.2739,1.2987,1.31,1.2717,1.2677,1.2693,1.2733,1.2701,1.2685,1.2685,1.2645,1.2734,1.3124,1.3147,1.3379,1.3822,1.4496,1.4835,1.4967,1.5633,1.6631,1.8029,1.7149,1.7185,1.8085,1.7835,1.8036,2.1818,2.2606,2.3189,2.2809,2.2757,0.0,2.2091,2.1232,2.0601,2.0514,2.0383,2.0046,1.9363,1.9345,1.9409,1.9219,1.8915,1.8294,1.7079,1.7183,1.7385,1.7385,1.7385,1.7385,1.7385,1.6581,1.6263,1.6839,1.5854,1.4827,1.3928,1.3809,1.3919,1.4268,1.3864,1.3497,1.3176,1.2755,1.2604,1.2595,1.2223,1.2187,1.2362,1.1477,1.1035,1.0983,0.9855,0.9294,0.9163,0.8925,0.8857,0.8956,0.8956,0.891,0.8804,0.8804,0.8898,0.9103,0.9274,0.9303,0.9264,0.9021,0.8912,0.8809,0.8469,0.8606,0.9034,0.9481,0.9837,1.011,1.0053,1.0053,1.0047,0.9926,0.9926,0.9919,1.0117,1.08,1.15,1.2067,1.1658,1.1365,1.2058,1.29,1.3454,1.3327,1.3659,1.3752,1.3416,1.3408,1.3387,1.3419,1.3147,1.2989,1.2989,1.2789,1.283,1.3449,1.3489,1.4036,1.5306,1.5479,1.5887,1.6428,1.6836,1.7875,1.9684,1.8655,1.857,1.9233,1.8168,1.8202,2.2164,2.2836,2.346,2.2903,2.2825,0.0,0.0,2.1471,2.0843,2.0453,2.0245,1.99,1.9118,1.9461,1.9683,1.9466,1.935,1.8979,1.8071,1.7886,1.7807,1.7807,1.7807,1.7724,1.7513,1.666,1.6095,1.6076,1.5848,1.5349,1.4533,1.4488,1.4497,1.4515,1.4102,1.3699,1.3296,1.2874,1.2623,1.242,1.2227,1.2082,1.2098,1.1398,1.1066,1.0907,0.9713,0.9183,0.9143,0.8611,0.837,0.8397,0.8691,0.8717,0.8624,0.8811,0.9009,0.923,0.9464,0.9512,0.948,0.9551,0.9247,0.8931,0.9016,0.9181,0.9328,0.9234,0.9411,0.9665,0.9625,0.9662,0.9693,0.9773,0.9862,0.9926,1.011,1.098,1.1831,1.2372,1.2474,1.2732,1.3379,1.3642,1.3827,1.3827,1.4119,1.4234,1.3857,1.3872,1.3925,1.3908,1.3421,1.3155,1.3322,1.302,1.3124,1.3807,1.3846,1.4421,1.5745,1.6175,1.6862,1.7969,1.8476,1.9318,2.0613,1.9871,1.9715,2.0029,1.9377,1.9293,2.2189,2.2692,2.3307,2.2645,2.2617,2.2594,0.0,0.0,0.0,2.0096,1.9944,1.9714,1.8893,1.9504,2.0022,1.9687,1.9939,2.0056,1.9634,1.9069,1.8554,1.8256,1.8238,1.8109,1.7761,1.6987,1.6088,1.5069,1.5556,1.5668,1.5061,1.4943,1.47,1.4385,1.4081,1.3699,1.3296,1.2874,1.2558,1.2186,1.2013,1.1908,1.1828,1.1289,1.0955,1.0768,0.9631,0.907,0.8964,0.831,0.7916,0.7775,0.847,0.8577,0.8437,0.8803,0.9066,0.9279,0.9636,0.9622,0.9551,1.0011,0.9549,0.8914,0.9506,0.9623,0.9489,0.8963,0.9105,0.9395,0.9382,0.9395,0.9463,0.9799,0.9824,0.9939,1.0296,1.1148,1.2042,1.2821,1.3631,1.4334,1.4595,1.4405,1.4208,1.4195,1.4481,1.4547,1.4127,1.4177,1.4231,1.4172,1.3655,1.3394,1.3664,1.3378,1.3449,1.4069,1.4247,1.4808,1.5956,1.6862,1.7959,1.9264,1.9749,2.0384,2.1302,2.0618,2.0421,2.0665,2.0444,2.0269,2.1603,2.211,2.2573,2.1496,2.1498,2.1624,2.0743,0.0,1.982,1.9701,0.0,1.9852,1.9592,0.0,0.0,2.1188,2.1855,2.2293,2.178,2.1123,2.0144,1.8801,1.865,1.8623,1.8577,1.7485,1.6012,1.4242,1.4449,1.4661,1.4672,1.4247,1.4042,1.3999,1.3915,1.3699,1.3296,1.2874,1.2696,1.2641,1.1787,1.1427,1.1535,1.0652,1.0115,0.9816,0.9166,0.8711,0.8464,0.8363,0.7849,0.7214,0.8083,0.8404,0.841,0.8567,0.8951,0.935,0.9285,0.9458,0.9669,0.953,0.9206,0.8805,0.8903,0.9057,0.923,0.9036,0.9105,0.9258,0.9363,0.9377,0.9506,0.9857,0.9925,1.0246,1.1582,1.2216,1.3058,1.4672,1.4962,1.4908,1.4648,1.4842,1.4951,1.4508,1.4787,1.4765,1.4084,1.4362,1.4455,1.4159,1.4021,1.4013,1.4053,1.3727,1.3696,1.4085,1.4712,1.5626,1.6706,1.8104,1.9187,1.9977,1.9681,2.0279,2.1978,2.0471,2.0217,2.12,2.0404,2.0072,2.1193,2.1428,2.1477,2.0657,2.0652,2.0716,1.9979,1.9676,1.9605,1.9605,0.0,0.0,0.0,0.0,0.0,0.0,2.2009,2.2321,2.2132,2.1257,2.041,1.9686,1.9502,1.8824,1.7483,1.7497,1.6516,1.3889,1.4856,1.518,1.4318,1.4271,1.4153,1.3941,1.4105,1.4047,1.3644,1.3231,1.291,1.2715,1.1754,1.1174,1.0814,1.0339,0.9847,0.9406,0.8991,0.8644,0.8393,0.8044,0.7622,0.7335,0.7896,0.8223,0.845,0.8915,0.9343,0.9616,0.9317,0.9326,0.9455,0.907,0.8865,0.8786,0.8718,0.8771,0.8816,0.8762,0.8793,0.8886,0.8946,0.9082,0.9329,0.992,1.0461,1.108,1.1848,1.318,1.4301,1.453,1.5245,1.5588,1.4988,1.4861,1.4798,1.4873,1.4798,1.4711,1.439,1.4533,1.463,1.4437,1.4643,1.4665,1.4403,1.449,1.4705,1.5088,1.6195,1.702,1.7541,1.8519,1.9396,2.0107,2.0284,2.0818,2.1644,2.1241,2.0957,2.0839,2.0345,2.0164,2.0567,2.0631,2.0565,1.9949,2.0076,2.0159,1.9476,1.9474,1.9631,1.9494,1.9605,0.0,0.0,0.0,2.1359,2.1501,0.0,2.2285,2.2168,2.1435,2.0737,2.0285,1.9968,1.8905,1.6942,1.7295,1.6682,1.4159,1.5144,1.5332,1.4198,1.4521,1.4541,1.4102,1.4435,1.4423,1.3892,1.3488,1.3085,1.2715,1.1592,1.0838,1.0372,0.9962,0.9451,0.8985,0.8691,0.8404,0.8145,0.7742,0.7542,0.7567,0.8076,0.837,0.8571,0.9039,0.9389,0.9674,0.9271,0.9201,0.9211,0.8658,0.862,0.8731,0.8611,0.8521,0.8521,0.8521,0.8626,0.8798,0.8877,0.9104,0.9555,1.0091,1.0923,1.1667,1.2174,1.3644,1.4828,1.46,1.5174,1.5521,1.4935,1.4732,1.4735,1.4909,1.4682,1.4418,1.4294,1.4638,1.4774,1.4706,1.5283,1.5515,1.518,1.5497,1.5868,1.6367,1.7413,1.8104,1.8307,1.8798,1.9518,2.0355,2.0816,2.1195,2.151,2.1506,2.1153,2.0395,2.0547,2.0507,1.9509,1.9718,1.9891,1.9297,1.9758,2.0172,1.9292,1.9427,1.9682,1.9235,1.9208,1.9351,1.9351,2.0009,2.0762,2.1237,2.2234,0.0,0.0,2.2115,2.1624,2.0313,1.9706,1.884,1.764,1.7039,1.6317,1.5205,1.4675,1.441,1.4553,1.4972,1.5018,1.4624,1.4899,1.4698,1.3892,1.3488,1.3085,1.2663,1.1157,1.0415,1.0364,0.9323,0.8671,0.8383,0.809,0.7782,0.756,0.7796,0.7736,0.7627,0.8744,0.9031,0.8798,0.8646,0.886,0.9174,0.9038,0.9028,0.8999,0.8386,0.8408,0.8571,0.8457,0.8421,0.8421,0.8421,0.8791,0.9228,0.9473,0.9988,1.0389,1.062,1.0944,1.1537,1.2816,1.3415,1.4145,1.5387,1.4852,1.4147,1.413,1.4631,1.4955,1.4588,1.4216,1.3899,1.3588,1.4495,1.5041,1.4724,1.5981,1.6784,1.6533,1.6724,1.7129,1.7891,1.7959,1.8317,1.9075,1.9075,1.9715,2.106,2.0955,2.128,2.2089,2.0664,2.007,2.0244,2.1217,2.1234,1.925,1.9256,1.9339,1.9173,1.9303,1.9448,1.9137,1.8951,1.8889,1.9044,1.8968,1.8994,1.942,2.0133,2.0712,2.1011,2.1647,2.2007,0.0,2.1083,2.0325,1.9535,1.9344,1.8921,1.8065,1.7397,1.6461,1.5263,1.4875,1.4629,1.4617,1.4988,1.5035,1.4641,1.4917,1.4845,1.4304,1.3626,1.305,1.2555,1.1118,1.021,0.9865,0.9113,0.8751,0.8644,0.835,0.8163,0.8063,0.7969,0.7983,0.8151,0.851,0.8724,0.8831,0.8964,0.9108,0.9118,0.8712,0.8426,0.8335,0.841,0.8441,0.8441,0.8618,0.8642,0.8712,0.8897,0.9106,0.9442,0.9798,1.0135,1.0485,1.0934,1.1584,1.2274,1.2814,1.3579,1.4258,1.4497,1.4418,1.4326,1.4326,1.4517,1.4412,1.3649,1.3571,1.3848,1.4215,1.4644,1.512,1.5689,1.6745,1.7217,1.6673,1.7079,1.756,1.7969,1.8452,1.8865,1.9075,1.9075,1.9715,2.106,2.0288,2.0255,2.1001,2.0053,1.9252,1.8545,1.9619,2.016,1.8761,1.8827,1.8785,1.863,1.8647,1.8695,1.8639,1.8461,1.8334,1.8466,1.8338,1.8315,1.8633,1.9034,1.9539,2.0172,2.039,2.0553,0.0,2.0243,1.9626,1.9014,1.9042,1.887,1.8257,1.7717,1.6936,1.5708,1.5675,1.5511,1.5054,1.566,1.5789,1.5186,1.5259,1.512,1.4726,1.3584,1.2949,1.2758,1.0967,1.0012,0.9865,0.9106,0.8751,0.8644,0.8457,0.8317,0.821,0.8123,0.8203,0.8383,0.849,0.8644,0.8831,0.9227,0.9486,0.9626,0.8941,0.8664,0.8608,0.8632,0.8543,0.8486,0.8707,0.8802,0.8965,0.9267,0.9597,0.9917,1.0328,1.0753,1.1112,1.1517,1.2223,1.2833,1.2837,1.3699,1.4387,1.3965,1.4037,1.413,1.413,1.4246,1.4109,1.3467,1.3561,1.3855,1.4221,1.4901,1.5503,1.6211,1.7437,1.7978,1.756,1.7842,1.8182,1.8385,1.8865,1.9075,1.9075,1.9075,1.9575,2.0482,1.9728,1.9476,1.9806,1.9122,1.8416,1.7744,1.8369,1.8954]},{"header":{"parameterUnit":"m.s-1","parameterCategory":1,"la1":30.6,"la2":29.2853,"lo1":-89.7004,"lo2":-87.6739,"dy":0.0162,"dx":0.0183,"nx":112,"ny":82,"refTime":"2023-08-30T06:00:00:Z","depth":0,"parameterNumber":3,"parameterNumberName":"V-component_of_WINDS"},"data":[0.0,0.0,0.0,0.0,0.0,0.0,0.0,0.0,0.0,0.0,0.0,0.0,0.0,0.0,0.0,0.0,0.0,0.0,0.0,0.0,0.0,0.0,0.0,0.0,0.0,0.0,0.0,0.0,0.0,0.0,0.0,0.0,0.0,0.0,0.0,0.0,0.0,0.0,0.0,0.0,0.0,0.0,0.0,0.0,0.0,0.0,0.0,0.0,0.0,0.0,0.0,0.0,0.0,0.0,0.0,0.0,0.0,0.0,0.0,0.0,0.0,0.0,0.0,0.0,0.0,0.0,0.0,0.0,0.0,0.0,0.0,0.0,0.0,0.0,0.0,0.0,0.0,0.0,0.0,0.0,0.0,0.0,0.0,0.0,0.0,0.0,0.0,0.0,0.0,0.0,2.5387,2.3762,1.3677,0.3898,-0.3991,-1.3289,-2.0352,-2.4252,0.0,0.0,0.0,0.0,0.0,0.0,0.0,0.0,0.0,0.0,0.0,0.0,0.0,0.0,0.0,0.0,0.0,0.0,0.0,0.0,0.0,0.0,0.0,0.0,0.0,0.0,0.0,0.0,0.0,0.0,0.0,0.0,0.0,0.0,0.0,0.0,0.0,0.0,0.0,0.0,0.0,0.0,0.0,0.0,0.0,0.0,0.0,0.0,0.0,0.0,0.0,0.0,0.0,0.0,0.0,0.0,0.0,0.0,0.0,0.0,0.0,0.0,0.0,0.0,0.0,0.0,0.0,0.0,0.0,0.0,0.0,0.0,0.0,0.0,0.0,0.0,0.0,0.0,0.0,0.0,0.0,0.0,0.0,0.0,0.0,0.0,0.0,0.0,0.0,0.0,0.0,0.0,0.0,0.0,0.0,0.0,0.0,0.0,0.0,0.0,0.0,0.0,0.0,0.0,2.4652,2.2431,0.7731,-0.2846,-0.5164,-1.7993,-2.5772,-2.5411,0.0,0.0,0.0,0.0,0.0,0.0,0.0,0.0,0.0,0.0,0.0,0.0,0.0,0.0,0.0,0.0,0.0,0.0,0.0,0.0,0.0,0.0,0.0,0.0,0.0,0.0,0.0,0.0,0.0,0.0,0.0,0.0,0.0,0.0,0.0,0.0,0.0,0.0,0.0,0.0,0.0,0.0,0.0,0.0,0.0,0.0,0.0,0.0,0.0,0.0,0.0,0.0,0.0,0.0,0.0,0.0,0.0,0.0,0.0,0.0,0.0,0.0,0.0,0.0,0.0,0.0,0.0,0.0,0.0,0.0,0.0,0.0,0.0,0.0,0.0,0.0,0.0,0.0,0.0,0.0,0.0,0.0,0.0,0.0,0.0,0.0,0.0,0.0,0.0,0.0,0.0,0.0,0.0,0.0,0.0,0.0,0.0,0.0,0.0,0.0,0.0,0.0,0.0,2.4262,2.2917,2.1405,0.9485,-0.0355,-0.5245,-1.582,-2.316,-2.5473,-2.4217,0.0,0.0,0.0,0.0,0.0,0.0,0.0,0.0,0.0,0.0,0.0,0.0,0.0,0.0,0.0,0.0,0.0,0.0,0.0,0.0,0.0,0.0,0.0,0.0,0.0,0.0,0.0,0.0,0.0,0.0,0.0,0.0,0.0,0.0,0.0,0.0,0.0,0.0,0.0,0.0,0.0,0.0,0.0,0.0,0.0,0.0,0.0,0.0,0.0,0.0,0.0,0.0,0.0,0.0,0.0,0.0,0.0,0.0,0.0,0.0,0.0,0.0,0.0,0.0,0.0,0.0,0.0,0.0,0.0,0.0,0.0,0.0,0.0,0.0,0.0,0.0,0.0,0.0,0.0,0.0,0.0,0.0,0.0,0.0,0.0,0.0,0.0,0.0,0.0,0.0,0.0,0.0,0.0,0.0,0.0,0.0,0.0,0.0,0.0,0.0,0.0,0.0,2.3323,2.1135,2.0508,1.0492,0.115,-0.554,-1.4326,-2.1223,-2.5323,-2.4515,0.0,0.0,0.0,0.0,0.0,0.0,0.0,0.0,0.0,0.0,0.0,0.0,0.0,0.0,0.0,0.0,0.0,0.0,0.0,0.0,0.0,0.0,0.0,0.0,0.0,0.0,0.0,0.0,0.0,0.0,0.0,0.0,0.0,0.0,0.0,0.0,0.0,0.0,0.0,0.0,0.0,0.0,0.0,0.0,0.0,0.0,0.0,0.0,0.0,0.0,0.0,0.0,0.0,0.0,0.0,0.0,0.0,0.0,0.0,0.0,0.0,0.0,0.0,0.0,0.0,0.0,0.0,0.0,0.0,0.0,0.0,0.0,0.0,0.0,0.0,0.0,0.0,0.0,0.0,0.0,0.0,0.0,0.0,0.0,0.0,0.0,0.0,0.0,0.0,0.0,0.0,0.0,0.0,0.0,0.0,0.0,0.0,0.0,0.0,0.0,0.0,0.0,2.2139,1.981,1.9692,0.5904,-0.4305,-0.6811,-1.793,-2.4975,-2.5482,-2.3859,0.0,0.0,0.0,0.0,0.0,0.0,0.0,0.0,0.0,0.0,0.0,0.0,0.0,0.0,0.0,0.0,0.0,0.0,0.0,0.0,0.0,0.0,0.0,0.0,0.0,0.0,0.0,0.0,0.0,0.0,0.0,0.0,0.0,0.0,0.0,0.0,0.0,0.0,0.0,0.0,0.0,0.0,0.0,0.0,0.0,0.0,0.0,0.0,0.0,0.0,0.0,0.0,0.0,0.0,0.0,0.0,0.0,0.0,0.0,0.0,0.0,0.0,0.0,0.0,0.0,0.0,0.0,0.0,0.0,0.0,0.0,0.0,0.0,0.0,0.0,0.0,0.0,0.0,0.0,0.0,0.0,0.0,0.0,0.0,0.0,0.0,0.0,0.0,0.0,0.0,0.0,0.0,0.0,0.0,0.0,0.0,0.0,0.0,0.0,0.0,0.0,0.0,2.1096,1.8641,1.8154,0.7837,-0.1271,-0.6888,-1.486,-2.1152,-2.4895,0.0,0.0,0.0,0.0,0.0,0.0,0.0,0.0,0.0,0.0,0.0,0.0,0.0,0.0,0.0,0.0,0.0,0.0,0.0,0.0,0.0,0.0,0.0,0.0,0.0,0.0,0.0,0.0,0.0,0.0,0.0,0.0,0.0,0.0,0.0,0.0,0.0,0.0,0.0,0.0,0.0,0.0,0.0,0.0,0.0,0.0,0.0,0.0,0.0,0.0,0.0,0.0,0.0,0.0,0.0,0.0,0.0,0.0,0.0,0.0,0.0,0.0,0.0,0.0,0.0,0.0,0.0,0.0,0.0,0.0,0.0,0.0,0.0,0.0,0.0,0.0,0.0,0.0,0.0,0.0,0.0,0.0,0.0,0.0,0.0,0.0,0.0,0.0,0.0,0.0,0.0,0.0,0.0,0.0,0.0,0.0,0.0,0.0,0.0,0.0,0.0,0.0,2.3304,2.0298,1.7743,1.6781,0.77,-0.0734,-0.6841,-1.4092,-2.0102,-2.4328,0.0,0.0,0.0,0.0,0.0,0.0,0.0,0.0,0.0,0.0,0.0,0.0,0.0,0.0,0.0,0.0,0.0,0.0,0.0,0.0,0.0,0.0,0.0,0.0,0.0,0.0,0.0,0.0,0.0,0.0,0.0,0.0,0.0,0.0,0.0,0.0,0.0,0.0,0.0,0.0,0.0,0.0,0.0,0.0,0.0,0.0,0.0,0.0,0.0,0.0,0.0,0.0,0.0,0.0,0.0,0.0,0.0,0.0,0.0,0.0,0.0,0.0,0.0,0.0,0.0,0.0,0.0,0.0,0.0,0.0,0.0,0.0,0.0,0.0,0.0,0.0,0.0,0.0,0.0,0.0,0.0,0.0,0.0,0.0,0.0,0.0,0.0,0.0,0.0,0.0,0.0,0.0,0.0,0.0,0.0,0.0,0.0,0.0,0.0,0.0,0.0,0.0,2.2539,1.9786,1.7208,1.5653,0.4351,-0.4149,-0.6767,-1.6915,-2.3335,0.0,0.0,0.0,0.0,0.0,0.0,0.0,0.0,0.0,0.0,0.0,0.0,0.0,0.0,0.0,0.0,0.0,0.0,0.0,0.0,0.0,0.0,0.0,0.0,0.0,0.0,0.0,0.0,0.0,0.0,0.0,0.0,0.0,0.0,0.0,0.0,0.0,0.0,0.0,0.0,0.0,0.0,0.0,0.0,0.0,0.0,0.0,0.0,0.0,0.0,0.0,0.0,0.0,0.0,0.0,0.0,0.0,0.0,0.0,0.0,0.0,0.0,0.0,0.0,0.0,0.0,0.0,0.0,0.0,0.0,0.0,0.0,0.0,0.0,0.0,0.0,0.0,0.0,0.0,0.0,0.0,0.0,0.0,0.0,0.0,0.0,0.0,0.0,0.0,0.0,0.0,0.0,0.0,0.0,0.0,0.0,0.0,0.0,0.0,0.0,0.0,0.0,0.0,2.2328,2.0125,1.7733,1.5581,0.4326,-0.4184,-0.7045,-1.7085,-2.3541,-2.4222,0.0,0.0,0.0,0.0,0.0,0.0,0.0,0.0,0.0,0.0,0.0,0.0,0.0,0.0,0.0,0.0,0.0,0.0,0.0,0.0,0.0,0.0,0.0,0.0,0.0,0.0,0.0,0.0,0.0,0.0,0.0,0.0,0.0,0.0,0.0,0.0,0.0,0.0,0.0,0.0,0.0,0.0,0.0,0.0,0.0,0.0,0.0,0.0,0.0,0.0,0.0,0.0,0.0,0.0,0.0,0.0,0.0,0.0,0.0,0.0,0.0,0.0,0.0,0.0,0.0,0.0,0.0,0.0,0.0,0.0,0.0,0.0,0.0,0.0,0.0,0.0,0.0,0.0,0.0,0.0,0.0,0.0,0.0,0.0,0.0,0.0,0.0,0.0,0.0,0.0,0.0,0.0,0.0,0.0,0.0,0.0,0.0,0.0,0.0,0.0,0.0,0.0,2.1816,1.9624,1.728,1.5099,0.396,-0.4299,-0.6738,-1.6992,-2.3472,-2.4005,0.0,0.0,0.0,0.0,0.0,0.0,0.0,0.0,0.0,0.0,0.0,0.0,0.0,0.0,0.0,0.0,0.0,0.0,0.0,0.0,0.0,0.0,0.0,0.0,0.0,0.0,0.0,0.0,0.0,0.0,0.0,0.0,0.0,0.0,0.0,0.0,0.0,0.0,0.0,0.0,0.0,0.0,0.0,0.0,0.0,0.0,0.0,0.0,0.0,0.0,0.0,0.0,0.0,0.0,0.0,0.0,0.0,0.0,0.0,0.0,0.0,0.0,0.0,0.0,0.0,0.0,0.0,0.0,0.0,0.0,0.0,0.0,0.0,0.0,0.0,0.0,0.0,0.0,0.0,0.0,0.0,0.0,0.0,0.0,0.0,0.0,0.0,0.0,0.0,0.0,0.0,0.0,0.0,0.0,0.0,0.0,0.0,0.0,0.0,0.0,0.0,0.0,2.1206,1.8808,1.6459,1.4487,0.3574,-0.4271,-0.6018,-1.6565,-2.3177,-2.3462,0.0,0.0,0.0,0.0,0.0,0.0,0.0,0.0,0.0,0.0,0.0,0.0,0.0,0.0,0.0,0.0,0.0,0.0,0.0,0.0,0.0,0.0,0.0,0.0,0.0,0.0,0.0,0.0,0.0,0.0,0.0,0.0,0.0,0.0,0.0,0.0,0.0,0.0,0.0,0.0,0.0,0.0,0.0,0.0,0.0,0.0,0.0,0.0,0.0,0.0,0.0,0.0,0.0,0.0,0.0,0.0,0.0,0.0,0.0,0.0,2.857,2.7865,0.0,0.0,0.0,0.0,0.0,0.0,0.0,0.0,0.0,0.0,0.0,0.0,0.0,0.0,0.0,0.0,0.0,0.0,0.0,0.0,0.0,0.0,0.0,0.0,0.0,0.0,0.0,0.0,0.0,0.0,0.0,0.0,0.0,0.0,0.0,0.0,0.0,0.0,0.0,0.0,2.1462,2.0172,1.8245,1.5168,0.4884,-0.2641,-0.485,-1.5518,-2.2486,-2.337,-2.2852,0.0,0.0,0.0,0.0,0.0,0.0,0.0,0.0,0.0,0.0,0.0,0.0,0.0,0.0,0.0,0.0,0.0,0.0,0.0,0.0,0.0,0.0,0.0,0.0,0.0,0.0,0.0,0.0,0.0,0.0,0.0,0.0,0.0,0.0,0.0,0.0,0.0,0.0,0.0,0.0,0.0,0.0,0.0,0.0,0.0,0.0,0.0,0.0,0.0,0.0,0.0,0.0,0.0,0.0,0.0,0.0,0.0,0.0,0.0,2.8526,2.8089,0.0,0.0,0.0,0.0,0.0,0.0,0.0,0.0,0.0,0.0,0.0,0.0,0.0,0.0,0.0,0.0,0.0,0.0,0.0,0.0,0.0,0.0,0.0,0.0,0.0,0.0,0.0,0.0,0.0,0.0,0.0,0.0,0.0,0.0,0.0,0.0,0.0,0.0,0.0,0.0,2.1532,1.9911,1.7936,1.5272,0.5139,-0.2297,-0.4387,-1.4792,-2.1586,-2.2486,-2.2715,0.0,0.0,0.0,0.0,0.0,0.0,0.0,0.0,0.0,0.0,0.0,0.0,0.0,0.0,0.0,0.0,0.0,0.0,0.0,0.0,0.0,0.0,0.0,0.0,0.0,0.0,0.0,0.0,0.0,0.0,0.0,0.0,0.0,0.0,0.0,0.0,0.0,0.0,0.0,0.0,0.0,0.0,0.0,0.0,0.0,0.0,0.0,0.0,0.0,0.0,0.0,0.0,0.0,3.1769,3.1831,3.191,3.038,2.9438,2.897,2.8379,2.825,2.8298,2.6792,0.0,0.0,0.0,0.0,0.0,0.0,0.0,0.0,0.0,0.0,0.0,0.0,0.0,0.0,0.0,0.0,0.0,0.0,0.0,0.0,0.0,0.0,2.9246,2.8174,2.8217,2.7946,2.5999,0.0,0.0,0.0,0.0,0.0,0.0,0.0,0.0,0.0,0.0,0.0,2.1666,1.942,1.7256,1.5347,0.5081,-0.2219,-0.378,-1.4004,-2.0649,-2.1365,-2.2642,-2.2997,0.0,0.0,0.0,0.0,0.0,0.0,0.0,0.0,0.0,0.0,0.0,0.0,0.0,0.0,0.0,0.0,0.0,0.0,0.0,0.0,0.0,0.0,0.0,0.0,0.0,0.0,0.0,0.0,0.0,0.0,0.0,0.0,2.9692,3.0339,0.0,0.0,0.0,0.0,0.0,0.0,0.0,0.0,0.0,0.0,0.0,0.0,0.0,2.8849,2.9478,2.9828,3.0438,3.1254,3.1383,3.1067,3.0507,2.9808,2.9096,2.8572,2.8464,0.0,2.6505,2.5426,0.0,0.0,0.0,0.0,0.0,0.0,0.0,0.0,0.0,0.0,0.0,0.0,0.0,0.0,0.0,0.0,0.0,0.0,0.0,0.0,0.0,0.0,2.9454,2.7504,2.7357,2.7334,2.6122,2.6654,2.7417,2.7577,2.7856,2.7919,0.0,0.0,0.0,0.0,0.0,0.0,2.234,2.0335,1.8258,1.5862,0.5546,-0.1403,-0.1923,-1.2614,-1.9722,-2.067,-2.1826,-2.2761,-2.3412,-2.1805,0.0,0.0,0.0,0.0,0.0,0.0,0.0,0.0,0.0,0.0,0.0,0.0,0.0,0.0,0.0,0.0,0.0,0.0,0.0,0.0,0.0,0.0,0.0,0.0,0.0,0.0,0.0,0.0,0.0,2.8893,3.0668,3.048,2.9136,2.7971,0.0,0.0,0.0,0.0,0.0,0.0,0.0,0.0,0.0,3.1061,3.0672,3.0324,3.0108,3.0769,3.094,3.0542,3.0724,3.0725,3.0683,2.9427,2.87,2.8399,2.8176,2.768,2.698,2.6464,2.6089,2.5817,0.0,0.0,0.0,0.0,2.6475,2.7041,2.6534,2.6592,2.6796,2.6422,0.0,0.0,0.0,0.0,0.0,0.0,0.0,2.9995,2.8119,2.8693,2.9373,2.7936,2.7527,2.7524,2.7636,2.7636,2.7616,2.7688,2.8581,2.9219,2.8898,2.8722,0.0,0.0,0.0,2.4774,2.2486,2.036,1.8274,1.6203,0.8325,0.2007,-0.1018,-0.8883,-1.4965,-1.8057,-1.931,-1.9912,-1.9885,-1.8581,-1.7116,0.0,0.0,0.0,0.0,0.0,0.0,0.0,0.0,0.0,0.0,0.0,0.0,0.0,0.0,0.0,0.0,0.0,0.0,0.0,0.0,0.0,0.0,0.0,0.0,0.0,0.0,0.0,0.0,3.0553,3.1623,3.0698,3.0259,2.9528,0.0,0.0,0.0,0.0,0.0,0.0,3.0657,3.0421,3.0773,3.1936,3.2097,3.1792,3.0973,3.1562,3.1358,3.0377,3.0336,3.0408,3.0628,2.9245,2.856,2.8394,2.8218,2.8183,2.811,2.7705,2.7604,2.7693,2.6905,2.6676,2.6672,2.67,2.6942,2.7187,2.6999,2.6817,2.6565,2.6153,2.6204,2.6379,2.6426,0.0,0.0,0.0,0.0,2.9549,2.8118,2.8127,2.8356,2.7763,2.7114,2.6919,2.7905,2.7636,2.729,2.7606,2.8793,2.9622,2.9232,2.8965,0.0,2.7825,2.6266,2.4509,2.2623,2.0223,1.8053,1.6396,1.0559,0.5204,0.1335,-0.4063,-0.896,-1.2959,-1.4425,-1.5012,-1.4748,-1.4009,-1.2902,-1.1416,0.0,0.0,0.0,0.0,0.0,0.0,0.0,0.0,0.0,0.0,0.0,0.0,0.0,0.0,0.0,0.0,0.0,0.0,0.0,0.0,0.0,0.0,0.0,0.0,0.0,0.0,0.0,0.0,0.0,3.2118,3.1831,0.0,0.0,0.0,0.0,2.9706,3.0333,3.1285,3.2579,3.2163,3.236,3.3484,3.3084,3.2572,3.1947,3.1325,3.1088,3.1248,3.0625,3.0031,2.9457,2.9387,2.9002,2.8414,2.91,2.9411,2.9292,2.8235,2.7506,2.7024,2.6568,2.6485,2.6695,2.74,2.8063,2.8596,2.8384,2.7877,2.7368,2.7509,2.7765,2.8336,3.0213,3.0178,0.0,0.0,2.9206,2.8885,2.6969,2.5988,2.5644,2.619,2.5281,2.4537,2.5545,2.5483,2.5697,2.7227,2.7805,2.777,2.7007,0.0,2.7522,2.6787,2.5937,2.4705,2.2824,2.0139,1.7868,1.6448,1.088,0.7046,0.6462,0.159,-0.2336,-0.4494,-0.617,-0.7596,-0.8765,-0.8418,-0.7417,-0.5738,-0.4073,0.0,0.0,0.0,0.0,0.0,0.0,0.0,0.0,0.0,0.0,0.0,0.0,0.0,0.0,0.0,0.0,0.0,0.0,0.0,0.0,0.0,0.0,0.0,0.0,0.0,0.0,0.0,0.0,3.4022,3.3427,0.0,3.1524,3.1772,3.1852,3.151,3.3141,3.4123,3.4077,3.4376,3.4635,3.4895,3.4909,3.4364,3.3148,3.2566,3.1905,3.1084,2.9924,2.9253,2.8975,2.7871,2.7455,2.7664,2.8082,2.8741,2.9464,2.9868,2.9889,2.9738,2.9849,2.9914,2.9919,2.9478,2.9355,2.9163,2.8149,2.7596,2.7272,2.7331,2.7139,2.7056,2.8421,2.8739,2.8649,2.8642,2.8505,2.7975,2.6293,2.5625,2.5211,2.4646,2.4494,2.4639,2.5227,2.536,2.546,2.569,2.6318,2.6832,2.6879,2.6873,2.6824,2.6689,2.5465,2.3959,2.223,1.9969,1.7877,1.6158,1.3364,1.0449,0.7614,0.5347,0.2494,-0.1259,-0.2297,-0.3004,-0.3555,-0.2564,-0.1621,-0.0732,0.1064,0.2505,0.0,0.0,0.0,0.0,0.0,0.0,0.0,0.0,0.0,0.0,0.0,0.0,0.0,0.0,0.0,0.0,0.0,0.0,0.0,0.0,0.0,0.0,0.0,0.0,0.0,3.5642,3.6375,3.5548,3.5669,3.5186,3.3701,3.4083,3.4261,3.3729,3.5122,3.5771,3.5161,3.5685,3.576,3.532,3.5489,3.4868,3.3525,3.2793,3.1815,3.0526,2.9354,2.8653,2.8372,2.7242,2.6949,2.7391,2.8076,2.8627,2.9219,3.0852,3.1136,3.069,3.1483,3.1601,3.1278,3.0547,3.0238,2.9982,2.8614,2.7853,2.7479,2.7501,2.7221,2.7077,2.7951,2.8244,2.8253,2.8106,2.7538,2.6681,2.5432,2.4885,2.4504,2.3964,2.3984,2.4336,2.498,2.5049,2.4908,2.4738,2.533,2.5954,2.6166,2.6075,2.6024,2.6236,2.4822,2.3234,2.1883,1.9716,1.7693,1.6139,1.4926,1.3086,1.0236,0.9794,0.8058,0.4261,0.386,0.3415,0.2653,0.3458,0.402,0.4207,0.5841,0.7047,0.7827,0.0,0.0,0.0,0.0,0.0,0.0,0.0,0.0,0.0,0.0,0.0,0.0,0.0,0.0,0.0,0.0,0.0,0.0,0.0,0.0,0.0,0.0,0.0,3.694,3.8385,3.8772,3.673,3.8416,3.8665,3.5979,3.649,3.6783,3.6267,3.6178,3.6088,3.5862,3.6055,3.5732,3.4884,3.4628,3.4004,3.2951,3.1867,3.08,2.9761,2.9111,2.8437,2.7729,2.7784,2.776,2.7843,2.9183,2.9383,2.8834,3.09,3.084,2.9569,3.1124,3.1268,3.0563,3.0307,3.0672,3.1118,2.9745,2.8669,2.7981,2.8085,2.8256,2.8544,2.9162,2.8982,2.8439,2.7735,2.6422,2.5102,2.441,2.3689,2.3309,2.4091,2.37,2.3478,2.4704,2.4413,2.4042,2.442,2.4893,2.5079,2.4768,2.4911,2.513,2.5329,2.3995,0.0,2.1735,1.9324,1.7355,1.6413,1.5355,1.4684,1.4563,1.4878,1.4251,1.2307,1.2405,1.1656,0.9681,0.9451,0.9269,0.9171,1.0213,1.1118,1.1898,0.0,0.0,0.0,0.0,0.0,0.0,0.0,0.0,0.0,0.0,0.0,0.0,0.0,0.0,0.0,0.0,0.0,0.0,0.0,0.0,0.0,3.8355,3.9354,3.8624,3.9365,4.0002,4.0203,4.0134,3.9627,3.8546,3.8472,3.7968,3.6662,3.7631,3.7779,3.6663,3.717,3.6878,3.5488,3.5415,3.4956,3.414,3.2717,3.1908,3.1629,2.9799,2.883,2.8622,2.7789,2.8015,2.8988,2.8942,2.9614,3.0777,3.1015,3.0747,3.0286,3.1253,3.1198,3.0561,3.0878,3.033,2.9324,2.8498,2.7738,2.7211,2.7619,2.7351,2.6978,2.7337,2.69,2.6279,2.6124,2.5359,2.4531,2.432,2.3981,2.3732,2.3967,2.4052,2.4211,2.4559,2.4552,2.4503,2.4617,2.4873,2.5017,2.4872,2.4541,2.4349,2.4502,2.3127,2.1522,2.0076,1.8681,1.7504,1.6604,1.5691,1.5368,1.5903,1.5164,1.443,1.3881,1.3584,1.3095,1.2302,1.249,1.2559,1.2396,1.3118,1.3776,0.0,0.0,0.0,0.0,0.0,0.0,0.0,0.0,0.0,0.0,0.0,0.0,0.0,0.0,0.0,0.0,0.0,0.0,0.0,0.0,0.0,0.0,4.0166,4.0915,4.0081,4.0517,4.103,4.1363,4.0578,3.9747,3.9204,3.8632,3.7975,3.699,3.7731,3.769,3.6478,3.6872,3.6615,3.5344,3.5314,3.5007,3.4424,3.3422,3.2517,3.1709,3.0424,2.9466,2.882,2.8091,2.8216,2.8976,2.8873,2.9278,3.007,3.0385,3.0075,2.9537,0.0,0.0,0.0,0.0,2.942,2.7707,2.7719,2.7009,2.6217,2.6623,2.6534,2.6294,2.6523,2.6087,2.552,2.5565,2.5009,2.4375,2.4375,2.4275,2.4155,2.4192,2.4092,2.4014,2.4125,2.3964,2.3782,2.3847,2.4266,0.0,2.4138,2.4044,2.408,2.4213,2.25,2.0716,1.9413,1.8158,1.7066,1.619,1.5586,1.555,1.6261,1.5665,0.0,0.0,0.0,1.5118,1.48,1.503,0.0,0.0,0.0,1.5917,1.6261,1.8113,0.0,0.0,2.0428,2.1637,0.0,0.0,0.0,0.0,0.0,0.0,0.0,0.0,0.0,0.0,0.0,0.0,0.0,0.0,0.0,0.0,4.1474,4.2192,4.1474,4.1776,4.1809,4.1028,4.0121,3.9334,3.8756,3.7825,3.7288,3.7342,3.7108,3.6661,3.5968,3.6025,0.0,0.0,0.0,3.4613,3.4225,3.3805,3.2711,3.0943,3.0882,3.0099,2.8723,2.8573,2.8548,2.8608,2.8981,2.879,2.8289,2.9426,2.916,2.8159,2.9708,2.9989,2.9522,2.9677,2.8398,2.6658,2.7296,0.0,0.0,2.5683,2.594,2.6173,2.6289,2.5987,2.5573,2.559,2.501,2.4391,2.4391,2.4391,2.4423,2.4489,2.4013,2.3583,2.3847,2.3324,2.2849,2.2988,2.3685,2.3995,2.3197,2.3562,2.3959,2.401,2.1926,2.0057,1.9251,1.7715,1.6405,1.5625,1.5342,0.0,1.6202,1.6237,1.6355,1.6676,1.7213,1.7404,1.7139,1.7196,1.7111,1.6933,1.7424,1.7692,1.7813,1.8834,1.9413,1.962,2.196,2.2993,0.0,0.0,0.0,0.0,0.0,0.0,0.0,0.0,0.0,0.0,0.0,0.0,0.0,0.0,0.0,4.2013,4.3194,4.3923,4.3755,4.2683,4.1564,4.0619,3.9511,3.8899,3.9138,3.7884,3.7366,3.8103,3.7276,3.6971,3.7461,3.6906,3.6213,3.538,3.5361,3.5027,3.4381,3.3015,3.2182,3.1827,3.0482,0.0,2.9418,2.9379,2.9714,3.0271,2.9686,2.9699,3.0101,2.9389,2.8947,2.8753,2.914,2.9629,3.0011,2.905,2.8536,2.8195,2.7266,2.6783,2.6591,2.669,2.6302,2.582,2.5963,2.5435,0.0,2.4885,2.4267,2.3611,2.3611,2.3733,2.3877,2.3948,2.4445,2.493,2.5053,2.4947,2.485,2.4868,2.5073,2.4958,2.4101,2.3494,2.2914,2.2299,2.0633,1.9142,1.8283,1.7301,1.664,1.6463,1.5743,1.582,1.7125,1.6363,1.6389,1.7706,1.8562,1.9055,1.914,1.9095,1.8891,1.846,1.8943,1.9141,1.903,2.0235,2.095,2.1245,2.2107,2.2527,0.0,0.0,0.0,0.0,0.0,0.0,0.0,0.0,0.0,0.0,0.0,4.0283,4.1182,0.0,4.2614,4.3436,4.4037,4.4252,4.3866,4.2693,4.1707,4.1225,3.9559,3.8719,3.9353,3.7933,3.7507,3.8766,3.7545,3.692,3.7337,3.6714,3.5979,3.5192,3.5342,3.5267,3.4905,3.4139,3.3337,3.2488,3.1695,3.0807,2.9902,2.9832,3.0009,3.0316,2.9776,2.9776,3.0114,2.949,2.9204,2.9159,2.9255,2.9539,2.9759,2.9145,2.847,2.7805,2.7139,2.6394,2.5774,2.5871,2.5622,2.5333,2.5504,2.5248,2.4812,2.4461,2.4037,2.36,2.321,2.3171,2.3254,2.3294,2.3669,2.407,2.4086,2.4119,2.4142,2.4142,2.4205,2.4102,2.3674,2.2871,2.2161,2.1803,1.9943,1.8443,1.8012,1.6849,1.6049,1.6059,1.5579,1.5829,1.7284,1.7422,1.7913,1.8977,1.9481,1.9957,2.0426,2.034,2.0187,1.9963,2.0187,2.027,2.02,2.0795,2.1153,2.1318,2.2117,2.2514,0.0,0.0,0.0,0.0,0.0,0.0,0.0,3.9788,4.0799,4.2611,4.276,4.2939,4.4128,4.4046,4.3962,4.4485,4.4606,4.443,4.378,4.2943,4.2337,4.2167,3.9854,3.8549,3.9183,3.7962,3.7702,3.91,3.7868,3.7046,3.7043,3.6481,3.5778,3.4959,3.5254,3.5418,3.5418,3.5309,3.4557,3.3173,3.3076,3.2135,3.0522,3.04,3.0232,3.0009,2.9845,2.9782,2.9765,2.9765,2.9695,2.9623,2.9712,2.9695,2.9549,2.9176,2.8125,2.6881,2.6728,2.5838,2.4766,2.4872,2.4956,2.5024,2.5187,2.525,2.5069,2.4255,2.3918,2.3601,2.2778,2.2574,2.2562,2.2578,2.2701,2.2871,2.304,2.3134,2.3209,2.339,2.3461,2.3404,2.3074,2.2588,2.2123,2.1831,1.9758,1.8228,1.8232,1.6863,1.5877,1.5866,1.5769,1.6202,1.7413,1.8661,1.9621,2.0199,2.0374,2.0805,2.1556,2.1411,2.1274,2.1228,2.129,2.1275,2.1181,2.1305,2.1336,2.1275,2.2205,2.2639,3.1597,3.3456,3.6131,3.7638,3.9358,4.1525,0.0,4.5352,4.566,4.6959,4.7365,4.7127,4.5827,4.5799,4.5773,4.5204,4.5323,4.5454,4.543,4.4669,4.3863,4.3134,4.0233,3.8296,3.8338,3.7848,3.7907,3.8804,3.8287,3.794,3.7945,3.7165,3.6311,3.5445,3.547,3.5483,3.5483,3.4781,3.4331,3.4127,3.3422,3.2568,3.1611,3.1611,3.1176,3.0423,3.0404,3.0362,3.0317,3.0317,3.0298,3.0287,3.0298,3.0298,3.0059,2.828,2.7176,2.6443,2.5748,2.5417,2.5313,2.5322,2.5339,2.5346,2.5382,2.5376,2.5205,2.4324,2.3581,2.282,2.1953,2.1725,2.1748,2.1804,2.2378,2.3126,2.3947,2.4136,2.4378,2.5141,2.5295,2.4837,2.3354,2.3652,2.3574,2.2028,2.025,1.9063,1.907,1.8217,1.7602,1.7548,1.7519,1.7727,1.8226,1.933,2.0292,2.1021,2.1507,2.2124,2.2944,2.2678,2.2344,2.1967,2.2347,2.2265,2.1799,2.2398,2.2652,2.26,2.2712,2.2818,3.4871,3.6339,3.8023,4.0258,4.2231,4.4195,4.6308,4.7118,4.7706,4.8619,4.8401,4.7766,4.6999,4.6378,4.5918,4.5596,4.5641,4.5742,4.5738,4.5009,4.4331,4.4008,4.2333,4.0796,3.9756,3.9042,3.8989,3.9792,3.8749,3.8105,3.8112,3.7313,3.6466,3.5635,3.5639,3.5689,3.5736,3.5394,3.4695,3.3658,3.3361,3.246,3.1099,3.1103,3.0882,3.0502,3.0496,3.0481,3.0472,3.0472,3.0433,3.0402,3.0433,3.0144,2.9651,2.9271,2.8379,2.7268,2.693,2.6193,2.541,2.541,2.5398,2.5394,2.5394,2.5052,2.4477,2.3682,2.2848,2.202,2.1182,2.0949,2.0973,2.0997,2.1643,2.2516,2.341,2.3971,2.4569,2.5439,2.519,2.4784,2.4589,2.4042,2.3397,2.2664,2.1074,1.9795,1.9327,1.851,1.7926,1.7815,1.808,1.8345,1.8553,1.9121,1.9812,2.068,2.1149,2.1759,2.2521,2.284,2.2905,2.2737,2.2915,2.2865,2.2609,2.288,2.2972,2.2923,2.2958,2.3047,3.6996,3.8143,3.9147,4.1801,4.3681,4.519,4.6505,4.7555,4.8471,4.9289,4.887,4.8251,4.7908,4.6941,4.6116,4.5917,4.5878,4.5878,4.591,4.5375,4.4889,4.4647,4.4102,4.3158,4.1663,4.0704,4.0206,4.0319,3.9441,3.8694,3.8244,3.7657,3.6851,3.5784,3.5807,3.5845,3.5898,3.5905,3.5243,3.3932,3.3775,3.2869,3.1352,3.087,3.0625,3.0581,3.0581,3.0579,3.0571,3.0571,3.0554,3.0509,3.0563,3.0056,2.9377,3.0217,2.9279,2.7563,2.7331,2.6468,2.5459,2.5459,2.5465,2.5432,2.5199,2.4674,2.398,2.2955,2.22,2.1543,2.0708,2.05,2.05,2.05,2.0974,2.1684,2.2541,2.3194,2.3942,2.5058,2.4765,2.4527,2.516,2.4443,2.3623,2.3163,2.2036,2.0839,1.9762,1.9068,1.8617,1.8526,1.8792,1.9011,1.9056,1.9165,1.9601,2.047,2.0806,2.1399,2.2365,2.2815,2.316,2.3328,2.3323,2.33,2.3236,2.3323,2.3351,2.3374,2.3364,2.3477,3.6749,3.8042,3.9199,4.1684,4.2947,4.3995,4.5662,4.7012,4.8186,4.9107,4.9537,4.9476,4.8632,4.7756,4.6911,4.622,4.6041,4.6041,4.6176,4.6177,4.5832,4.4986,4.487,4.4512,4.3681,4.2695,4.1416,3.9766,4.0434,4.0208,3.8572,3.8455,3.7675,3.5942,3.5908,3.5908,3.5908,3.5895,3.5864,3.5806,3.5028,3.4195,3.3258,3.156,3.0791,3.0794,3.0794,3.0782,3.0794,3.0794,3.0794,3.0794,3.0794,3.0249,2.9606,3.0463,2.9099,2.6718,2.5931,2.5639,2.5598,2.5598,2.5632,2.5531,2.469,2.4405,2.4022,2.2316,2.1825,2.1608,2.0737,2.05,2.05,2.05,2.0525,2.0774,2.1651,2.1855,2.2383,2.4102,2.4417,2.4417,2.4436,2.5044,2.4966,2.3347,2.3057,2.2405,2.0683,2.039,2.0332,2.0313,2.0109,1.9953,1.996,1.9858,2.0101,2.0838,2.0899,2.1581,2.3097,2.2887,2.3004,2.3674,2.361,2.3588,2.3588,2.3855,2.4075,2.4266,2.4135,2.4174,3.7896,3.9446,4.1152,4.383,4.4225,4.4457,4.635,4.6681,4.6993,4.8472,4.7543,4.6578,4.6863,4.6274,4.566,4.5416,4.5796,4.6153,4.6253,4.6184,4.6054,4.5848,4.5798,4.5429,4.457,4.3139,4.2262,4.2245,4.1482,4.0748,4.0196,3.9608,3.8768,3.76,3.7033,3.6762,3.6769,3.6184,3.5622,3.5097,3.3652,3.2812,3.25,3.1328,3.0801,3.08,3.08,3.0798,3.0792,3.0792,3.0769,3.0743,3.079,3.0265,2.9541,2.9835,2.8665,2.7041,2.7908,2.7846,2.7295,2.671,2.6147,2.5547,2.4658,2.3587,2.2555,2.1971,2.1386,2.0878,2.0585,2.0507,2.0507,2.0507,2.0508,2.0741,2.1617,2.1803,2.214,2.3306,2.3969,2.4326,2.4336,2.504,2.5236,2.4124,2.2978,2.1835,2.0701,2.0519,2.0445,2.041,2.0248,2.0131,2.0135,1.9928,1.9934,2.0285,2.0715,2.1467,2.2557,2.2974,2.3563,2.4402,2.4371,2.4318,2.4263,2.4353,2.4442,2.4493,2.4407,2.4441,3.9403,4.0684,4.1891,4.4269,4.4121,4.3753,4.5075,4.5625,4.6199,4.7373,4.6334,4.5403,4.6014,4.5497,4.4957,4.4956,4.5429,4.5879,4.619,4.5915,4.5829,4.6211,4.6225,4.5983,4.5421,4.4069,4.3333,4.3612,4.2304,4.1367,4.1055,4.0215,3.9062,3.7597,3.7324,3.6758,3.5859,3.5898,3.5505,3.4656,3.3211,3.2526,3.2502,3.1955,3.1526,3.1235,3.1239,3.1068,3.0798,3.08,3.0762,3.0703,3.0449,2.9824,2.9062,2.9062,2.8181,2.7126,2.8196,2.8039,2.7205,2.6345,2.5681,2.5018,2.3828,2.2695,2.1737,2.142,2.0928,2.0497,2.0497,2.05,2.0501,2.0498,2.0497,2.0648,2.1218,2.1347,2.1682,2.2838,2.349,2.4029,2.4655,2.5232,2.5221,2.4076,2.323,2.2324,2.1207,2.1273,2.1288,2.0932,2.1083,2.1069,2.072,2.0545,2.0337,2.0098,2.0771,2.154,2.2344,2.3113,2.3898,2.4785,2.4764,2.47,2.4648,2.4636,2.4651,2.4716,2.4651,2.4666,4.0969,4.1556,4.1422,4.3015,4.2693,4.2009,4.207,4.3914,4.5651,4.5823,4.5799,4.578,4.5952,4.5399,4.4876,4.4835,4.4997,4.5349,4.601,4.5434,4.5265,4.6104,4.6183,4.6195,4.62,4.545,4.4629,4.3888,4.2976,4.2097,4.1275,4.0398,3.8778,3.6261,3.6886,3.6085,3.3608,3.5149,3.5474,3.458,3.3704,3.3321,3.3351,3.3312,3.2829,3.1995,3.1994,3.1535,3.0796,3.0751,3.0736,3.0658,2.9761,2.8941,2.8237,2.8277,2.7668,2.6843,2.6872,2.6382,2.559,2.4799,2.4503,2.4145,2.2447,2.1862,2.1626,2.0792,2.0553,2.0553,2.0514,2.0523,2.0568,2.0555,2.0567,2.0558,2.0565,2.0558,2.1022,2.2571,2.294,2.3517,2.5187,2.5543,2.5016,2.3315,2.3868,2.3854,2.2185,2.2621,2.2784,2.1954,2.2555,2.263,2.1675,2.1617,2.1234,2.0337,2.1058,2.1828,2.2563,2.3313,2.4062,2.4814,2.4818,2.4804,2.4727,2.4727,2.4785,2.4915,2.4847,2.4907,3.9668,4.0762,4.1702,4.2183,4.2127,4.1954,4.2074,4.2544,4.3177,4.3911,4.307,4.2416,4.3089,4.41,4.4616,4.3962,4.5423,4.6514,4.6153,4.5871,4.5811,4.6089,4.6131,4.6123,4.6137,4.5888,4.5628,4.5421,4.4051,4.3111,4.2896,4.205,4.0692,3.8734,3.8247,3.743,3.6164,3.5314,3.4763,3.4517,3.3641,3.3576,3.4158,3.3517,3.2785,3.2007,3.2,3.152,3.0689,3.0019,2.9801,2.9732,2.886,2.801,2.7339,2.7987,2.7242,2.6026,2.6621,2.7133,2.7396,2.654,2.5815,2.5088,2.3995,2.276,2.1682,2.1457,2.139,2.1258,2.0659,2.0932,2.1398,2.1394,2.139,2.1385,2.1381,2.1391,2.1323,2.1108,2.2074,2.3063,2.3515,2.4678,2.5176,2.414,2.4773,2.4738,2.3027,2.2964,2.3017,2.2786,2.2954,2.2682,2.174,2.1672,2.1571,2.1337,2.1488,2.2233,2.3705,2.3861,2.4328,2.5171,2.5126,2.5103,2.5153,2.5103,2.5084,2.5126,2.5111,2.513,4.0037,4.0853,4.1528,4.161,4.1555,4.1508,4.1696,4.2025,4.2444,4.3129,4.2233,4.15,4.2013,4.3545,4.4553,4.4055,4.551,4.6639,4.6589,4.592,4.558,4.6021,4.6054,4.591,4.5522,4.5803,4.5686,4.4958,4.4025,4.351,4.349,4.1956,4.0266,3.8557,3.8363,3.7916,3.712,3.4983,3.4481,3.5571,3.4329,3.4378,3.5514,3.4293,3.3266,3.2452,3.2108,3.1457,3.0591,2.9758,2.9428,2.9324,2.8079,2.7293,2.6875,2.7015,2.6187,2.5102,2.5939,2.6318,2.6374,2.5905,2.5414,2.4836,2.3976,2.3047,2.226,2.2228,2.2241,2.2125,2.1659,2.1917,2.2253,2.2222,2.1956,2.169,2.1704,2.1698,2.1654,2.152,2.2565,2.3229,2.2501,2.4089,2.5066,2.3898,2.4826,2.5305,2.4353,2.4238,2.4099,2.3701,2.4014,2.387,2.2968,2.2884,2.2718,2.229,2.2586,2.322,2.4197,2.4478,2.4838,2.5337,2.5274,2.5262,2.5311,2.5252,2.5222,2.5192,2.5201,2.5198,4.0783,4.1017,4.0844,4.096,4.0935,4.0862,4.092,4.1723,4.247,4.2571,4.2117,4.1764,4.1795,4.323,4.4455,4.4548,4.5462,4.6396,4.7075,4.5941,4.5267,4.5908,4.5889,4.552,4.4762,4.5267,4.5043,4.3568,4.3373,4.3296,4.3306,4.1053,3.8927,3.7122,3.7646,3.7549,3.6753,3.4492,3.4466,3.6638,3.5108,3.5213,3.669,3.5123,3.3914,3.3054,3.225,3.1396,3.0524,2.9601,2.9214,2.9059,2.731,2.6631,2.6553,2.5848,2.5072,2.4484,2.5233,2.4999,2.4377,2.4439,2.4342,2.4064,2.3366,2.3076,2.2972,2.2926,2.2977,2.3055,2.2919,2.3037,2.314,2.3081,2.2533,2.2023,2.2023,2.1862,2.194,2.2745,2.3519,2.3577,2.2107,2.3825,2.4892,2.3401,2.4535,2.5604,2.5676,2.5699,2.541,2.4648,2.5253,2.535,2.4461,2.4399,2.4057,2.3231,2.3879,2.4343,2.4475,2.5078,2.5413,2.5406,2.5348,2.5313,2.5292,2.5292,2.5273,2.5224,2.5224,2.5233,3.92,3.9301,3.9301,3.938,4.0001,4.0297,3.9226,4.0304,4.1207,4.0101,4.0389,4.0834,4.0844,4.2265,4.3645,4.4337,4.5819,4.695,4.7021,4.6886,4.6557,4.599,4.5324,4.487,4.4715,4.4124,4.3653,4.3363,4.2666,4.2284,4.2341,4.123,3.9472,3.7013,3.6413,3.5736,3.4884,3.4419,3.4409,3.4854,3.4494,3.4881,3.5878,3.4809,3.3881,3.3044,3.2193,3.1352,3.0472,2.8883,2.8288,2.8155,2.6417,2.5751,2.577,2.559,2.5402,2.5298,2.5456,2.5403,2.5279,2.5294,2.481,2.4164,2.4029,2.3487,2.2907,2.2907,2.3415,2.3806,2.3093,2.3434,2.3987,2.3983,2.3874,2.3777,2.377,2.2675,2.1933,2.275,2.3014,2.3025,2.2732,2.4199,2.5081,2.4122,2.4852,2.5523,2.5522,2.5625,2.5643,2.5488,2.5605,2.5351,2.4472,2.4394,2.4336,2.4178,2.4241,2.4615,2.533,2.543,2.5454,2.5403,2.5398,2.5367,2.5303,2.5303,2.5322,2.5374,2.5376,2.539,3.8681,3.864,3.8597,3.87,3.9398,3.9793,3.8861,3.9863,4.0729,3.9757,4.0089,4.0546,4.0546,4.1971,4.3269,4.3644,4.5596,4.6901,4.6445,4.6815,4.6834,4.5944,4.5512,4.4925,4.4053,4.3956,4.344,4.2106,4.199,4.2002,4.2039,4.0389,3.8876,3.7618,3.6331,3.5662,3.5701,3.5245,3.5234,3.5639,3.5183,3.5434,3.6219,3.4438,3.3415,3.2993,3.1688,3.0907,3.0424,2.8704,2.8025,2.7884,2.618,2.551,2.5543,2.551,2.5205,2.4888,2.531,2.5158,2.4841,2.5305,2.4877,2.4196,2.42,2.391,2.3659,2.4069,2.4505,2.4728,2.432,2.4505,2.4833,2.4822,2.4474,2.4146,2.4146,2.2832,2.1905,2.2748,2.2894,2.2759,2.23,2.3989,2.5125,2.4266,2.4888,2.5291,2.4882,2.5273,2.5609,2.5634,2.5652,2.5499,2.5117,2.5078,2.5078,2.5078,2.5056,2.5228,2.5637,2.559,2.5531,2.5503,2.5473,2.5446,2.5391,2.5403,2.5418,2.5453,2.5446,2.5473,3.8378,3.8318,3.8223,3.835,3.8857,3.9154,3.8435,3.9341,4.0158,3.9515,3.9929,4.0471,4.0713,4.1838,4.2871,4.3304,4.5073,4.6304,4.6063,4.6654,4.6843,4.6139,4.5896,4.5142,4.346,4.375,4.315,4.0965,4.1371,4.1551,4.1216,3.9289,3.8032,3.7646,3.6308,3.5917,3.6612,3.5932,3.5919,3.6537,3.59,3.5919,3.646,3.4248,3.3149,3.291,3.1405,3.0664,3.0375,2.8888,2.8153,2.7843,2.6334,2.5638,2.5484,2.5484,2.5043,2.4543,2.5181,2.496,2.4461,2.4962,2.4698,2.4181,2.4184,2.4177,2.4312,2.4932,2.5252,2.5406,2.5406,2.5406,2.5406,2.5406,2.4885,2.4384,2.4384,2.3187,2.2397,2.3265,2.3276,2.2987,2.2477,2.4049,2.5139,2.4463,2.4786,2.4954,2.4489,2.4884,2.5284,2.5535,2.5577,2.5622,2.5682,2.5702,2.5703,2.5703,2.5703,2.5703,2.5703,2.5657,2.5605,2.5601,2.5559,2.5503,2.5507,2.5496,2.5515,2.5512,2.5526,2.5532,3.7774,3.7863,3.7951,3.8036,3.8274,3.8167,3.684,3.7932,3.8945,3.7921,3.8956,4.0368,4.1389,4.1568,4.2144,4.3895,4.4285,4.4939,4.6567,4.6957,4.704,4.6912,4.624,4.5142,4.346,4.2667,4.1835,4.0868,4.0804,4.0153,3.8644,3.833,3.7455,3.5902,3.5674,3.5642,3.5719,3.5642,3.563,3.5707,3.5566,3.5586,3.5669,3.4584,3.3692,3.2949,3.2,3.1171,3.0432,2.9486,2.8666,2.7913,2.6966,2.6116,2.5401,2.5401,2.5354,2.5299,2.5376,2.5357,2.5155,2.4441,2.418,2.4102,2.4102,2.4122,2.4122,2.4191,2.4799,2.5407,2.5406,2.5397,2.5407,2.5406,2.5329,2.5271,2.5271,2.4538,2.4133,2.5003,2.4522,2.4205,2.4851,2.5159,2.5274,2.5197,2.463,2.4466,2.512,2.4629,2.4538,2.5333,2.5532,2.5629,2.5682,2.5701,2.5702,2.5703,2.5703,2.5703,2.5703,2.5683,2.5657,2.5593,2.559,2.5551,2.5508,2.5493,2.5537,2.5584,2.5593,2.5609,3.7544,3.7681,3.775,3.7648,3.7809,3.792,3.7637,3.8327,3.8914,3.854,3.9138,3.9848,4.0298,4.0751,4.1152,4.149,4.2764,4.3678,4.348,4.494,4.5955,4.5744,4.5591,4.5043,4.3888,4.2999,4.2005,4.0829,4.0564,4.0015,3.8975,3.8415,3.7585,3.6369,3.581,3.5547,3.5547,3.5541,3.5547,3.5547,3.5515,3.5515,3.5509,3.4616,3.3731,3.289,3.205,3.1214,3.0381,2.9552,2.8695,2.7856,2.7025,2.6176,2.5404,2.5404,2.5406,2.5388,2.5388,2.5379,2.5283,2.4937,2.4821,2.4725,2.4261,2.4107,2.4204,2.4687,2.5062,2.5351,2.5341,2.5332,2.5351,2.5341,2.5341,2.5341,2.5341,2.4687,2.4195,2.4552,2.4331,2.4206,2.4524,2.4986,2.5303,2.5303,2.5024,2.4562,2.3889,2.3966,2.4056,2.3973,2.4913,2.5565,2.564,2.5672,2.5699,2.5703,2.5703,2.5703,2.5703,2.5703,2.5683,2.5659,2.5657,2.5652,2.5625,2.5611,2.5633,2.5654,2.5659,2.5661,3.7439,3.7585,3.7742,3.7969,3.7862,3.7827,3.8252,3.8603,3.8799,3.8711,3.9208,3.9789,4.0177,4.0679,4.0911,4.0472,4.168,4.2459,4.1965,4.3569,4.4932,4.5236,4.5738,4.5438,4.3847,4.2678,4.1598,4.0543,4.0281,3.9919,3.9311,3.8676,3.7858,3.6832,3.5945,3.5509,3.5509,3.5501,3.5493,3.5493,3.5493,3.5493,3.5488,3.4853,3.4103,3.3237,3.241,3.1576,3.0733,2.9894,2.9049,2.8193,2.7383,2.6516,2.5725,2.5493,2.5388,2.5361,2.5361,2.5351,2.5303,2.5303,2.5303,2.5197,2.463,2.4446,2.4572,2.5139,2.5303,2.5303,2.5303,2.5303,2.5303,2.5303,2.5303,2.5303,2.5303,2.4851,2.4447,2.4447,2.4447,2.4379,2.4149,2.4562,2.487,2.4601,2.4351,2.3947,2.3274,2.3494,2.3612,2.3339,2.4411,2.5265,2.5606,2.5666,2.5697,2.5702,2.5702,2.5702,2.5703,2.5703,2.5703,2.5703,2.5703,2.5703,2.5703,2.5677,2.5677,2.5662,2.5681,2.5702,3.7439,3.7585,3.7986,3.9239,3.8627,3.781,3.8189,3.8354,3.8272,3.7794,3.8989,4.0486,4.1724,4.1753,4.1707,4.204,4.1255,4.1304,4.3207,4.362,4.4315,4.5908,4.7152,4.6512,4.3044,4.1207,4.0138,3.9927,3.9924,3.9641,3.9045,3.8934,3.8254,3.6837,3.5944,3.5507,3.5507,3.5507,3.5493,3.5493,3.5493,3.5493,3.5493,3.5474,3.5007,3.4141,3.3276,3.2429,3.1621,3.0756,2.9902,2.9107,2.824,2.7344,2.6477,2.5678,2.5361,2.5303,2.5303,2.5303,2.5303,2.5303,2.5303,2.5303,2.5284,2.5284,2.5284,2.5303,2.5303,2.5303,2.5303,2.5303,2.5303,2.5303,2.5303,2.5303,2.5303,2.5284,2.5284,2.5284,2.5284,2.5024,2.4245,2.411,2.3821,2.2947,2.2081,2.2158,2.3879,2.334,2.3135,2.3999,2.4154,2.4618,2.5611,2.5693,2.5696,2.57,2.57,2.5701,2.5702,2.5702,2.5703,2.5703,2.5697,2.5707,2.5707,2.5629,2.559,2.5605,2.5664,2.5699,3.6424,3.6629,3.6882,3.7153,3.6545,3.6268,3.7578,3.7517,3.7374,3.8096,3.9154,4.0075,4.0496,4.1397,4.2142,4.2291,4.2489,4.2891,4.3655,4.444,4.5294,4.6255,4.5846,4.4711,4.2623,4.0954,4.0101,4.0353,4.0043,3.9889,4.0005,3.8757,3.7608,3.6757,3.6469,3.6065,3.5526,3.5493,3.5493,3.5427,3.5493,3.546,3.5364,3.5412,3.4625,3.3215,3.2809,3.1828,3.051,3.0237,2.9639,2.89,2.8772,2.8198,2.7311,2.6524,2.6187,2.6041,2.5495,2.5303,2.5303,2.5302,2.5302,2.5302,2.5243,2.5264,2.5303,2.5303,2.5303,2.5303,2.5302,2.5302,2.5292,2.5243,2.5233,2.5233,2.5233,2.5273,2.5302,2.5302,2.5302,2.5216,2.4957,2.4879,2.4763,2.4534,2.4265,2.4072,2.4034,2.3303,2.2932,2.3248,2.2809,2.3091,2.4606,2.4783,2.5066,2.5657,2.5696,2.5698,2.5701,2.5701,2.5699,2.5693,2.5705,2.5966,2.6509,2.5848,2.5532,2.5532,2.5605,2.5657,3.6075,3.6204,3.6488,3.6785,3.6225,3.6099,3.8146,3.8044,3.7859,3.9163,4.0166,4.0767,4.0799,4.1625,4.2194,4.1967,4.2625,4.3317,4.373,4.4692,4.5649,4.6538,4.5028,4.3574,4.2729,4.0858,3.9838,4.0158,3.988,3.9747,3.9898,3.8741,3.7651,3.668,3.6383,3.596,3.5446,3.535,3.5335,3.5364,3.5335,3.532,3.5315,3.533,3.4602,3.3283,3.2798,3.1821,0.0,3.0214,2.9775,2.9251,2.9104,2.8729,2.8169,2.7347,2.6817,2.6442,2.5934,2.5542,2.5253,2.5262,2.5252,2.5252,2.5212,2.5233,2.5264,2.5264,2.5264,2.5253,2.5262,2.5252,2.5252,2.5212,2.5192,2.5192,2.5192,2.5222,2.5252,2.5252,2.5252,2.5166,2.485,2.4772,2.4656,2.4369,2.4331,2.4235,2.4024,2.3563,2.3289,2.3385,2.2642,2.2746,2.4175,2.4336,2.4737,2.5601,2.5359,2.5164,2.5171,2.4861,2.4837,2.5174,2.5473,2.6037,2.6865,2.6249,2.5803,2.5505,2.5876,2.5909,0.0,3.6287,3.6774,3.787,3.7315,3.7095,3.9501,3.9533,0.0,4.0714,4.1653,4.2289,4.2378,4.2396,4.2176,4.1552,4.2132,4.2956,4.3821,4.482,4.5788,4.6679,4.4645,4.31,4.3021,4.0795,3.9401,3.9532,3.9508,3.9339,3.8937,3.8861,3.8132,3.6658,3.5806,3.5364,3.5266,3.5102,3.5102,3.5266,3.5102,3.5119,3.5281,3.5224,3.4764,3.3954,3.3077,3.211,3.1146,3.0532,3.0161,2.9931,2.9327,2.9091,2.8995,2.8183,2.7378,2.6657,2.6542,2.5967,2.5288,2.5231,2.5212,2.5201,2.5201,2.5182,2.5182,2.5212,2.5182,2.5182,2.5212,2.5212,2.5212,2.5212,2.5201,2.5201,2.5201,2.5212,2.5231,2.5288,2.5288,2.5077,2.4377,2.4204,2.3898,2.3083,2.291,2.316,2.3974,2.4033,2.4042,2.4173,2.3359,2.3179,2.4105,2.4191,2.4604,2.5539,2.4837,2.4355,2.4292,2.3519,2.3465,2.4287,2.5207,2.6029,2.6786,2.6784,2.6378,2.5601,2.6352,2.6362,3.7218,0.0,3.7477,3.7725,3.7997,3.839,0.0,3.9967,4.0458,4.0924,4.1843,4.2723,4.3162,4.3222,4.3552,4.4599,4.4929,4.5589,4.7114,4.8347,4.827,4.6108,4.4559,4.3039,4.1287,3.9844,3.9253,3.9838,3.9743,3.9472,3.9063,3.8467,3.7663,3.6629,3.5783,3.5242,3.5086,3.5015,3.4997,3.5015,3.5152,3.5239,3.5203,3.4584,3.3838,3.297,3.2003,3.1067,3.0222,3.0072,2.9977,2.9924,2.9978,2.996,2.9819,2.9002,2.8581,2.8224,2.6945,2.637,2.6082,2.542,2.5206,2.5195,2.5195,2.513,2.5068,2.5171,2.5126,2.5068,2.5168,2.5198,2.5198,2.5195,2.5195,2.5195,2.5195,2.5206,2.539,2.6079,2.6194,2.6347,2.6822,2.6309,2.5776,2.5627,2.5045,2.4681,2.4892,2.4377,2.4005,2.4034,2.2711,2.2188,2.3075,2.3259,2.3932,2.5424,2.5335,2.4946,2.433,2.4102,2.4067,2.4232,2.6273,2.7129,2.6724,2.7324,2.7208,2.6406,2.5951,2.6378,3.9024,3.8506,3.7824,3.804,3.8446,3.9083,4.0135,4.0872,4.157,4.2249,4.2953,4.3573,4.3856,4.4233,4.4642,4.5143,4.6483,4.7731,4.8531,4.844,4.7518,4.5432,4.3749,4.2242,4.0996,3.9663,3.911,3.9637,3.9316,3.882,3.8213,3.7507,3.6668,3.5666,3.5191,3.4944,3.4944,3.4832,3.4813,3.4908,3.4906,3.4824,3.4636,3.4209,3.3295,3.2061,3.1447,3.0648,2.9769,2.9851,2.9851,2.9801,3.0138,3.0226,3.0155,2.971,2.9308,2.8779,2.7491,2.6546,2.5953,2.6247,2.6082,2.5746,2.5746,2.5653,2.5494,2.5279,2.5141,2.5182,2.5631,2.5482,2.5279,2.5669,2.5478,2.5306,2.5669,2.5757,2.6006,2.6885,2.7058,2.7191,2.7675,2.7325,2.7014,2.7058,2.6312,2.5738,2.5738,2.5064,2.456,2.4591,2.3072,2.2414,2.3319,2.2724,2.3042,2.4742,2.4489,2.4068,2.3623,2.361,2.3971,2.4741,2.6823,2.7499,2.667,2.7922,2.7699,2.6116,2.6889,2.7343,4.0767,3.9881,3.8671,3.8918,3.9268,3.9946,4.1393,4.2097,4.2719,4.3819,4.425,4.4505,4.4712,4.5237,4.551,4.5021,4.7323,4.9001,4.8489,4.7003,4.5608,4.4669,4.2695,4.1309,4.1064,3.9829,3.9079,3.9219,3.864,3.7915,3.7088,3.6436,3.5586,3.4505,3.4376,3.4444,3.4623,3.4465,3.4429,3.4529,3.4317,3.4074,3.3796,3.3662,3.2802,3.1393,3.1124,3.0483,2.9662,2.9839,2.9805,2.9681,3.0049,3.0185,3.0185,3.0171,2.9732,2.8973,2.8153,2.6772,2.5626,2.7128,2.7134,2.6518,2.6384,2.6363,2.6238,2.5576,2.5275,2.5378,2.6345,2.5982,2.5554,2.623,2.5982,2.5726,2.6269,2.6498,2.6842,2.772,2.7892,2.7931,2.8064,2.7969,2.7892,2.7892,2.7147,2.6593,2.6593,2.5891,2.5393,2.5447,2.3919,2.3151,2.3807,2.2391,2.2171,2.3769,2.3312,2.2997,2.2997,2.2996,2.3753,2.5351,2.7046,2.7479,2.6622,2.8294,2.7892,2.5662,2.7945,2.8393,4.0633,4.1389,4.1689,4.1361,4.1898,4.2505,4.2705,4.3602,4.4325,4.4202,4.4412,4.5001,4.6151,4.5915,4.5933,4.7168,4.8141,4.8235,4.6856,4.6428,4.5524,4.3615,4.2232,4.1048,3.9962,3.9615,3.9337,3.8902,3.8155,3.7474,3.6881,3.6105,3.5263,3.4353,3.3855,3.3518,3.3387,3.3618,3.3431,3.2786,3.2909,3.295,3.2879,3.2191,3.1732,3.1431,3.05,3.0021,2.9855,2.9888,2.9872,2.9872,3.0049,3.0109,3.0109,3.0117,3.0041,2.9794,2.8941,2.7532,2.6249,2.7017,2.7214,2.7017,2.6298,2.6597,2.7077,2.6403,2.5603,2.5348,2.7065,2.6861,2.6249,2.6364,2.6861,2.7147,2.6536,2.6975,2.774,2.8548,2.872,2.8949,2.9688,2.9211,2.872,2.872,2.8026,2.751,2.751,2.6746,2.6223,2.6228,2.4725,2.3482,2.2871,2.1962,2.1828,2.2776,2.3448,2.3832,2.3889,2.3898,2.436,2.5293,2.7016,2.7499,2.6693,2.7696,2.7633,2.6605,2.7006,2.7887,4.0546,4.163,4.239,4.2426,4.3293,4.3996,4.3726,4.4213,4.4693,4.4513,4.47,4.5249,4.6331,4.6992,4.8163,5.0673,5.016,4.921,4.8456,4.6524,4.4647,4.3249,4.1542,4.0247,3.9659,3.9203,3.8848,3.8603,3.7587,3.6786,3.639,3.4921,3.3852,3.329,3.272,3.2219,3.175,3.2052,3.224,3.2279,3.2387,3.2212,3.1773,3.1511,3.1026,3.0333,2.983,2.9644,2.9644,2.9644,2.9716,2.9857,3.0019,3.0098,3.0098,3.0102,2.9802,2.9402,2.9478,2.8413,2.7167,2.8199,2.8296,2.7897,2.7349,2.7518,2.7827,2.7637,2.7023,2.6708,2.8006,2.7695,2.7179,2.7637,2.7695,2.7675,2.7727,2.8083,2.8599,2.944,2.9612,2.9726,3.0128,2.9879,2.9612,2.9612,2.8905,2.8338,2.8338,2.7205,2.6402,2.6402,2.4893,2.3747,2.3346,2.2524,2.222,2.2622,2.3505,2.4236,2.4736,2.4341,2.4494,2.5348,2.6602,2.6859,2.6054,2.7446,2.742,2.6189,2.7647,2.8255,4.0491,4.1551,4.24,4.3025,4.4044,4.4811,4.4624,4.4973,4.5356,4.5349,4.5653,4.6083,4.654,4.8003,4.9993,5.2627,5.1424,5.0094,4.9933,4.6745,4.4082,4.3139,4.1287,3.9956,3.9592,3.8991,3.8463,3.8113,3.6948,3.608,3.5709,3.3936,3.2753,3.2375,3.1813,3.1187,3.0488,3.0603,3.1033,3.1711,3.1638,3.1298,3.0693,3.0817,3.0317,2.9399,2.9339,2.9319,2.9319,2.9379,2.9533,2.9698,2.9782,2.9787,2.9806,2.9996,2.9505,2.8901,2.9753,2.9057,2.7991,2.9209,2.9193,2.863,2.8241,2.8297,2.8502,2.8508,2.8343,2.8341,2.9022,2.8545,2.8068,2.8722,2.8512,2.8316,2.8788,2.9036,2.9374,3.0042,3.019,3.019,3.019,3.019,3.019,3.019,2.9603,2.9183,2.9183,2.7899,2.6982,2.6995,2.5485,2.4339,2.3938,2.3288,2.2927,2.2978,2.361,2.4378,2.5254,2.4716,2.4722,2.5387,2.6281,2.6326,2.5521,2.7114,2.7117,2.5671,2.7939,2.8281,4.0495,4.1569,4.2448,4.3474,4.4228,4.4877,4.5546,4.6535,4.7283,4.7226,4.7851,4.8219,4.7479,4.8712,5.0043,5.0729,5.0325,4.9788,4.9428,4.687,4.4462,4.3003,4.2084,4.0981,3.9567,3.9367,3.8715,3.721,3.6304,3.5507,3.4733,3.3839,3.3006,3.2244,3.1634,3.0944,3.0142,2.9863,2.9883,3.0243,3.0007,2.9847,2.979,2.9608,2.9474,2.9379,2.9214,2.9107,2.9129,2.9319,2.9399,2.9401,2.9023,2.8871,2.8881,2.9639,2.9393,2.8825,2.9639,2.9219,2.8444,2.9116,2.9175,2.8839,2.8141,2.85,2.9013,2.8409,2.8909,2.9715,2.995,2.9403,2.8798,2.8812,2.9383,2.9722,2.8965,2.9455,3.0026,3.0102,3.0102,3.0102,3.0102,3.0102,3.0102,3.0102,3.0045,3.0022,3.0013,2.9251,2.8712,2.872,2.7224,2.5581,2.4033,2.3842,2.3815,2.3798,2.3866,2.4328,2.5253,2.5311,2.5352,2.5387,2.6313,2.6396,2.5598,2.6539,2.6556,2.5715,2.6727,2.7114,4.0,4.1236,4.2423,4.2879,4.391,4.5048,4.5873,4.6784,4.7264,4.6649,4.7586,4.839,4.7985,4.9257,5.0451,5.0629,5.054,5.0082,4.8973,4.6652,4.4232,4.2201,4.0833,3.9662,3.8562,3.8003,3.7462,3.685,3.5606,3.474,3.4434,3.2739,3.1639,3.1351,3.017,2.9453,2.9295,2.9248,2.9334,2.9551,2.9607,2.9514,2.9254,2.9316,2.9191,2.892,2.8989,2.9052,2.9034,2.9123,2.9295,2.9514,2.9498,2.9469,2.9472,2.9775,2.9699,2.9491,2.9794,2.924,2.8501,2.9096,2.8855,2.8331,2.8375,2.8672,2.8911,2.8802,2.9055,2.9437,2.9769,2.9709,2.9578,2.9547,2.981,2.9962,2.9669,2.9859,3.0102,3.0102,3.0102,3.0259,3.0773,3.0849,3.1039,3.1572,3.1648,3.1458,3.0921,3.0136,2.9441,2.894,2.7899,2.6727,2.5543,2.5447,2.5249,2.4744,2.4717,2.4864,2.5222,2.5331,2.541,2.5452,2.5848,2.6179,2.6477,2.6259,2.6286,2.6532,2.7404,2.7228,3.9976,4.118,4.2469,4.28,4.3663,4.4802,4.6183,4.7129,4.7594,4.7248,4.7589,4.7899,4.7849,4.8884,4.9645,4.9267,4.9547,4.9258,4.7547,4.5526,4.3432,4.1238,3.9857,3.869,3.7629,3.7018,3.6496,3.5993,3.4932,3.4195,3.3912,3.2241,3.1153,3.0882,2.962,2.8898,2.8761,2.885,2.892,2.8943,2.9193,2.9172,2.8897,2.8989,2.8845,2.8536,2.8718,2.8839,2.891,2.8962,2.8934,2.8912,2.9581,2.9536,2.9136,2.9666,2.9839,2.9784,2.95,2.8891,2.8297,2.8758,2.8405,2.7867,2.856,2.8743,2.8743,2.8874,2.9038,2.9233,2.9494,2.9716,3.0,3.0297,3.0181,3.0048,3.0383,3.0228,3.0038,3.0038,3.0038,3.0209,3.0763,3.0858,3.1067,3.1656,3.1751,3.1542,3.0969,3.0411,2.9775,2.8984,2.8401,2.7625,2.6498,2.6402,2.6058,2.5249,2.5203,2.5187,2.5201,2.534,2.5434,2.5492,2.56,2.5956,2.6585,2.5999,2.6016,2.6601,2.7202,2.6832,4.0615,4.1523,4.2602,4.3474,4.3604,4.4165,4.6609,4.7825,4.8636,4.9504,4.82,4.6888,4.6993,4.7361,4.7274,4.61,4.6941,4.7075,4.5042,4.3453,4.1895,4.0262,3.9479,3.8456,3.6856,3.6694,3.6029,3.4429,3.4271,3.3912,3.3104,3.2586,3.1901,3.1102,3.0303,2.9512,2.8694,2.8713,2.859,2.8406,2.8615,2.87,2.87,2.8474,2.8398,2.8398,2.8398,2.851,2.8718,2.8902,2.8287,2.7373,2.9044,2.8703,2.7506,2.9166,2.9699,2.9457,2.8667,2.8108,2.7812,2.8027,2.7757,2.7574,2.8581,2.8737,2.8587,2.8536,2.8874,2.9272,2.9209,2.9455,2.9942,3.0951,3.053,3.0135,3.1004,3.0511,2.9888,2.9888,2.9888,2.9888,2.9907,2.9907,2.9907,2.9907,2.9907,2.9959,3.0007,3.0007,2.9715,2.8989,2.8916,2.8242,2.6555,2.6421,2.6058,2.5268,2.5229,2.5203,2.5187,2.5337,2.5439,2.5492,2.5632,2.571,2.571,2.5697,2.5691,2.571,2.5703,2.5718,4.0058,4.0621,4.1609,4.244,4.302,4.3837,4.5717,4.6817,4.7634,4.834,4.7043,4.5698,4.55,4.603,4.6116,4.5022,4.5451,4.5301,4.3628,4.2293,4.0935,3.9381,3.8007,3.6988,3.6523,3.5504,3.4431,3.3409,3.28,3.2107,3.1303,3.0764,3.0315,2.9914,2.9313,2.8797,2.8414,2.8466,2.844,2.8327,2.837,2.8448,2.8474,2.8432,2.8398,2.8398,2.8398,2.851,2.8664,2.847,2.816,2.7904,2.8539,2.8159,2.7349,2.8421,2.8422,2.7879,2.7583,2.6898,2.6276,2.6847,2.6798,2.6645,2.7514,2.8092,2.8476,2.8432,2.8594,2.8803,2.9123,2.9314,2.9569,3.016,3.0078,2.9964,3.0229,3.0078,2.9888,2.9888,2.9888,3.0078,3.072,3.0814,3.1023,3.1572,3.1667,3.1476,3.0975,3.0386,2.9927,2.976,2.9736,2.9279,2.8174,2.7565,2.7146,2.6898,2.6308,2.5755,2.5222,2.533,2.5403,2.543,2.5605,2.5979,2.6545,2.5976,2.5995,2.6541,2.6537,2.6188,4.0547,4.129,4.2427,4.2987,4.3388,4.3915,4.4673,4.5823,4.6794,4.7136,4.6008,4.4865,4.4689,4.4931,4.4838,4.3868,4.4159,4.4047,4.2789,4.1443,4.0182,3.895,3.738,3.6167,3.5543,3.4365,3.3294,3.2474,3.1671,3.1011,3.0529,2.9978,2.962,2.9426,2.882,2.8432,2.83,2.8246,2.8246,2.8246,2.8246,2.8291,2.8318,2.8318,2.8318,2.8318,2.8406,2.8381,2.8257,2.8061,2.7636,2.7195,2.7568,2.7251,2.667,2.7475,2.7382,2.6842,2.6526,2.591,2.5358,2.5873,2.6045,2.6231,2.7097,2.7835,2.8353,2.8345,2.8414,2.8633,2.8993,2.9209,2.9603,3.0653,3.0381,3.0078,3.0726,3.0345,2.9888,2.9874,2.9872,3.0059,3.0606,3.0682,3.0852,3.1345,3.1421,3.125,3.0791,3.0314,3.0022,3.0072,3.0087,2.9745,2.8874,2.8056,2.7613,2.7613,2.6795,2.6104,2.5659,2.6121,2.623,2.5909,2.6096,2.6264,2.642,2.5933,2.5952,2.642,2.642,2.6082,4.1668,4.2694,4.3941,4.4261,4.4269,4.4085,4.3612,4.477,4.5891,4.5751,4.4876,4.4126,4.4088,4.3842,4.3372,4.2634,4.3005,4.3048,4.2198,4.0824,3.9575,3.8701,3.722,3.5651,3.4151,3.3259,3.242,3.1546,3.0814,3.0368,3.0297,2.9835,2.9494,2.9275,2.8658,2.8273,2.8246,2.8053,2.8025,2.8154,2.8154,2.8119,2.8047,2.8075,2.8039,2.7995,2.8262,2.8033,2.752,2.7548,2.6833,2.5764,2.6353,2.6131,2.556,2.6375,2.6456,2.6103,2.5496,2.5074,2.4825,2.5011,2.5447,2.6069,2.7061,2.7752,2.8183,2.8191,2.8396,2.8646,2.8842,2.9148,2.9884,3.1807,3.1046,3.029,3.1751,3.0918,2.9874,2.9808,2.9841,2.9872,2.9888,2.9888,2.9888,2.9888,2.9888,2.9888,2.9888,2.9956,2.9988,2.9988,3.0038,2.9749,2.8969,2.817,2.7733,2.7809,2.701,2.6553,2.6629,2.7369,2.7382,2.6569,2.6784,2.6489,2.5671,2.5773,2.5777,2.5699,2.5695,2.561,4.1311,4.1282,4.1642,4.2735,4.3217,4.3356,4.3032,4.3119,4.3297,4.3468,4.285,4.2158,4.1719,4.16,4.1484,4.1256,4.1795,4.1831,4.0588,4.0128,3.9165,3.7148,3.5972,3.4746,3.3294,3.2293,3.1213,2.9993,2.9744,2.9369,2.8717,2.8721,2.8631,2.8312,2.8308,2.8146,2.7818,2.7789,2.7789,2.7806,2.7806,2.7501,2.6936,2.7157,2.6907,2.6354,2.7209,2.7224,2.6626,2.6137,2.5836,2.5708,2.5668,2.5206,2.4598,2.5409,2.5199,2.449,2.4406,2.4213,2.4046,2.4021,2.4491,2.5207,2.6009,2.6724,2.7415,2.8031,2.838,2.8651,2.8837,2.9126,2.9636,3.0922,3.0471,2.9832,3.0171,3.0001,2.9738,2.9719,2.9738,2.9774,2.9806,2.9806,2.9841,2.9888,2.9888,2.9888,2.9888,2.9905,2.9905,2.9905,2.994,2.9864,2.9674,2.8935,2.8726,2.9371,2.8632,2.8495,2.9186,2.7668,2.6399,2.5543,2.6384,2.6396,2.554,2.6286,2.6322,2.5699,2.5581,2.5499,4.158,4.1603,4.1852,4.2546,4.2668,4.2616,4.2462,4.193,4.1476,4.1505,4.1324,4.0931,4.0276,4.0123,4.0123,4.0094,4.0387,4.0394,3.9704,3.8663,3.7512,3.6271,3.4464,3.3011,3.2257,3.1026,3.0016,2.9325,2.8841,2.8393,2.7986,2.8045,2.7989,2.7766,2.7864,2.7806,2.76,2.76,2.7659,2.7701,2.7701,2.7104,2.6043,2.626,2.6177,2.5818,2.6464,2.6385,2.5804,2.5511,2.53,2.5114,2.4893,2.4579,2.4266,2.4671,2.4482,2.3996,2.4036,2.3917,2.3732,2.3656,2.4121,2.4831,2.5207,2.6186,2.7241,2.7645,2.8204,2.8718,2.8827,2.8966,2.9233,2.9872,2.9868,2.9814,3.0132,2.9964,2.9664,2.9626,2.9664,2.9701,2.9756,2.9756,2.9773,2.9841,2.9857,2.9874,2.9907,2.9888,2.9888,2.9888,2.9888,2.9888,2.9888,2.915,2.9036,2.9851,2.9131,2.89,2.9368,2.8232,2.7211,2.6411,2.7401,2.7299,2.6087,2.6521,2.656,2.6176,2.5654,2.5379,4.205,4.2357,4.275,4.2657,4.2302,4.1906,4.1864,4.1208,4.0456,3.9956,3.9931,3.9824,3.9115,3.8993,3.8993,3.9035,3.9157,3.9129,3.8766,3.7101,3.5694,3.5094,3.2895,3.1285,3.0985,2.977,2.8959,2.8865,2.8159,2.7701,2.7701,2.7578,2.7449,2.7304,2.7165,2.7096,2.7083,2.7083,2.7126,2.7239,2.707,2.6451,2.5374,2.5262,2.5268,2.5358,2.5673,2.5507,2.4938,2.5104,2.4893,2.4465,2.4266,2.4192,2.4192,2.4192,2.4096,2.3937,2.3996,2.3855,2.3646,2.3544,2.3963,2.4516,2.4659,2.5733,2.694,2.7211,2.7943,2.8662,2.8827,2.8863,2.891,2.9089,2.937,2.9775,3.0428,3.0075,2.9607,2.9511,2.9569,2.9664,2.9664,2.9683,2.9719,2.9773,2.9773,2.9808,2.9857,2.9874,2.9874,2.9874,2.9874,2.9874,2.9874,2.9285,2.9172,2.9834,2.9263,2.8903,2.8903,2.8969,2.8641,2.7899,2.8675,2.8348,2.6876,2.6823,2.6764,2.6668,2.5723,2.5226,4.2192,4.2248,4.2115,4.2098,4.1881,4.1587,4.1373,4.1213,4.0687,3.9098,3.8478,3.8059,3.7776,3.7759,3.7784,3.7979,3.8597,3.8437,3.6605,3.6081,3.4902,3.2228,3.1408,3.0587,2.9361,2.8889,2.8456,2.7941,2.7754,2.7701,2.7701,2.7098,2.6678,2.6551,2.5889,2.5455,2.5328,2.5328,2.5328,2.534,2.4648,2.4635,2.5164,2.3877,2.3342,2.3503,2.4426,2.4459,2.3919,2.4165,2.434,2.4412,2.4266,2.4192,2.4192,2.4192,2.3999,2.3756,2.3937,2.3789,2.3522,2.3517,2.3565,2.3802,2.4498,2.4938,2.551,2.6904,2.7619,2.8107,2.8842,2.9067,2.9112,2.9304,2.9262,2.9259,2.9537,2.9502,2.9429,2.9427,2.9471,2.9531,2.9531,2.9608,2.9683,2.9701,2.9701,2.972,2.9719,2.9719,2.9719,2.9719,2.9719,2.9719,2.9719,2.9678,2.9712,2.9806,2.978,2.9737,2.9737,2.9753,2.939,2.8571,2.8855,2.8533,2.7574,2.7613,2.7296,2.6583,2.5649,2.5118,4.1913,4.1453,4.1033,4.1473,4.1391,4.1198,4.1041,4.0695,4.0026,3.8864,3.8079,3.7465,3.6947,3.6818,3.6723,3.6416,3.6641,3.6249,3.4474,3.3519,3.2492,3.1133,2.981,2.8937,2.8753,2.8289,2.7875,2.7617,2.7526,2.7465,2.7465,2.6735,2.6288,2.6246,2.5502,2.5046,2.5005,2.5005,2.5005,2.4988,2.4195,2.4033,2.4382,2.3292,2.2893,2.3137,2.382,2.3952,2.3735,2.4058,2.4284,2.4394,2.4339,2.4266,2.4192,2.4192,2.4057,2.3858,2.3837,2.375,2.3598,2.3522,2.3549,2.3692,2.4033,2.4972,2.6063,2.6775,2.7794,2.8759,2.902,2.9089,2.9112,2.9218,2.9175,2.9152,2.9365,2.9407,2.9407,2.9407,2.9429,2.9431,2.9431,2.949,2.953,2.9569,2.9589,2.9626,2.9701,2.9607,2.9588,2.9701,2.9607,2.9569,2.9701,2.9626,2.9645,2.979,2.9716,2.9732,2.9888,2.9888,2.9718,2.9377,2.9448,2.9136,2.837,2.7867,2.7465,2.7117,2.5741,2.5208,4.1314,4.076,4.0388,4.0735,4.0856,4.0888,4.0888,4.0422,3.9733,3.8784,3.8146,3.7473,3.6473,3.6301,3.6059,3.5318,3.5197,3.4525,3.261,3.1386,3.0489,2.9886,2.8429,2.766,2.8233,2.7764,2.7452,2.7452,2.7345,2.7299,2.7299,2.6368,2.5833,2.5833,2.4919,2.4419,2.4419,2.4419,2.4522,2.4695,2.3919,2.3615,2.377,2.3057,2.2816,2.3003,2.345,2.361,2.3671,2.4078,2.4303,2.4358,2.4339,2.4266,2.4192,2.4192,2.4134,2.3996,2.3878,2.3777,2.3692,2.3638,2.3664,2.3714,2.3774,2.5004,2.6422,2.6643,2.7837,2.9068,2.9079,2.9067,2.9021,2.9021,2.9021,2.9089,2.9365,2.9407,2.9407,2.9407,2.9407,2.9407,2.9407,2.9407,2.9427,2.9471,2.9433,2.9433,2.9531,2.9372,2.933,2.953,2.9411,2.9411,2.9626,2.9471,2.9454,2.9755,2.9551,2.9533,2.9803,2.9769,2.9734,2.9734,2.9734,2.9536,2.9091,2.7972,2.7411,2.7361,2.5853,2.5362,4.0384,4.0516,4.0694,3.9986,4.0319,4.0888,4.0888,4.0853,4.0388,3.8905,3.856,3.8077,3.6577,3.6301,3.6059,3.5318,3.5197,3.4162,3.1214,3.0748,2.9886,2.773,2.7368,2.7348,2.7365,2.7348,2.7313,2.7313,2.7282,2.7299,2.7299,2.5868,2.5057,2.5057,2.3608,2.2832,2.2832,2.2832,2.3177,2.3839,2.3126,2.3116,2.377,2.3057,2.2712,2.2764,2.32,2.3414,2.3459,2.3981,2.4229,2.4284,2.4173,2.4154,2.4192,2.4192,2.4134,2.4016,2.4135,2.3979,2.3714,2.3917,2.3855,2.3753,2.3917,2.4682,2.5646,2.6477,2.7411,2.8305,2.8931,2.8957,2.8815,2.8815,2.8815,2.8934,2.9304,2.9407,2.9407,2.9407,2.9407,2.9407,2.9407,2.9407,2.9407,2.9407,2.924,2.9112,2.9112,2.8957,2.891,2.9112,2.9112,2.9197,2.9407,2.9289,2.9353,2.9683,2.9394,2.9355,2.9608,2.9435,2.9334,2.9334,2.9334,2.9416,2.9551,2.7971,2.7097,2.6805,2.5968,2.5486,3.9829,3.9652,3.9577,4.0284,3.9922,3.9664,4.0647,4.0112,3.925,3.8698,3.8215,3.756,3.649,3.5904,3.5335,3.4594,3.4059,3.3024,3.0972,3.0696,3.0196,2.8868,2.8713,2.8713,2.8713,2.8713,2.8713,2.8713,2.8265,2.7799,2.7316,2.5833,2.4764,2.4264,2.3246,2.2712,2.2712,2.2712,2.285,2.3081,2.285,2.2823,2.3081,2.2806,2.2712,2.2738,2.32,2.3392,2.3437,2.3978,2.421,2.421,2.4057,2.4039,2.4116,2.3999,2.3978,2.4016,2.4037,2.3899,2.3735,2.3937,2.3937,2.3917,2.4077,2.517,2.6431,2.6727,2.7862,2.8975,2.906,2.9044,2.8957,2.8839,2.8887,2.9044,2.9175,2.9304,2.9407,2.9407,2.9407,2.9365,2.924,2.9218,2.9218,2.9218,2.9044,2.8957,2.9067,2.8815,2.8694,2.8887,2.8791,2.8791,2.9003,2.8845,2.8874,2.9169,2.8952,2.8975,2.9334,2.9272,2.9251,2.9293,2.9293,2.9334,2.9397,2.8258,2.74,2.6786,2.6469,2.6222,3.878,3.8849,3.9077,3.9439,3.9244,3.9163,3.9939,3.9526,3.8819,3.8318,3.8025,3.7542,3.649,3.549,3.4663,3.4162,3.3421,3.2386,3.0903,3.0696,3.0386,2.961,2.9506,2.9506,2.9506,2.9506,2.9506,2.9506,2.8816,2.8075,2.7333,2.5833,2.4522,2.3443,2.297,2.2712,2.2712,2.2712,2.2712,2.2712,2.2712,2.2712,2.2712,2.2712,2.2764,2.2868,2.3242,2.3364,2.3335,2.3855,2.4075,2.4077,2.3878,2.3919,2.4096,2.3958,2.3958,2.4037,2.4037,2.3959,2.3899,2.4018,2.4075,2.4114,2.4266,2.5523,2.6916,2.6916,2.8066,2.9262,2.9044,2.8952,2.8863,2.8815,2.8957,2.913,2.9197,2.9323,2.9407,2.9407,2.9344,2.9262,2.9112,2.9044,2.8998,2.8998,2.8839,2.8743,2.8863,2.8612,2.8484,2.8694,2.8569,2.8594,2.8773,2.8619,2.8608,2.8865,2.8646,2.8646,2.9038,2.8966,2.8943,2.8989,2.9012,2.9053,2.9198,2.8172,2.7386,2.6746,2.6609,2.6638,0.0,0.0,0.0,3.7433,3.8288,3.9457,3.8784,3.9146,3.9232,3.7784,3.806,3.8094,3.6577,3.5076,3.4093,3.4093,3.3404,3.2369,3.092,3.0713,3.0437,2.9661,2.9575,2.9575,2.9575,2.9575,2.9575,2.9575,2.8834,2.8075,2.7333,2.5816,2.4298,2.2815,2.2754,2.2763,2.272,2.272,2.2729,2.2712,2.2712,2.2712,2.2712,2.2712,2.2885,2.3137,2.3335,2.3307,2.3186,2.3642,2.3837,2.3896,2.3692,2.3816,2.4094,2.4094,2.4114,2.4116,2.4116,2.4135,2.4192,2.421,2.421,2.4229,2.4429,2.5633,2.6897,2.6916,2.7964,2.9067,2.8863,2.8669,2.8543,2.8749,2.8957,2.9152,2.9365,2.9386,2.9386,2.9407,2.924,2.9089,2.9089,2.891,2.8773,2.8773,2.8619,2.8492,2.8492,2.8327,2.8291,2.8466,2.8492,2.8569,2.8767,2.8594,2.8601,2.8897,2.8543,2.8458,2.8749,2.8572,2.847,2.8452,2.8452,2.8647,2.9041,2.7754,2.6992,2.6692,2.6347,2.6661,3.7075,0.0,0.0,0.0,0.0,0.0,3.8845,3.8551,3.7929,3.7199,3.7435,3.7491,3.649,3.5076,3.4093,3.4093,3.2972,3.1955,3.1541,3.1489,3.1403,3.1196,3.1162,3.1162,3.1162,3.1162,3.1162,3.1162,2.9455,2.8075,2.7333,2.5298,2.4212,2.4367,2.4367,2.4091,2.3495,2.3495,2.3219,2.2712,2.2712,2.2712,2.2712,2.2893,2.3342,2.3967,2.3768,2.3903,2.4236,2.4148,2.4094,2.4094,2.3837,2.3919,2.4154,2.3998,2.4077,2.4229,2.4229,2.4192,2.4154,2.4284,2.4247,2.4173,2.4429,2.5597,2.6839,2.6897,2.8066,2.9262,2.9067,2.8815,2.8669,2.8791,2.8957,2.9089,2.9112,2.9134,2.9218,2.9386,2.924,2.9044,2.891,2.8718,2.8594,2.8594,2.8406,2.8345,2.8466,2.8327,2.8209,2.8291,2.8291,2.8318,2.8353,2.83,2.8578,2.9215,2.916,2.94,3.0124,3.0094,3.0084,3.015,2.984,2.972,2.9779,2.8379,2.7487,2.7108,2.6533,2.6506,3.6361,3.6962,3.7759,3.7732,0.0,0.0,3.7841,3.7505,3.6825,3.61,3.6385,3.6474,3.5576,3.468,3.3973,3.3645,3.2852,3.2145,3.1834,3.18,3.18,3.18,3.18,3.18,3.18,3.18,3.18,3.18,2.9972,2.8265,2.6868,2.5212,2.4522,2.4988,2.4678,2.4253,2.3788,2.3478,2.3143,2.2712,2.2712,2.284,2.3177,2.3466,2.4098,2.4896,2.4473,2.4574,2.495,2.4421,2.4113,2.4016,2.3858,2.3978,2.419,2.4056,2.4134,2.4303,2.4577,2.4467,2.4302,2.5077,2.48,2.4339,2.519,2.5857,2.6449,2.7153,2.8262,2.9178,2.9021,2.8929,2.8881,2.8929,2.9089,2.9218,2.9178,2.9197,2.924,2.9222,2.9021,2.8815,2.8694,2.8781,2.8757,2.8434,2.8577,2.8612,2.8389,2.8264,2.8182,2.8182,2.8182,2.8182,2.8182,2.8182,2.8548,2.9351,2.9405,2.9762,3.0588,3.0475,3.0445,3.0457,3.0064,2.9673,2.9248,2.8655,2.7887,2.6978,2.6219,2.6084,3.5315,3.62,3.7086,3.596,3.6456,0.0,3.6284,3.6114,3.5803,3.4607,3.5016,3.5326,3.4375,3.4048,3.379,3.3171,3.2999,3.2693,3.1903,3.1869,3.1921,3.1921,3.1921,3.1921,3.1921,3.1871,3.1819,3.18,3.03,2.842,2.623,2.5488,2.516,2.5247,2.4488,2.4012,2.3926,2.3185,2.2806,2.2806,2.2746,2.3143,2.3991,2.4226,2.4931,2.5947,2.5321,2.5181,2.5348,2.452,2.4074,2.3837,2.3837,2.3996,2.419,2.419,2.4246,2.4412,2.5024,2.4941,2.4764,2.6068,2.5554,2.4709,2.6115,2.6097,2.593,2.7553,2.8504,2.9003,2.8868,2.898,2.9112,2.913,2.9262,2.9386,2.9365,2.9326,2.9259,2.909,2.8773,2.8518,2.8466,2.8963,2.9091,2.8279,2.8831,2.908,2.8396,2.8307,2.8342,2.8431,2.836,2.8324,2.8324,2.8235,2.8602,2.9476,2.953,2.9875,3.0683,3.0392,3.0249,3.0184,2.9713,2.9098,2.83,2.8682,2.8044,2.6437,2.5589,2.552,3.4916,3.5828,3.6753,3.5976,3.5894,0.0,3.5182,3.4818,3.4287,3.315,3.3757,3.4547,3.4576,3.3846,3.3448,3.4142,3.3775,3.3003,3.1952,3.2317,3.2697,3.2697,3.2697,3.2697,3.2697,3.2367,3.2091,3.1837,2.9817,2.7885,2.6195,2.5971,2.6178,2.6833,2.6074,2.5385,2.4781,2.3988,2.3581,2.3564,2.2988,2.3536,2.5067,2.4754,2.553,2.7013,2.5841,2.5362,2.5348,2.452,2.417,2.4113,2.4113,2.4151,2.419,2.419,2.4613,2.5182,2.5307,2.5733,2.6162,2.5833,2.552,2.5225,2.4949,2.5171,2.587,2.7534,2.8569,2.9156,2.9197,2.9197,2.9178,2.924,2.924,2.9222,2.9175,2.8887,2.8826,2.9313,2.9036,2.8669,2.8406,2.8806,2.8853,2.7941,2.8476,2.8994,2.8936,2.8918,2.9207,2.9964,2.953,2.9173,2.9173,2.8556,2.8816,3.0208,3.0297,3.08,3.191,3.1913,3.169,3.1391,3.0372,2.975,2.9459,2.8453,2.7147,2.5639,2.5354,2.5401,3.479,3.5333,3.5953,3.5778,3.5317,0.0,0.0,3.3865,3.2875,3.2105,3.2398,3.2794,3.2782,3.2874,3.3084,3.3212,3.3685,3.3717,3.2769,3.3115,3.349,3.349,3.349,3.3335,3.2938,3.2875,3.2459,3.1551,3.0283,2.8868,2.7333,2.7247,2.7264,2.7299,2.6523,2.5764,2.5005,2.4212,2.3615,2.3237,2.2875,2.3458,2.4805,2.5155,2.6069,2.7338,2.5978,2.5403,2.5293,2.3657,2.2997,2.307,2.3878,2.3951,2.3694,2.454,2.5092,2.5531,2.636,2.6675,2.6769,2.7159,2.6479,2.5575,2.6001,2.6108,2.616,2.6628,2.7331,2.807,2.8558,2.8669,2.8762,2.9209,2.9262,2.924,2.9156,2.9174,2.9282,2.9503,2.9566,2.9456,2.9189,2.9089,2.8828,2.8351,2.8947,2.9347,2.9052,2.9412,2.9862,3.0343,2.9792,2.9547,2.9922,2.9244,2.9476,3.1011,3.11,3.1462,3.2283,3.2091,3.1714,3.1123,3.0299,2.9747,2.9438,2.7858,2.6643,2.5867,2.4691,2.4583,3.4332,3.4611,3.5047,3.5038,3.4497,3.3974,0.0,0.0,0.0,3.1243,3.1155,3.1094,3.0983,3.1983,3.2673,3.2283,3.3681,3.4563,3.3837,3.4226,3.453,3.4335,3.43,3.4059,3.3404,3.3519,3.2985,3.1417,3.12,3.0421,2.8778,2.8553,2.8239,2.7632,2.6623,2.5764,2.5005,2.4212,2.3495,2.2919,2.2833,2.3371,2.4523,2.5354,2.6285,2.7162,2.5758,2.509,2.4797,2.2832,2.1749,2.1509,2.3272,2.3566,2.318,2.4688,2.5424,2.5846,2.7211,2.7361,2.7159,2.8467,2.7345,2.5705,2.6843,2.6801,2.6248,2.5667,2.6073,2.6903,2.7837,2.8079,2.8283,2.9077,2.9151,2.9071,2.9277,2.9424,2.9618,2.9843,2.9911,2.9884,2.9758,2.9372,2.8969,2.8627,2.9204,2.9499,2.8965,2.9722,3.0344,3.0566,3.0137,3.0083,3.0689,3.0047,3.0208,3.1599,3.1627,3.1756,3.2179,3.1714,3.1106,3.0384,2.9837,2.9383,2.8919,2.7114,2.6255,2.6213,2.4149,2.3837,3.2639,3.3404,3.4105,3.2943,3.3104,3.3139,3.1941,0.0,3.0375,3.0336,0.0,3.0424,3.1355,0.0,0.0,3.3258,3.4638,3.5332,3.4686,3.5681,3.6154,3.5173,3.5076,3.5025,3.4938,3.469,3.3758,3.18,3.2264,3.1803,2.9916,2.9211,2.8789,2.8702,2.7018,2.5764,2.5005,2.4212,2.3753,2.365,2.3258,2.3957,2.5608,2.5247,2.5677,2.6606,2.5014,2.3933,2.3254,2.2978,2.1565,1.9822,2.2208,2.3088,2.3107,2.4026,2.5278,2.6587,2.6776,2.7274,2.7883,2.8075,2.6927,2.5392,2.4798,2.5054,2.5531,2.5518,2.6073,2.6888,2.7781,2.8024,2.8207,2.9037,2.8621,2.8342,2.9403,2.8954,2.882,3.0589,2.9685,2.8637,2.8749,2.9286,2.9186,2.7722,2.8105,2.8667,2.8877,2.9611,3.0476,3.1431,3.1492,3.1474,3.1564,3.0832,3.0761,3.1635,3.137,3.134,3.1752,3.1044,3.041,2.9897,2.9178,2.8694,2.8384,2.6439,2.5645,2.5832,2.4209,2.4028,3.2324,3.2684,3.3072,3.2739,3.2418,3.2052,3.1665,3.0886,3.0189,3.0189,0.0,0.0,0.0,0.0,0.0,0.0,3.4053,3.5037,3.474,3.5031,3.5351,3.5514,3.6105,3.6353,3.5846,3.4903,3.3863,3.2721,3.298,3.2553,3.1058,3.0088,2.9343,2.8903,2.7535,2.6419,2.5661,2.4885,2.4281,2.3788,2.3319,2.3559,2.4432,2.4807,2.5321,2.5841,2.4704,2.3749,2.2905,2.1951,2.0941,2.0152,2.1694,2.2593,2.3217,2.5001,2.6383,2.7343,2.6868,2.7278,2.7853,2.6911,2.6114,2.5336,2.4449,2.443,2.4725,2.4744,2.5003,2.5446,2.6355,2.6948,2.7483,2.8209,2.8741,2.9053,2.8959,2.943,2.9814,2.979,2.976,2.9471,2.8639,2.8397,2.8276,2.7971,2.8276,2.8563,2.8704,2.9962,3.102,3.1497,3.1402,3.1629,3.2349,3.143,3.1179,3.1991,3.1445,3.1185,3.1321,3.0821,3.03,2.981,2.9239,2.8523,2.7703,2.6703,2.588,2.5168,2.3926,2.3925,3.1823,3.1921,3.2126,3.2237,3.1973,3.1644,3.1473,3.1014,3.052,3.0307,3.0189,0.0,0.0,0.0,3.1816,3.2026,0.0,3.448,3.43,3.4303,3.4684,3.5671,3.6585,3.6904,3.6127,3.546,3.4585,3.3561,3.3815,3.345,3.2076,3.0963,2.998,2.9237,2.8178,2.7126,2.6126,2.5367,2.4609,2.3788,2.3377,2.3242,2.3432,2.435,2.4782,2.4685,2.3878,2.3088,2.2227,2.1272,2.0721,2.0649,2.2189,2.2997,2.3547,2.5351,2.6698,2.7509,2.6925,2.73,2.7729,2.5875,2.5393,2.5355,2.4487,2.4229,2.4229,2.4229,2.4192,2.4337,2.5242,2.5887,2.6431,2.7171,2.8088,2.8696,2.8335,2.926,2.9904,2.9123,2.9621,2.9815,2.8689,2.8001,2.7713,2.804,2.8204,2.8296,2.8359,2.9846,3.0973,3.1006,3.1161,3.1635,3.2553,3.1774,3.1481,3.195,3.1414,3.1044,3.0925,3.0675,3.0199,2.9617,2.9319,2.8513,2.7163,2.6916,2.6122,2.4851,2.4164,2.4224,3.0622,3.0952,3.1374,3.0733,3.162,3.2282,3.0874,3.109,3.1345,3.0634,3.0443,3.0375,3.0375,3.0811,3.1368,3.2085,3.3275,0.0,0.0,3.4055,3.4944,3.5722,3.6105,3.6191,3.577,3.675,3.6435,3.4151,3.4997,3.479,3.288,3.1744,3.0791,2.9983,2.8928,2.7644,2.6126,2.5367,2.4609,2.3815,2.3523,2.3392,2.3414,2.3974,2.3823,2.3033,2.2226,2.1382,2.0631,2.1418,2.1253,2.0814,2.4025,2.4814,2.4171,2.4247,2.5372,2.6834,2.6819,2.7378,2.7696,2.5245,2.4949,2.543,2.4561,2.4284,2.4284,2.4284,2.4153,2.4198,2.5004,2.5034,2.5082,2.5958,2.6099,2.6376,2.7642,2.7813,2.8062,2.9246,2.9149,2.8846,2.8811,2.856,2.8127,2.7437,2.7456,2.7574,2.7707,2.8914,2.9841,3.0021,3.1029,3.1733,3.193,3.1787,3.1548,3.1145,3.1106,3.0942,3.0526,3.0526,3.007,2.912,2.9243,2.8498,2.6796,2.6808,2.6156,2.4999,2.5285,2.5194,3.0509,3.0667,3.0799,3.0534,3.0891,3.1123,3.0626,3.0328,3.0228,3.0477,3.0063,2.9815,3.0192,3.0707,3.1144,3.1297,3.2093,3.2627,0.0,3.3093,3.3495,3.333,3.5078,3.6347,3.6431,3.5867,3.5101,3.4082,3.3806,3.3444,3.283,3.178,3.0826,3.0018,2.8962,2.792,2.6902,2.5626,2.4936,2.4774,2.3844,2.3482,2.3671,2.4054,2.4043,2.3749,2.2942,2.2428,2.2152,2.1896,2.1932,2.2245,2.3382,2.3969,2.4263,2.4797,2.572,2.6668,2.6228,2.5931,2.5652,2.5319,2.5412,2.5597,2.5208,2.5097,2.4948,2.428,2.4036,2.3969,2.41,2.4468,2.4851,2.4998,2.5714,2.6322,2.6128,2.6795,2.739,2.7264,2.7549,2.7816,2.7816,2.7739,2.7684,2.7677,2.7672,2.7774,2.8202,2.9211,2.9998,3.03,3.1001,3.1545,3.1858,3.162,3.1355,3.1123,3.0861,3.0634,3.0526,3.0526,3.007,2.912,2.8974,2.8136,2.652,2.6854,2.6377,2.5177,2.6154,2.6037,3.017,3.0129,3.0063,2.9814,2.9987,3.0211,3.0268,3.0125,3.0066,3.0282,2.9926,2.9596,2.9674,3.0021,3.0231,3.0189,3.0372,3.0616,0.0,3.1775,3.2343,3.2118,3.4353,3.5866,3.5832,3.5535,3.4918,3.3879,3.3808,3.3454,3.2654,3.2107,3.1324,3.0293,2.9313,2.8437,2.7696,2.5957,2.5142,2.5174,2.4064,2.3588,2.3671,2.4036,2.4043,2.3749,2.3235,2.285,2.2556,2.2318,2.2538,2.3033,2.3327,2.3749,2.4263,2.4679,2.5541,2.6447,2.6151,2.5894,2.5727,2.5987,2.6098,2.6117,2.6023,2.5744,2.5315,2.4622,2.4055,2.3649,2.3473,2.3732,2.4105,2.4282,2.52,2.588,2.5331,2.6316,2.7057,2.6264,2.6822,2.7434,2.7434,2.766,2.784,2.7766,2.7959,2.825,2.8679,2.9562,3.0264,3.0489,3.0819,3.114,3.1355,3.1218,3.1021,3.0902,3.0634,3.0526,3.0526,3.0526,2.9999,2.8981,2.8839,2.7945,2.6283,2.6809,2.6423,2.5224,2.6479,2.6329]}]]